<?xml version="1.0" encoding="UTF-8" standalone="no" ?>
<gpx xmlns="http://www.topografix.com/GPX/1/1" xmlns:xsi="http://www.w3.org/2001/XMLSchema-instance" xsi:schemaLocation="http://www.topografix.com/GPX/1/1 http://www.topografix.com/GPX/1/1/gpx.xsd" version="1.1" creator="VisuGPX - https://www.visugpx.com">
  <metadata>
    <name>Dimanche 12-10-2025</name>
  </metadata>
  <trk>
    <name><![CDATA[Cyclisme en extérieur]]></name>
    <trkseg>
      <trkpt lat="48.6015" lon="-3.03622">
        <ele>71.8</ele>
        <time>2025-10-12T06:30:09Z</time>
      </trkpt>
      <trkpt lat="48.60147" lon="-3.03621">
        <ele>71.8</ele>
        <time>2025-10-12T06:30:10Z</time>
      </trkpt>
      <trkpt lat="48.60146" lon="-3.03621">
        <ele>71.8</ele>
        <time>2025-10-12T06:30:11Z</time>
      </trkpt>
      <trkpt lat="48.60003" lon="-3.03454">
        <ele>71.2</ele>
        <time>2025-10-12T06:30:54Z</time>
      </trkpt>
      <trkpt lat="48.60006" lon="-3.03446">
        <ele>71</ele>
        <time>2025-10-12T06:30:56Z</time>
      </trkpt>
      <trkpt lat="48.6001" lon="-3.03437">
        <ele>70.8</ele>
        <time>2025-10-12T06:30:57Z</time>
      </trkpt>
      <trkpt lat="48.60036" lon="-3.03372">
        <ele>69.6</ele>
        <time>2025-10-12T06:31:05Z</time>
      </trkpt>
      <trkpt lat="48.60058" lon="-3.03317">
        <ele>69.6</ele>
        <time>2025-10-12T06:31:13Z</time>
      </trkpt>
      <trkpt lat="48.60063" lon="-3.03303">
        <ele>70</ele>
        <time>2025-10-12T06:31:15Z</time>
      </trkpt>
      <trkpt lat="48.60065" lon="-3.03297">
        <ele>70</ele>
        <time>2025-10-12T06:31:16Z</time>
      </trkpt>
      <trkpt lat="48.60068" lon="-3.0329">
        <ele>70.2</ele>
        <time>2025-10-12T06:31:17Z</time>
      </trkpt>
      <trkpt lat="48.6007" lon="-3.03284">
        <ele>70.4</ele>
        <time>2025-10-12T06:31:18Z</time>
      </trkpt>
      <trkpt lat="48.60072" lon="-3.03277">
        <ele>70.6</ele>
        <time>2025-10-12T06:31:19Z</time>
      </trkpt>
      <trkpt lat="48.60074" lon="-3.0327">
        <ele>70.8</ele>
        <time>2025-10-12T06:31:20Z</time>
      </trkpt>
      <trkpt lat="48.60074" lon="-3.03267">
        <ele>71</ele>
        <time>2025-10-12T06:31:21Z</time>
      </trkpt>
      <trkpt lat="48.60082" lon="-3.03222">
        <ele>72.2</ele>
        <time>2025-10-12T06:31:27Z</time>
      </trkpt>
      <trkpt lat="48.60083" lon="-3.03209">
        <ele>72.6</ele>
        <time>2025-10-12T06:31:29Z</time>
      </trkpt>
      <trkpt lat="48.60083" lon="-3.03205">
        <ele>72.8</ele>
        <time>2025-10-12T06:31:30Z</time>
      </trkpt>
      <trkpt lat="48.60091" lon="-3.03162">
        <ele>74</ele>
        <time>2025-10-12T06:31:36Z</time>
      </trkpt>
      <trkpt lat="48.60095" lon="-3.0315">
        <ele>74.6</ele>
        <time>2025-10-12T06:31:38Z</time>
      </trkpt>
      <trkpt lat="48.60097" lon="-3.03145">
        <ele>74.8</ele>
        <time>2025-10-12T06:31:39Z</time>
      </trkpt>
      <trkpt lat="48.60098" lon="-3.03142">
        <ele>75</ele>
        <time>2025-10-12T06:31:40Z</time>
      </trkpt>
      <trkpt lat="48.601" lon="-3.03136">
        <ele>75.4</ele>
        <time>2025-10-12T06:31:41Z</time>
      </trkpt>
      <trkpt lat="48.60103" lon="-3.0313">
        <ele>75.6</ele>
        <time>2025-10-12T06:31:42Z</time>
      </trkpt>
      <trkpt lat="48.60105" lon="-3.03124">
        <ele>76</ele>
        <time>2025-10-12T06:31:43Z</time>
      </trkpt>
      <trkpt lat="48.60107" lon="-3.03119">
        <ele>76.4</ele>
        <time>2025-10-12T06:31:44Z</time>
      </trkpt>
      <trkpt lat="48.60112" lon="-3.03103">
        <ele>77.2</ele>
        <time>2025-10-12T06:31:47Z</time>
      </trkpt>
      <trkpt lat="48.60114" lon="-3.03098">
        <ele>77.6</ele>
        <time>2025-10-12T06:31:48Z</time>
      </trkpt>
      <trkpt lat="48.60116" lon="-3.03094">
        <ele>77.8</ele>
        <time>2025-10-12T06:31:49Z</time>
      </trkpt>
      <trkpt lat="48.60118" lon="-3.03089">
        <ele>78.2</ele>
        <time>2025-10-12T06:31:50Z</time>
      </trkpt>
      <trkpt lat="48.60128" lon="-3.03064">
        <ele>79.8</ele>
        <time>2025-10-12T06:31:56Z</time>
      </trkpt>
      <trkpt lat="48.60127" lon="-3.03053">
        <ele>80.6</ele>
        <time>2025-10-12T06:31:58Z</time>
      </trkpt>
      <trkpt lat="48.60126" lon="-3.03048">
        <ele>80.8</ele>
        <time>2025-10-12T06:31:59Z</time>
      </trkpt>
      <trkpt lat="48.60123" lon="-3.03044">
        <ele>81.2</ele>
        <time>2025-10-12T06:32:00Z</time>
      </trkpt>
      <trkpt lat="48.60103" lon="-3.03029">
        <ele>83.2</ele>
        <time>2025-10-12T06:32:07Z</time>
      </trkpt>
      <trkpt lat="48.60078" lon="-3.03007">
        <ele>84.8</ele>
        <time>2025-10-12T06:32:15Z</time>
      </trkpt>
      <trkpt lat="48.60053" lon="-3.02975">
        <ele>85.2</ele>
        <time>2025-10-12T06:32:23Z</time>
      </trkpt>
      <trkpt lat="48.60022" lon="-3.02934">
        <ele>85</ele>
        <time>2025-10-12T06:32:31Z</time>
      </trkpt>
      <trkpt lat="48.59988" lon="-3.02887">
        <ele>85.4</ele>
        <time>2025-10-12T06:32:39Z</time>
      </trkpt>
      <trkpt lat="48.59961" lon="-3.02848">
        <ele>86</ele>
        <time>2025-10-12T06:32:47Z</time>
      </trkpt>
      <trkpt lat="48.59929" lon="-3.02813">
        <ele>86.4</ele>
        <time>2025-10-12T06:32:55Z</time>
      </trkpt>
      <trkpt lat="48.59896" lon="-3.02779">
        <ele>86.6</ele>
        <time>2025-10-12T06:33:03Z</time>
      </trkpt>
      <trkpt lat="48.59873" lon="-3.02747">
        <ele>87.4</ele>
        <time>2025-10-12T06:33:11Z</time>
      </trkpt>
      <trkpt lat="48.59859" lon="-3.02718">
        <ele>88.2</ele>
        <time>2025-10-12T06:33:16Z</time>
      </trkpt>
      <trkpt lat="48.59842" lon="-3.02674">
        <ele>89.8</ele>
        <time>2025-10-12T06:33:24Z</time>
      </trkpt>
      <trkpt lat="48.59822" lon="-3.02632">
        <ele>91.2</ele>
        <time>2025-10-12T06:33:32Z</time>
      </trkpt>
      <trkpt lat="48.598" lon="-3.02587">
        <ele>92</ele>
        <time>2025-10-12T06:33:40Z</time>
      </trkpt>
      <trkpt lat="48.59784" lon="-3.02572">
        <ele>92.6</ele>
        <time>2025-10-12T06:33:44Z</time>
      </trkpt>
      <trkpt lat="48.59745" lon="-3.02554">
        <ele>92.6</ele>
        <time>2025-10-12T06:33:52Z</time>
      </trkpt>
      <trkpt lat="48.59711" lon="-3.02536">
        <ele>92.2</ele>
        <time>2025-10-12T06:33:59Z</time>
      </trkpt>
      <trkpt lat="48.59706" lon="-3.02527">
        <ele>92.4</ele>
        <time>2025-10-12T06:34:01Z</time>
      </trkpt>
      <trkpt lat="48.59705" lon="-3.02516">
        <ele>92.6</ele>
        <time>2025-10-12T06:34:03Z</time>
      </trkpt>
      <trkpt lat="48.59708" lon="-3.02505">
        <ele>92.4</ele>
        <time>2025-10-12T06:34:05Z</time>
      </trkpt>
      <trkpt lat="48.5972" lon="-3.02495">
        <ele>92.4</ele>
        <time>2025-10-12T06:34:08Z</time>
      </trkpt>
      <trkpt lat="48.59755" lon="-3.02476">
        <ele>92.4</ele>
        <time>2025-10-12T06:34:15Z</time>
      </trkpt>
      <trkpt lat="48.59797" lon="-3.02446">
        <ele>92</ele>
        <time>2025-10-12T06:34:23Z</time>
      </trkpt>
      <trkpt lat="48.59842" lon="-3.02414">
        <ele>91.6</ele>
        <time>2025-10-12T06:34:31Z</time>
      </trkpt>
      <trkpt lat="48.59869" lon="-3.0239">
        <ele>91.2</ele>
        <time>2025-10-12T06:34:36Z</time>
      </trkpt>
      <trkpt lat="48.59893" lon="-3.02354">
        <ele>91</ele>
        <time>2025-10-12T06:34:42Z</time>
      </trkpt>
      <trkpt lat="48.59931" lon="-3.02298">
        <ele>90.6</ele>
        <time>2025-10-12T06:34:50Z</time>
      </trkpt>
      <trkpt lat="48.59965" lon="-3.02245">
        <ele>90.4</ele>
        <time>2025-10-12T06:34:58Z</time>
      </trkpt>
      <trkpt lat="48.6" lon="-3.02184">
        <ele>90.6</ele>
        <time>2025-10-12T06:35:06Z</time>
      </trkpt>
      <trkpt lat="48.60026" lon="-3.02124">
        <ele>90.4</ele>
        <time>2025-10-12T06:35:14Z</time>
      </trkpt>
      <trkpt lat="48.60041" lon="-3.02104">
        <ele>90.4</ele>
        <time>2025-10-12T06:35:17Z</time>
      </trkpt>
      <trkpt lat="48.6006" lon="-3.02092">
        <ele>90.4</ele>
        <time>2025-10-12T06:35:21Z</time>
      </trkpt>
      <trkpt lat="48.60097" lon="-3.02074">
        <ele>90.6</ele>
        <time>2025-10-12T06:35:28Z</time>
      </trkpt>
      <trkpt lat="48.60139" lon="-3.02047">
        <ele>91.2</ele>
        <time>2025-10-12T06:35:36Z</time>
      </trkpt>
      <trkpt lat="48.60169" lon="-3.02023">
        <ele>91.8</ele>
        <time>2025-10-12T06:35:42Z</time>
      </trkpt>
      <trkpt lat="48.60208" lon="-3.01985">
        <ele>92</ele>
        <time>2025-10-12T06:35:50Z</time>
      </trkpt>
      <trkpt lat="48.60249" lon="-3.01941">
        <ele>91.4</ele>
        <time>2025-10-12T06:35:58Z</time>
      </trkpt>
      <trkpt lat="48.6029" lon="-3.01902">
        <ele>91</ele>
        <time>2025-10-12T06:36:06Z</time>
      </trkpt>
      <trkpt lat="48.60326" lon="-3.01865">
        <ele>90.6</ele>
        <time>2025-10-12T06:36:14Z</time>
      </trkpt>
      <trkpt lat="48.60334" lon="-3.01859">
        <ele>90.2</ele>
        <time>2025-10-12T06:36:18Z</time>
      </trkpt>
      <trkpt lat="48.60356" lon="-3.01869">
        <ele>90</ele>
        <time>2025-10-12T06:36:23Z</time>
      </trkpt>
      <trkpt lat="48.60375" lon="-3.01863">
        <ele>89.6</ele>
        <time>2025-10-12T06:36:27Z</time>
      </trkpt>
      <trkpt lat="48.60399" lon="-3.01851">
        <ele>89.2</ele>
        <time>2025-10-12T06:36:33Z</time>
      </trkpt>
      <trkpt lat="48.60405" lon="-3.01838">
        <ele>88.8</ele>
        <time>2025-10-12T06:36:36Z</time>
      </trkpt>
      <trkpt lat="48.6041" lon="-3.01825">
        <ele>88.6</ele>
        <time>2025-10-12T06:36:39Z</time>
      </trkpt>
      <trkpt lat="48.60426" lon="-3.01807">
        <ele>88.4</ele>
        <time>2025-10-12T06:36:45Z</time>
      </trkpt>
      <trkpt lat="48.60434" lon="-3.01799">
        <ele>88.2</ele>
        <time>2025-10-12T06:36:48Z</time>
      </trkpt>
      <trkpt lat="48.60434" lon="-3.01787">
        <ele>88.2</ele>
        <time>2025-10-12T06:36:50Z</time>
      </trkpt>
      <trkpt lat="48.60421" lon="-3.01736">
        <ele>88</ele>
        <time>2025-10-12T06:36:58Z</time>
      </trkpt>
      <trkpt lat="48.60409" lon="-3.01701">
        <ele>88</ele>
        <time>2025-10-12T06:37:03Z</time>
      </trkpt>
      <trkpt lat="48.60389" lon="-3.01657">
        <ele>88.8</ele>
        <time>2025-10-12T06:37:10Z</time>
      </trkpt>
      <trkpt lat="48.60378" lon="-3.0161">
        <ele>90</ele>
        <time>2025-10-12T06:37:17Z</time>
      </trkpt>
      <trkpt lat="48.60369" lon="-3.01543">
        <ele>92.4</ele>
        <time>2025-10-12T06:37:25Z</time>
      </trkpt>
      <trkpt lat="48.60361" lon="-3.01504">
        <ele>94</ele>
        <time>2025-10-12T06:37:31Z</time>
      </trkpt>
      <trkpt lat="48.60337" lon="-3.01454">
        <ele>94.6</ele>
        <time>2025-10-12T06:37:40Z</time>
      </trkpt>
      <trkpt lat="48.60323" lon="-3.01415">
        <ele>94.6</ele>
        <time>2025-10-12T06:37:45Z</time>
      </trkpt>
      <trkpt lat="48.60318" lon="-3.01388">
        <ele>94.4</ele>
        <time>2025-10-12T06:37:48Z</time>
      </trkpt>
      <trkpt lat="48.60318" lon="-3.01341">
        <ele>94.2</ele>
        <time>2025-10-12T06:37:53Z</time>
      </trkpt>
      <trkpt lat="48.60322" lon="-3.01269">
        <ele>94</ele>
        <time>2025-10-12T06:38:01Z</time>
      </trkpt>
      <trkpt lat="48.60321" lon="-3.012">
        <ele>94.2</ele>
        <time>2025-10-12T06:38:09Z</time>
      </trkpt>
      <trkpt lat="48.60323" lon="-3.01164">
        <ele>94.6</ele>
        <time>2025-10-12T06:38:13Z</time>
      </trkpt>
      <trkpt lat="48.60333" lon="-3.01121">
        <ele>95.2</ele>
        <time>2025-10-12T06:38:19Z</time>
      </trkpt>
      <trkpt lat="48.60348" lon="-3.01068">
        <ele>95.4</ele>
        <time>2025-10-12T06:38:25Z</time>
      </trkpt>
      <trkpt lat="48.60352" lon="-3.01035">
        <ele>95.6</ele>
        <time>2025-10-12T06:38:29Z</time>
      </trkpt>
      <trkpt lat="48.6035" lon="-3.01">
        <ele>95.6</ele>
        <time>2025-10-12T06:38:34Z</time>
      </trkpt>
      <trkpt lat="48.6034" lon="-3.00948">
        <ele>95.8</ele>
        <time>2025-10-12T06:38:42Z</time>
      </trkpt>
      <trkpt lat="48.60326" lon="-3.00889">
        <ele>96</ele>
        <time>2025-10-12T06:38:50Z</time>
      </trkpt>
      <trkpt lat="48.60315" lon="-3.00818">
        <ele>95.6</ele>
        <time>2025-10-12T06:38:58Z</time>
      </trkpt>
      <trkpt lat="48.60308" lon="-3.00751">
        <ele>95.2</ele>
        <time>2025-10-12T06:39:06Z</time>
      </trkpt>
      <trkpt lat="48.60307" lon="-3.00698">
        <ele>95</ele>
        <time>2025-10-12T06:39:11Z</time>
      </trkpt>
      <trkpt lat="48.60309" lon="-3.00624">
        <ele>94.6</ele>
        <time>2025-10-12T06:39:19Z</time>
      </trkpt>
      <trkpt lat="48.6031" lon="-3.00552">
        <ele>94.4</ele>
        <time>2025-10-12T06:39:27Z</time>
      </trkpt>
      <trkpt lat="48.6031" lon="-3.00478">
        <ele>93.8</ele>
        <time>2025-10-12T06:39:35Z</time>
      </trkpt>
      <trkpt lat="48.60312" lon="-3.00427">
        <ele>93.4</ele>
        <time>2025-10-12T06:39:40Z</time>
      </trkpt>
      <trkpt lat="48.60324" lon="-3.00361">
        <ele>92.8</ele>
        <time>2025-10-12T06:39:46Z</time>
      </trkpt>
      <trkpt lat="48.60342" lon="-3.00292">
        <ele>92</ele>
        <time>2025-10-12T06:39:54Z</time>
      </trkpt>
      <trkpt lat="48.60349" lon="-3.00245">
        <ele>91.4</ele>
        <time>2025-10-12T06:39:59Z</time>
      </trkpt>
      <trkpt lat="48.60351" lon="-3.0017">
        <ele>90.8</ele>
        <time>2025-10-12T06:40:07Z</time>
      </trkpt>
      <trkpt lat="48.60352" lon="-3.00141">
        <ele>90.6</ele>
        <time>2025-10-12T06:40:11Z</time>
      </trkpt>
      <trkpt lat="48.60352" lon="-3.00131">
        <ele>90.4</ele>
        <time>2025-10-12T06:40:12Z</time>
      </trkpt>
      <trkpt lat="48.60352" lon="-3.00121">
        <ele>90.2</ele>
        <time>2025-10-12T06:40:13Z</time>
      </trkpt>
      <trkpt lat="48.60352" lon="-3.0011">
        <ele>89.8</ele>
        <time>2025-10-12T06:40:14Z</time>
      </trkpt>
      <trkpt lat="48.60351" lon="-3.00099">
        <ele>89.6</ele>
        <time>2025-10-12T06:40:15Z</time>
      </trkpt>
      <trkpt lat="48.60351" lon="-3.00088">
        <ele>89.4</ele>
        <time>2025-10-12T06:40:16Z</time>
      </trkpt>
      <trkpt lat="48.60349" lon="-3.00066">
        <ele>88.8</ele>
        <time>2025-10-12T06:40:18Z</time>
      </trkpt>
      <trkpt lat="48.60348" lon="-3.00055">
        <ele>88.6</ele>
        <time>2025-10-12T06:40:19Z</time>
      </trkpt>
      <trkpt lat="48.60344" lon="-2.99988">
        <ele>87.2</ele>
        <time>2025-10-12T06:40:25Z</time>
      </trkpt>
      <trkpt lat="48.60346" lon="-2.99956">
        <ele>86.8</ele>
        <time>2025-10-12T06:40:28Z</time>
      </trkpt>
      <trkpt lat="48.60354" lon="-2.99925">
        <ele>86.2</ele>
        <time>2025-10-12T06:40:31Z</time>
      </trkpt>
      <trkpt lat="48.60381" lon="-2.99847">
        <ele>84.4</ele>
        <time>2025-10-12T06:40:39Z</time>
      </trkpt>
      <trkpt lat="48.60385" lon="-2.99826">
        <ele>84.2</ele>
        <time>2025-10-12T06:40:41Z</time>
      </trkpt>
      <trkpt lat="48.60383" lon="-2.99805">
        <ele>83.8</ele>
        <time>2025-10-12T06:40:43Z</time>
      </trkpt>
      <trkpt lat="48.60376" lon="-2.99788">
        <ele>83.8</ele>
        <time>2025-10-12T06:40:45Z</time>
      </trkpt>
      <trkpt lat="48.60354" lon="-2.99766">
        <ele>83.8</ele>
        <time>2025-10-12T06:40:49Z</time>
      </trkpt>
      <trkpt lat="48.6033" lon="-2.9975">
        <ele>83.4</ele>
        <time>2025-10-12T06:40:53Z</time>
      </trkpt>
      <trkpt lat="48.60304" lon="-2.99736">
        <ele>83.2</ele>
        <time>2025-10-12T06:40:58Z</time>
      </trkpt>
      <trkpt lat="48.60288" lon="-2.99714">
        <ele>83</ele>
        <time>2025-10-12T06:41:01Z</time>
      </trkpt>
      <trkpt lat="48.60274" lon="-2.99681">
        <ele>82.6</ele>
        <time>2025-10-12T06:41:05Z</time>
      </trkpt>
      <trkpt lat="48.60268" lon="-2.99654">
        <ele>82.4</ele>
        <time>2025-10-12T06:41:08Z</time>
      </trkpt>
      <trkpt lat="48.60263" lon="-2.99618">
        <ele>82</ele>
        <time>2025-10-12T06:41:12Z</time>
      </trkpt>
      <trkpt lat="48.60255" lon="-2.99603">
        <ele>82</ele>
        <time>2025-10-12T06:41:14Z</time>
      </trkpt>
      <trkpt lat="48.60239" lon="-2.99591">
        <ele>81.8</ele>
        <time>2025-10-12T06:41:17Z</time>
      </trkpt>
      <trkpt lat="48.6019" lon="-2.99579">
        <ele>82</ele>
        <time>2025-10-12T06:41:25Z</time>
      </trkpt>
      <trkpt lat="48.60157" lon="-2.99564">
        <ele>82.6</ele>
        <time>2025-10-12T06:41:31Z</time>
      </trkpt>
      <trkpt lat="48.60121" lon="-2.99533">
        <ele>83.2</ele>
        <time>2025-10-12T06:41:39Z</time>
      </trkpt>
      <trkpt lat="48.60101" lon="-2.99527">
        <ele>83.2</ele>
        <time>2025-10-12T06:41:42Z</time>
      </trkpt>
      <trkpt lat="48.60074" lon="-2.99531">
        <ele>82.6</ele>
        <time>2025-10-12T06:41:46Z</time>
      </trkpt>
      <trkpt lat="48.60062" lon="-2.99533">
        <ele>82.4</ele>
        <time>2025-10-12T06:41:48Z</time>
      </trkpt>
      <trkpt lat="48.60051" lon="-2.99528">
        <ele>82</ele>
        <time>2025-10-12T06:41:50Z</time>
      </trkpt>
      <trkpt lat="48.60046" lon="-2.99522">
        <ele>81.6</ele>
        <time>2025-10-12T06:41:51Z</time>
      </trkpt>
      <trkpt lat="48.6004" lon="-2.99491">
        <ele>80.4</ele>
        <time>2025-10-12T06:41:54Z</time>
      </trkpt>
      <trkpt lat="48.60041" lon="-2.99479">
        <ele>80</ele>
        <time>2025-10-12T06:41:55Z</time>
      </trkpt>
      <trkpt lat="48.60043" lon="-2.99466">
        <ele>79.6</ele>
        <time>2025-10-12T06:41:56Z</time>
      </trkpt>
      <trkpt lat="48.60045" lon="-2.99454">
        <ele>79.2</ele>
        <time>2025-10-12T06:41:57Z</time>
      </trkpt>
      <trkpt lat="48.60057" lon="-2.99385">
        <ele>77</ele>
        <time>2025-10-12T06:42:03Z</time>
      </trkpt>
      <trkpt lat="48.60069" lon="-2.99313">
        <ele>75</ele>
        <time>2025-10-12T06:42:10Z</time>
      </trkpt>
      <trkpt lat="48.6008" lon="-2.99274">
        <ele>74.2</ele>
        <time>2025-10-12T06:42:13Z</time>
      </trkpt>
      <trkpt lat="48.60095" lon="-2.99233">
        <ele>72.6</ele>
        <time>2025-10-12T06:42:17Z</time>
      </trkpt>
      <trkpt lat="48.60096" lon="-2.99215">
        <ele>71.8</ele>
        <time>2025-10-12T06:42:19Z</time>
      </trkpt>
      <trkpt lat="48.60091" lon="-2.99185">
        <ele>70</ele>
        <time>2025-10-12T06:42:22Z</time>
      </trkpt>
      <trkpt lat="48.60085" lon="-2.99163">
        <ele>68.8</ele>
        <time>2025-10-12T06:42:24Z</time>
      </trkpt>
      <trkpt lat="48.60081" lon="-2.99152">
        <ele>68.2</ele>
        <time>2025-10-12T06:42:25Z</time>
      </trkpt>
      <trkpt lat="48.60077" lon="-2.99141">
        <ele>67.4</ele>
        <time>2025-10-12T06:42:26Z</time>
      </trkpt>
      <trkpt lat="48.60051" lon="-2.99108">
        <ele>65.4</ele>
        <time>2025-10-12T06:42:30Z</time>
      </trkpt>
      <trkpt lat="48.60037" lon="-2.9909">
        <ele>64.8</ele>
        <time>2025-10-12T06:42:32Z</time>
      </trkpt>
      <trkpt lat="48.60028" lon="-2.9907">
        <ele>64.2</ele>
        <time>2025-10-12T06:42:34Z</time>
      </trkpt>
      <trkpt lat="48.60014" lon="-2.99015">
        <ele>63.2</ele>
        <time>2025-10-12T06:42:39Z</time>
      </trkpt>
      <trkpt lat="48.60001" lon="-2.98988">
        <ele>63</ele>
        <time>2025-10-12T06:42:44Z</time>
      </trkpt>
      <trkpt lat="48.59966" lon="-2.98941">
        <ele>62.6</ele>
        <time>2025-10-12T06:42:51Z</time>
      </trkpt>
      <trkpt lat="48.59932" lon="-2.98902">
        <ele>62.4</ele>
        <time>2025-10-12T06:42:58Z</time>
      </trkpt>
      <trkpt lat="48.59894" lon="-2.98867">
        <ele>61.8</ele>
        <time>2025-10-12T06:43:05Z</time>
      </trkpt>
      <trkpt lat="48.59853" lon="-2.98842">
        <ele>59.6</ele>
        <time>2025-10-12T06:43:11Z</time>
      </trkpt>
      <trkpt lat="48.59812" lon="-2.98822">
        <ele>57.6</ele>
        <time>2025-10-12T06:43:16Z</time>
      </trkpt>
      <trkpt lat="48.59778" lon="-2.98809">
        <ele>57</ele>
        <time>2025-10-12T06:43:21Z</time>
      </trkpt>
      <trkpt lat="48.59737" lon="-2.9878">
        <ele>57.2</ele>
        <time>2025-10-12T06:43:28Z</time>
      </trkpt>
      <trkpt lat="48.59734" lon="-2.98772">
        <ele>57.6</ele>
        <time>2025-10-12T06:43:30Z</time>
      </trkpt>
      <trkpt lat="48.59737" lon="-2.98764">
        <ele>57.8</ele>
        <time>2025-10-12T06:43:32Z</time>
      </trkpt>
      <trkpt lat="48.59774" lon="-2.9872">
        <ele>57.8</ele>
        <time>2025-10-12T06:43:40Z</time>
      </trkpt>
      <trkpt lat="48.59797" lon="-2.98676">
        <ele>57.6</ele>
        <time>2025-10-12T06:43:46Z</time>
      </trkpt>
      <trkpt lat="48.5981" lon="-2.98636">
        <ele>57.6</ele>
        <time>2025-10-12T06:43:51Z</time>
      </trkpt>
      <trkpt lat="48.59829" lon="-2.98566">
        <ele>58</ele>
        <time>2025-10-12T06:43:59Z</time>
      </trkpt>
      <trkpt lat="48.59852" lon="-2.9851">
        <ele>59.6</ele>
        <time>2025-10-12T06:44:07Z</time>
      </trkpt>
      <trkpt lat="48.59867" lon="-2.98467">
        <ele>61.8</ele>
        <time>2025-10-12T06:44:14Z</time>
      </trkpt>
      <trkpt lat="48.59871" lon="-2.98428">
        <ele>63.2</ele>
        <time>2025-10-12T06:44:20Z</time>
      </trkpt>
      <trkpt lat="48.59877" lon="-2.98377">
        <ele>65.2</ele>
        <time>2025-10-12T06:44:28Z</time>
      </trkpt>
      <trkpt lat="48.59875" lon="-2.98333">
        <ele>67</ele>
        <time>2025-10-12T06:44:35Z</time>
      </trkpt>
      <trkpt lat="48.59872" lon="-2.98302">
        <ele>68.2</ele>
        <time>2025-10-12T06:44:39Z</time>
      </trkpt>
      <trkpt lat="48.59875" lon="-2.98268">
        <ele>69.6</ele>
        <time>2025-10-12T06:44:44Z</time>
      </trkpt>
      <trkpt lat="48.59881" lon="-2.98224">
        <ele>71.6</ele>
        <time>2025-10-12T06:44:52Z</time>
      </trkpt>
      <trkpt lat="48.59888" lon="-2.98181">
        <ele>73.6</ele>
        <time>2025-10-12T06:45:00Z</time>
      </trkpt>
      <trkpt lat="48.59893" lon="-2.98137">
        <ele>75.4</ele>
        <time>2025-10-12T06:45:09Z</time>
      </trkpt>
      <trkpt lat="48.59899" lon="-2.98113">
        <ele>76.6</ele>
        <time>2025-10-12T06:45:14Z</time>
      </trkpt>
      <trkpt lat="48.5991" lon="-2.98084">
        <ele>77.8</ele>
        <time>2025-10-12T06:45:20Z</time>
      </trkpt>
      <trkpt lat="48.59928" lon="-2.98052">
        <ele>79.4</ele>
        <time>2025-10-12T06:45:28Z</time>
      </trkpt>
      <trkpt lat="48.59948" lon="-2.98013">
        <ele>81.2</ele>
        <time>2025-10-12T06:45:36Z</time>
      </trkpt>
      <trkpt lat="48.59961" lon="-2.97973">
        <ele>82.8</ele>
        <time>2025-10-12T06:45:44Z</time>
      </trkpt>
      <trkpt lat="48.59975" lon="-2.97944">
        <ele>84.6</ele>
        <time>2025-10-12T06:45:51Z</time>
      </trkpt>
      <trkpt lat="48.59989" lon="-2.97924">
        <ele>85.4</ele>
        <time>2025-10-12T06:45:56Z</time>
      </trkpt>
      <trkpt lat="48.6001" lon="-2.97909">
        <ele>86.2</ele>
        <time>2025-10-12T06:46:02Z</time>
      </trkpt>
      <trkpt lat="48.60028" lon="-2.97906">
        <ele>86.4</ele>
        <time>2025-10-12T06:46:06Z</time>
      </trkpt>
      <trkpt lat="48.60047" lon="-2.97912">
        <ele>86.4</ele>
        <time>2025-10-12T06:46:10Z</time>
      </trkpt>
      <trkpt lat="48.60082" lon="-2.97937">
        <ele>86.8</ele>
        <time>2025-10-12T06:46:18Z</time>
      </trkpt>
      <trkpt lat="48.60116" lon="-2.97959">
        <ele>87</ele>
        <time>2025-10-12T06:46:26Z</time>
      </trkpt>
      <trkpt lat="48.60161" lon="-2.97982">
        <ele>86.6</ele>
        <time>2025-10-12T06:46:34Z</time>
      </trkpt>
      <trkpt lat="48.60205" lon="-2.98004">
        <ele>86.6</ele>
        <time>2025-10-12T06:46:42Z</time>
      </trkpt>
      <trkpt lat="48.6025" lon="-2.98024">
        <ele>86.4</ele>
        <time>2025-10-12T06:46:50Z</time>
      </trkpt>
      <trkpt lat="48.60298" lon="-2.98044">
        <ele>86</ele>
        <time>2025-10-12T06:46:58Z</time>
      </trkpt>
      <trkpt lat="48.60349" lon="-2.98069">
        <ele>85.6</ele>
        <time>2025-10-12T06:47:06Z</time>
      </trkpt>
      <trkpt lat="48.60399" lon="-2.98096">
        <ele>85</ele>
        <time>2025-10-12T06:47:14Z</time>
      </trkpt>
      <trkpt lat="48.60445" lon="-2.98122">
        <ele>84.6</ele>
        <time>2025-10-12T06:47:22Z</time>
      </trkpt>
      <trkpt lat="48.60489" lon="-2.98154">
        <ele>84.8</ele>
        <time>2025-10-12T06:47:30Z</time>
      </trkpt>
      <trkpt lat="48.60523" lon="-2.98174">
        <ele>85</ele>
        <time>2025-10-12T06:47:37Z</time>
      </trkpt>
      <trkpt lat="48.60569" lon="-2.98196">
        <ele>85.4</ele>
        <time>2025-10-12T06:47:45Z</time>
      </trkpt>
      <trkpt lat="48.60616" lon="-2.98221">
        <ele>85.4</ele>
        <time>2025-10-12T06:47:53Z</time>
      </trkpt>
      <trkpt lat="48.6066" lon="-2.98253">
        <ele>85</ele>
        <time>2025-10-12T06:48:01Z</time>
      </trkpt>
      <trkpt lat="48.60697" lon="-2.9827">
        <ele>84.4</ele>
        <time>2025-10-12T06:48:07Z</time>
      </trkpt>
      <trkpt lat="48.60743" lon="-2.98279">
        <ele>83.6</ele>
        <time>2025-10-12T06:48:14Z</time>
      </trkpt>
      <trkpt lat="48.60796" lon="-2.98276">
        <ele>82</ele>
        <time>2025-10-12T06:48:22Z</time>
      </trkpt>
      <trkpt lat="48.60832" lon="-2.98277">
        <ele>81.2</ele>
        <time>2025-10-12T06:48:27Z</time>
      </trkpt>
      <trkpt lat="48.60884" lon="-2.9829">
        <ele>80.2</ele>
        <time>2025-10-12T06:48:35Z</time>
      </trkpt>
      <trkpt lat="48.60936" lon="-2.98309">
        <ele>78.6</ele>
        <time>2025-10-12T06:48:43Z</time>
      </trkpt>
      <trkpt lat="48.6097" lon="-2.98318">
        <ele>77.2</ele>
        <time>2025-10-12T06:48:47Z</time>
      </trkpt>
      <trkpt lat="48.61002" lon="-2.98315">
        <ele>76</ele>
        <time>2025-10-12T06:48:51Z</time>
      </trkpt>
      <trkpt lat="48.61069" lon="-2.98301">
        <ele>73.2</ele>
        <time>2025-10-12T06:48:59Z</time>
      </trkpt>
      <trkpt lat="48.61119" lon="-2.9829">
        <ele>71.2</ele>
        <time>2025-10-12T06:49:05Z</time>
      </trkpt>
      <trkpt lat="48.61128" lon="-2.98288">
        <ele>70.8</ele>
        <time>2025-10-12T06:49:06Z</time>
      </trkpt>
      <trkpt lat="48.61172" lon="-2.98285">
        <ele>69.4</ele>
        <time>2025-10-12T06:49:11Z</time>
      </trkpt>
      <trkpt lat="48.61238" lon="-2.98286">
        <ele>67.2</ele>
        <time>2025-10-12T06:49:19Z</time>
      </trkpt>
      <trkpt lat="48.61287" lon="-2.9829">
        <ele>65.2</ele>
        <time>2025-10-12T06:49:25Z</time>
      </trkpt>
      <trkpt lat="48.61321" lon="-2.98297">
        <ele>63.2</ele>
        <time>2025-10-12T06:49:29Z</time>
      </trkpt>
      <trkpt lat="48.6133" lon="-2.98299">
        <ele>62.6</ele>
        <time>2025-10-12T06:49:30Z</time>
      </trkpt>
      <trkpt lat="48.61406" lon="-2.9832">
        <ele>61</ele>
        <time>2025-10-12T06:49:38Z</time>
      </trkpt>
      <trkpt lat="48.61451" lon="-2.98334">
        <ele>62.8</ele>
        <time>2025-10-12T06:49:46Z</time>
      </trkpt>
      <trkpt lat="48.61488" lon="-2.98349">
        <ele>65.4</ele>
        <time>2025-10-12T06:49:54Z</time>
      </trkpt>
      <trkpt lat="48.61522" lon="-2.98365">
        <ele>68</ele>
        <time>2025-10-12T06:50:02Z</time>
      </trkpt>
      <trkpt lat="48.61556" lon="-2.9838">
        <ele>70.2</ele>
        <time>2025-10-12T06:50:11Z</time>
      </trkpt>
      <trkpt lat="48.61592" lon="-2.98395">
        <ele>72</ele>
        <time>2025-10-12T06:50:19Z</time>
      </trkpt>
      <trkpt lat="48.61628" lon="-2.98408">
        <ele>73.6</ele>
        <time>2025-10-12T06:50:27Z</time>
      </trkpt>
      <trkpt lat="48.61666" lon="-2.98433">
        <ele>74.4</ele>
        <time>2025-10-12T06:50:35Z</time>
      </trkpt>
      <trkpt lat="48.6169" lon="-2.98448">
        <ele>74.4</ele>
        <time>2025-10-12T06:50:40Z</time>
      </trkpt>
      <trkpt lat="48.61702" lon="-2.98457">
        <ele>74.4</ele>
        <time>2025-10-12T06:50:43Z</time>
      </trkpt>
      <trkpt lat="48.61706" lon="-2.98455">
        <ele>74.2</ele>
        <time>2025-10-12T06:50:45Z</time>
      </trkpt>
      <trkpt lat="48.61719" lon="-2.984">
        <ele>75</ele>
        <time>2025-10-12T06:50:53Z</time>
      </trkpt>
      <trkpt lat="48.61729" lon="-2.98359">
        <ele>75.8</ele>
        <time>2025-10-12T06:50:59Z</time>
      </trkpt>
      <trkpt lat="48.6173" lon="-2.98329">
        <ele>76.4</ele>
        <time>2025-10-12T06:51:03Z</time>
      </trkpt>
      <trkpt lat="48.6173" lon="-2.98292">
        <ele>77.2</ele>
        <time>2025-10-12T06:51:08Z</time>
      </trkpt>
      <trkpt lat="48.61733" lon="-2.98264">
        <ele>77.8</ele>
        <time>2025-10-12T06:51:12Z</time>
      </trkpt>
      <trkpt lat="48.6175" lon="-2.98209">
        <ele>78.8</ele>
        <time>2025-10-12T06:51:20Z</time>
      </trkpt>
      <trkpt lat="48.61767" lon="-2.98154">
        <ele>80</ele>
        <time>2025-10-12T06:51:28Z</time>
      </trkpt>
      <trkpt lat="48.61783" lon="-2.981">
        <ele>81</ele>
        <time>2025-10-12T06:51:36Z</time>
      </trkpt>
      <trkpt lat="48.618" lon="-2.98041">
        <ele>81.8</ele>
        <time>2025-10-12T06:51:44Z</time>
      </trkpt>
      <trkpt lat="48.61812" lon="-2.97986">
        <ele>83.4</ele>
        <time>2025-10-12T06:51:52Z</time>
      </trkpt>
      <trkpt lat="48.61823" lon="-2.97929">
        <ele>85.2</ele>
        <time>2025-10-12T06:52:00Z</time>
      </trkpt>
      <trkpt lat="48.61836" lon="-2.97882">
        <ele>86.4</ele>
        <time>2025-10-12T06:52:06Z</time>
      </trkpt>
      <trkpt lat="48.61853" lon="-2.97848">
        <ele>87.4</ele>
        <time>2025-10-12T06:52:12Z</time>
      </trkpt>
      <trkpt lat="48.61881" lon="-2.9781">
        <ele>89.2</ele>
        <time>2025-10-12T06:52:20Z</time>
      </trkpt>
      <trkpt lat="48.61902" lon="-2.9778">
        <ele>90.2</ele>
        <time>2025-10-12T06:52:26Z</time>
      </trkpt>
      <trkpt lat="48.61922" lon="-2.97729">
        <ele>90.4</ele>
        <time>2025-10-12T06:52:34Z</time>
      </trkpt>
      <trkpt lat="48.61943" lon="-2.97668">
        <ele>90.8</ele>
        <time>2025-10-12T06:52:42Z</time>
      </trkpt>
      <trkpt lat="48.61964" lon="-2.97613">
        <ele>91.8</ele>
        <time>2025-10-12T06:52:50Z</time>
      </trkpt>
      <trkpt lat="48.61979" lon="-2.97581">
        <ele>93.6</ele>
        <time>2025-10-12T06:52:56Z</time>
      </trkpt>
      <trkpt lat="48.62002" lon="-2.97552">
        <ele>94.8</ele>
        <time>2025-10-12T06:53:02Z</time>
      </trkpt>
      <trkpt lat="48.62036" lon="-2.97519">
        <ele>95.4</ele>
        <time>2025-10-12T06:53:10Z</time>
      </trkpt>
      <trkpt lat="48.62069" lon="-2.97494">
        <ele>96.6</ele>
        <time>2025-10-12T06:53:18Z</time>
      </trkpt>
      <trkpt lat="48.62093" lon="-2.97473">
        <ele>97</ele>
        <time>2025-10-12T06:53:26Z</time>
      </trkpt>
      <trkpt lat="48.62128" lon="-2.97434">
        <ele>96.8</ele>
        <time>2025-10-12T06:53:34Z</time>
      </trkpt>
      <trkpt lat="48.62166" lon="-2.9739">
        <ele>96.8</ele>
        <time>2025-10-12T06:53:42Z</time>
      </trkpt>
      <trkpt lat="48.62205" lon="-2.97346">
        <ele>96.8</ele>
        <time>2025-10-12T06:53:50Z</time>
      </trkpt>
      <trkpt lat="48.62246" lon="-2.97306">
        <ele>97</ele>
        <time>2025-10-12T06:53:58Z</time>
      </trkpt>
      <trkpt lat="48.62288" lon="-2.97269">
        <ele>97</ele>
        <time>2025-10-12T06:54:06Z</time>
      </trkpt>
      <trkpt lat="48.62316" lon="-2.97246">
        <ele>97</ele>
        <time>2025-10-12T06:54:11Z</time>
      </trkpt>
      <trkpt lat="48.62334" lon="-2.97241">
        <ele>97</ele>
        <time>2025-10-12T06:54:14Z</time>
      </trkpt>
      <trkpt lat="48.62363" lon="-2.97247">
        <ele>97.2</ele>
        <time>2025-10-12T06:54:19Z</time>
      </trkpt>
      <trkpt lat="48.62373" lon="-2.97244">
        <ele>97.2</ele>
        <time>2025-10-12T06:54:21Z</time>
      </trkpt>
      <trkpt lat="48.62394" lon="-2.97199">
        <ele>97.6</ele>
        <time>2025-10-12T06:54:29Z</time>
      </trkpt>
      <trkpt lat="48.62411" lon="-2.97162">
        <ele>97.4</ele>
        <time>2025-10-12T06:54:34Z</time>
      </trkpt>
      <trkpt lat="48.62431" lon="-2.97139">
        <ele>97.2</ele>
        <time>2025-10-12T06:54:38Z</time>
      </trkpt>
      <trkpt lat="48.62472" lon="-2.97105">
        <ele>96.8</ele>
        <time>2025-10-12T06:54:46Z</time>
      </trkpt>
      <trkpt lat="48.62517" lon="-2.97064">
        <ele>96.8</ele>
        <time>2025-10-12T06:54:55Z</time>
      </trkpt>
      <trkpt lat="48.6256" lon="-2.97025">
        <ele>96.6</ele>
        <time>2025-10-12T06:55:03Z</time>
      </trkpt>
      <trkpt lat="48.62603" lon="-2.96987">
        <ele>96.4</ele>
        <time>2025-10-12T06:55:11Z</time>
      </trkpt>
      <trkpt lat="48.62644" lon="-2.9695">
        <ele>96</ele>
        <time>2025-10-12T06:55:19Z</time>
      </trkpt>
      <trkpt lat="48.62676" lon="-2.96915">
        <ele>95.8</ele>
        <time>2025-10-12T06:55:25Z</time>
      </trkpt>
      <trkpt lat="48.62712" lon="-2.96863">
        <ele>95.4</ele>
        <time>2025-10-12T06:55:33Z</time>
      </trkpt>
      <trkpt lat="48.62732" lon="-2.96839">
        <ele>95.2</ele>
        <time>2025-10-12T06:55:37Z</time>
      </trkpt>
      <trkpt lat="48.62777" lon="-2.96804">
        <ele>94.4</ele>
        <time>2025-10-12T06:55:45Z</time>
      </trkpt>
      <trkpt lat="48.62824" lon="-2.96772">
        <ele>93.6</ele>
        <time>2025-10-12T06:55:53Z</time>
      </trkpt>
      <trkpt lat="48.62862" lon="-2.96739">
        <ele>93.4</ele>
        <time>2025-10-12T06:56:00Z</time>
      </trkpt>
      <trkpt lat="48.62901" lon="-2.96692">
        <ele>93.2</ele>
        <time>2025-10-12T06:56:08Z</time>
      </trkpt>
      <trkpt lat="48.62941" lon="-2.96647">
        <ele>93</ele>
        <time>2025-10-12T06:56:16Z</time>
      </trkpt>
      <trkpt lat="48.62977" lon="-2.96609">
        <ele>93</ele>
        <time>2025-10-12T06:56:23Z</time>
      </trkpt>
      <trkpt lat="48.63011" lon="-2.96586">
        <ele>93</ele>
        <time>2025-10-12T06:56:29Z</time>
      </trkpt>
      <trkpt lat="48.63058" lon="-2.9656">
        <ele>92.8</ele>
        <time>2025-10-12T06:56:37Z</time>
      </trkpt>
      <trkpt lat="48.63105" lon="-2.96538">
        <ele>92.6</ele>
        <time>2025-10-12T06:56:45Z</time>
      </trkpt>
      <trkpt lat="48.63159" lon="-2.96511">
        <ele>92.6</ele>
        <time>2025-10-12T06:56:53Z</time>
      </trkpt>
      <trkpt lat="48.63205" lon="-2.96486">
        <ele>92.2</ele>
        <time>2025-10-12T06:57:01Z</time>
      </trkpt>
      <trkpt lat="48.63252" lon="-2.96461">
        <ele>92.2</ele>
        <time>2025-10-12T06:57:09Z</time>
      </trkpt>
      <trkpt lat="48.63298" lon="-2.96438">
        <ele>92.2</ele>
        <time>2025-10-12T06:57:18Z</time>
      </trkpt>
      <trkpt lat="48.63322" lon="-2.96427">
        <ele>92.2</ele>
        <time>2025-10-12T06:57:23Z</time>
      </trkpt>
      <trkpt lat="48.63327" lon="-2.9642">
        <ele>92.2</ele>
        <time>2025-10-12T06:57:25Z</time>
      </trkpt>
      <trkpt lat="48.63328" lon="-2.96401">
        <ele>92.2</ele>
        <time>2025-10-12T06:57:28Z</time>
      </trkpt>
      <trkpt lat="48.63322" lon="-2.96332">
        <ele>92.2</ele>
        <time>2025-10-12T06:57:36Z</time>
      </trkpt>
      <trkpt lat="48.63318" lon="-2.96258">
        <ele>92</ele>
        <time>2025-10-12T06:57:44Z</time>
      </trkpt>
      <trkpt lat="48.63313" lon="-2.96186">
        <ele>91.8</ele>
        <time>2025-10-12T06:57:52Z</time>
      </trkpt>
      <trkpt lat="48.63307" lon="-2.96114">
        <ele>91.6</ele>
        <time>2025-10-12T06:58:00Z</time>
      </trkpt>
      <trkpt lat="48.63298" lon="-2.96044">
        <ele>91.2</ele>
        <time>2025-10-12T06:58:07Z</time>
      </trkpt>
      <trkpt lat="48.63284" lon="-2.95972">
        <ele>90.6</ele>
        <time>2025-10-12T06:58:15Z</time>
      </trkpt>
      <trkpt lat="48.63269" lon="-2.959">
        <ele>90</ele>
        <time>2025-10-12T06:58:23Z</time>
      </trkpt>
      <trkpt lat="48.63253" lon="-2.95828">
        <ele>89.6</ele>
        <time>2025-10-12T06:58:31Z</time>
      </trkpt>
      <trkpt lat="48.63238" lon="-2.95756">
        <ele>89</ele>
        <time>2025-10-12T06:58:39Z</time>
      </trkpt>
      <trkpt lat="48.63224" lon="-2.95684">
        <ele>88.6</ele>
        <time>2025-10-12T06:58:47Z</time>
      </trkpt>
      <trkpt lat="48.63218" lon="-2.95636">
        <ele>88.4</ele>
        <time>2025-10-12T06:58:53Z</time>
      </trkpt>
      <trkpt lat="48.63218" lon="-2.95592">
        <ele>88</ele>
        <time>2025-10-12T06:58:57Z</time>
      </trkpt>
      <trkpt lat="48.63224" lon="-2.95552">
        <ele>87.8</ele>
        <time>2025-10-12T06:59:01Z</time>
      </trkpt>
      <trkpt lat="48.63235" lon="-2.95519">
        <ele>87.6</ele>
        <time>2025-10-12T06:59:05Z</time>
      </trkpt>
      <trkpt lat="48.63266" lon="-2.95444">
        <ele>86.6</ele>
        <time>2025-10-12T06:59:13Z</time>
      </trkpt>
      <trkpt lat="48.63292" lon="-2.9538">
        <ele>86</ele>
        <time>2025-10-12T06:59:21Z</time>
      </trkpt>
      <trkpt lat="48.63305" lon="-2.95336">
        <ele>85.4</ele>
        <time>2025-10-12T06:59:26Z</time>
      </trkpt>
      <trkpt lat="48.63313" lon="-2.95289">
        <ele>85</ele>
        <time>2025-10-12T06:59:31Z</time>
      </trkpt>
      <trkpt lat="48.63316" lon="-2.95217">
        <ele>84.4</ele>
        <time>2025-10-12T06:59:40Z</time>
      </trkpt>
      <trkpt lat="48.63318" lon="-2.95139">
        <ele>84</ele>
        <time>2025-10-12T06:59:48Z</time>
      </trkpt>
      <trkpt lat="48.63322" lon="-2.95063">
        <ele>83.8</ele>
        <time>2025-10-12T06:59:56Z</time>
      </trkpt>
      <trkpt lat="48.63324" lon="-2.94987">
        <ele>83.2</ele>
        <time>2025-10-12T07:00:04Z</time>
      </trkpt>
      <trkpt lat="48.63324" lon="-2.9491">
        <ele>82.4</ele>
        <time>2025-10-12T07:00:12Z</time>
      </trkpt>
      <trkpt lat="48.63322" lon="-2.94835">
        <ele>82.2</ele>
        <time>2025-10-12T07:00:20Z</time>
      </trkpt>
      <trkpt lat="48.63317" lon="-2.94761">
        <ele>82</ele>
        <time>2025-10-12T07:00:28Z</time>
      </trkpt>
      <trkpt lat="48.63314" lon="-2.94686">
        <ele>82</ele>
        <time>2025-10-12T07:00:36Z</time>
      </trkpt>
      <trkpt lat="48.63317" lon="-2.94643">
        <ele>81.4</ele>
        <time>2025-10-12T07:00:41Z</time>
      </trkpt>
      <trkpt lat="48.63327" lon="-2.94593">
        <ele>81</ele>
        <time>2025-10-12T07:00:46Z</time>
      </trkpt>
      <trkpt lat="48.63348" lon="-2.94524">
        <ele>80.6</ele>
        <time>2025-10-12T07:00:54Z</time>
      </trkpt>
      <trkpt lat="48.63364" lon="-2.94452">
        <ele>79.6</ele>
        <time>2025-10-12T07:01:02Z</time>
      </trkpt>
      <trkpt lat="48.63387" lon="-2.94373">
        <ele>77.2</ele>
        <time>2025-10-12T07:01:10Z</time>
      </trkpt>
      <trkpt lat="48.63402" lon="-2.94289">
        <ele>74.4</ele>
        <time>2025-10-12T07:01:17Z</time>
      </trkpt>
      <trkpt lat="48.63403" lon="-2.94248">
        <ele>73</ele>
        <time>2025-10-12T07:01:20Z</time>
      </trkpt>
      <trkpt lat="48.63395" lon="-2.94197">
        <ele>71.2</ele>
        <time>2025-10-12T07:01:24Z</time>
      </trkpt>
      <trkpt lat="48.63389" lon="-2.9416">
        <ele>70.6</ele>
        <time>2025-10-12T07:01:27Z</time>
      </trkpt>
      <trkpt lat="48.6339" lon="-2.94125">
        <ele>70.2</ele>
        <time>2025-10-12T07:01:30Z</time>
      </trkpt>
      <trkpt lat="48.63398" lon="-2.94086">
        <ele>69.4</ele>
        <time>2025-10-12T07:01:34Z</time>
      </trkpt>
      <trkpt lat="48.63414" lon="-2.94039">
        <ele>69</ele>
        <time>2025-10-12T07:01:38Z</time>
      </trkpt>
      <trkpt lat="48.63442" lon="-2.93971">
        <ele>69</ele>
        <time>2025-10-12T07:01:46Z</time>
      </trkpt>
      <trkpt lat="48.63453" lon="-2.93931">
        <ele>69.6</ele>
        <time>2025-10-12T07:01:51Z</time>
      </trkpt>
      <trkpt lat="48.63472" lon="-2.93904">
        <ele>70.4</ele>
        <time>2025-10-12T07:01:56Z</time>
      </trkpt>
      <trkpt lat="48.63482" lon="-2.93879">
        <ele>71.6</ele>
        <time>2025-10-12T07:02:00Z</time>
      </trkpt>
      <trkpt lat="48.6349" lon="-2.93837">
        <ele>73.6</ele>
        <time>2025-10-12T07:02:07Z</time>
      </trkpt>
      <trkpt lat="48.6349" lon="-2.93811">
        <ele>74.8</ele>
        <time>2025-10-12T07:02:12Z</time>
      </trkpt>
      <trkpt lat="48.63487" lon="-2.93759">
        <ele>76.8</ele>
        <time>2025-10-12T07:02:20Z</time>
      </trkpt>
      <trkpt lat="48.6349" lon="-2.93699">
        <ele>78.8</ele>
        <time>2025-10-12T07:02:28Z</time>
      </trkpt>
      <trkpt lat="48.63495" lon="-2.93639">
        <ele>80.2</ele>
        <time>2025-10-12T07:02:36Z</time>
      </trkpt>
      <trkpt lat="48.63501" lon="-2.93582">
        <ele>81.8</ele>
        <time>2025-10-12T07:02:44Z</time>
      </trkpt>
      <trkpt lat="48.63501" lon="-2.93536">
        <ele>83.4</ele>
        <time>2025-10-12T07:02:51Z</time>
      </trkpt>
      <trkpt lat="48.635" lon="-2.93475">
        <ele>84.6</ele>
        <time>2025-10-12T07:02:59Z</time>
      </trkpt>
      <trkpt lat="48.63495" lon="-2.93414">
        <ele>85.2</ele>
        <time>2025-10-12T07:03:07Z</time>
      </trkpt>
      <trkpt lat="48.63487" lon="-2.93346">
        <ele>84.6</ele>
        <time>2025-10-12T07:03:15Z</time>
      </trkpt>
      <trkpt lat="48.63483" lon="-2.93304">
        <ele>84.4</ele>
        <time>2025-10-12T07:03:19Z</time>
      </trkpt>
      <trkpt lat="48.63487" lon="-2.93248">
        <ele>84.2</ele>
        <time>2025-10-12T07:03:25Z</time>
      </trkpt>
      <trkpt lat="48.63498" lon="-2.9318">
        <ele>84.6</ele>
        <time>2025-10-12T07:03:33Z</time>
      </trkpt>
      <trkpt lat="48.63511" lon="-2.93116">
        <ele>85.6</ele>
        <time>2025-10-12T07:03:41Z</time>
      </trkpt>
      <trkpt lat="48.63521" lon="-2.9306">
        <ele>86.6</ele>
        <time>2025-10-12T07:03:49Z</time>
      </trkpt>
      <trkpt lat="48.63525" lon="-2.93012">
        <ele>86.8</ele>
        <time>2025-10-12T07:03:54Z</time>
      </trkpt>
      <trkpt lat="48.63524" lon="-2.92978">
        <ele>87</ele>
        <time>2025-10-12T07:03:58Z</time>
      </trkpt>
      <trkpt lat="48.63514" lon="-2.92921">
        <ele>88.2</ele>
        <time>2025-10-12T07:04:05Z</time>
      </trkpt>
      <trkpt lat="48.6351" lon="-2.92845">
        <ele>88.8</ele>
        <time>2025-10-12T07:04:13Z</time>
      </trkpt>
      <trkpt lat="48.63504" lon="-2.92767">
        <ele>88.2</ele>
        <time>2025-10-12T07:04:21Z</time>
      </trkpt>
      <trkpt lat="48.63494" lon="-2.92704">
        <ele>88</ele>
        <time>2025-10-12T07:04:28Z</time>
      </trkpt>
      <trkpt lat="48.63479" lon="-2.92644">
        <ele>89.4</ele>
        <time>2025-10-12T07:04:36Z</time>
      </trkpt>
      <trkpt lat="48.63462" lon="-2.92582">
        <ele>91</ele>
        <time>2025-10-12T07:04:45Z</time>
      </trkpt>
      <trkpt lat="48.63443" lon="-2.9252">
        <ele>92.2</ele>
        <time>2025-10-12T07:04:53Z</time>
      </trkpt>
      <trkpt lat="48.63433" lon="-2.92475">
        <ele>93.4</ele>
        <time>2025-10-12T07:04:59Z</time>
      </trkpt>
      <trkpt lat="48.63429" lon="-2.92436">
        <ele>94.2</ele>
        <time>2025-10-12T07:05:04Z</time>
      </trkpt>
      <trkpt lat="48.63431" lon="-2.92355">
        <ele>94.8</ele>
        <time>2025-10-12T07:05:13Z</time>
      </trkpt>
      <trkpt lat="48.63433" lon="-2.92284">
        <ele>95.6</ele>
        <time>2025-10-12T07:05:21Z</time>
      </trkpt>
      <trkpt lat="48.63436" lon="-2.9221">
        <ele>95.8</ele>
        <time>2025-10-12T07:05:29Z</time>
      </trkpt>
      <trkpt lat="48.63434" lon="-2.92144">
        <ele>95.6</ele>
        <time>2025-10-12T07:05:36Z</time>
      </trkpt>
      <trkpt lat="48.63431" lon="-2.92077">
        <ele>95.4</ele>
        <time>2025-10-12T07:05:44Z</time>
      </trkpt>
      <trkpt lat="48.6343" lon="-2.91995">
        <ele>95.2</ele>
        <time>2025-10-12T07:05:52Z</time>
      </trkpt>
      <trkpt lat="48.6343" lon="-2.91923">
        <ele>95.4</ele>
        <time>2025-10-12T07:06:00Z</time>
      </trkpt>
      <trkpt lat="48.63437" lon="-2.9185">
        <ele>95.8</ele>
        <time>2025-10-12T07:06:08Z</time>
      </trkpt>
      <trkpt lat="48.63443" lon="-2.91777">
        <ele>96</ele>
        <time>2025-10-12T07:06:16Z</time>
      </trkpt>
      <trkpt lat="48.63448" lon="-2.91705">
        <ele>96.6</ele>
        <time>2025-10-12T07:06:24Z</time>
      </trkpt>
      <trkpt lat="48.63455" lon="-2.91641">
        <ele>96.6</ele>
        <time>2025-10-12T07:06:31Z</time>
      </trkpt>
      <trkpt lat="48.63469" lon="-2.91577">
        <ele>96.6</ele>
        <time>2025-10-12T07:06:37Z</time>
      </trkpt>
      <trkpt lat="48.63479" lon="-2.91541">
        <ele>96.4</ele>
        <time>2025-10-12T07:06:42Z</time>
      </trkpt>
      <trkpt lat="48.63506" lon="-2.91483">
        <ele>96.2</ele>
        <time>2025-10-12T07:06:49Z</time>
      </trkpt>
      <trkpt lat="48.63531" lon="-2.91428">
        <ele>96.6</ele>
        <time>2025-10-12T07:06:57Z</time>
      </trkpt>
      <trkpt lat="48.63548" lon="-2.91376">
        <ele>97.2</ele>
        <time>2025-10-12T07:07:03Z</time>
      </trkpt>
      <trkpt lat="48.63559" lon="-2.91315">
        <ele>97.8</ele>
        <time>2025-10-12T07:07:11Z</time>
      </trkpt>
      <trkpt lat="48.63562" lon="-2.91261">
        <ele>98.4</ele>
        <time>2025-10-12T07:07:17Z</time>
      </trkpt>
      <trkpt lat="48.6356" lon="-2.91191">
        <ele>99.2</ele>
        <time>2025-10-12T07:07:25Z</time>
      </trkpt>
      <trkpt lat="48.63556" lon="-2.91121">
        <ele>99.8</ele>
        <time>2025-10-12T07:07:33Z</time>
      </trkpt>
      <trkpt lat="48.63551" lon="-2.91047">
        <ele>100.2</ele>
        <time>2025-10-12T07:07:41Z</time>
      </trkpt>
      <trkpt lat="48.63545" lon="-2.90972">
        <ele>100.2</ele>
        <time>2025-10-12T07:07:49Z</time>
      </trkpt>
      <trkpt lat="48.6354" lon="-2.90897">
        <ele>100.2</ele>
        <time>2025-10-12T07:07:57Z</time>
      </trkpt>
      <trkpt lat="48.63534" lon="-2.90819">
        <ele>99.6</ele>
        <time>2025-10-12T07:08:05Z</time>
      </trkpt>
      <trkpt lat="48.63528" lon="-2.90744">
        <ele>99</ele>
        <time>2025-10-12T07:08:13Z</time>
      </trkpt>
      <trkpt lat="48.6352" lon="-2.90662">
        <ele>98.6</ele>
        <time>2025-10-12T07:08:21Z</time>
      </trkpt>
      <trkpt lat="48.63511" lon="-2.90588">
        <ele>98.4</ele>
        <time>2025-10-12T07:08:29Z</time>
      </trkpt>
      <trkpt lat="48.63508" lon="-2.90546">
        <ele>98.4</ele>
        <time>2025-10-12T07:08:34Z</time>
      </trkpt>
      <trkpt lat="48.63509" lon="-2.90504">
        <ele>98.2</ele>
        <time>2025-10-12T07:08:38Z</time>
      </trkpt>
      <trkpt lat="48.63501" lon="-2.90479">
        <ele>98.2</ele>
        <time>2025-10-12T07:08:41Z</time>
      </trkpt>
      <trkpt lat="48.63486" lon="-2.90437">
        <ele>98</ele>
        <time>2025-10-12T07:08:46Z</time>
      </trkpt>
      <trkpt lat="48.63474" lon="-2.90364">
        <ele>98</ele>
        <time>2025-10-12T07:08:54Z</time>
      </trkpt>
      <trkpt lat="48.63465" lon="-2.903">
        <ele>98.4</ele>
        <time>2025-10-12T07:09:01Z</time>
      </trkpt>
      <trkpt lat="48.6346" lon="-2.90218">
        <ele>99</ele>
        <time>2025-10-12T07:09:09Z</time>
      </trkpt>
      <trkpt lat="48.63456" lon="-2.90144">
        <ele>99.4</ele>
        <time>2025-10-12T07:09:17Z</time>
      </trkpt>
      <trkpt lat="48.6345" lon="-2.90108">
        <ele>99.4</ele>
        <time>2025-10-12T07:09:21Z</time>
      </trkpt>
      <trkpt lat="48.6343" lon="-2.9004">
        <ele>99.4</ele>
        <time>2025-10-12T07:09:29Z</time>
      </trkpt>
      <trkpt lat="48.63421" lon="-2.90005">
        <ele>99.4</ele>
        <time>2025-10-12T07:09:34Z</time>
      </trkpt>
      <trkpt lat="48.63417" lon="-2.89959">
        <ele>99.4</ele>
        <time>2025-10-12T07:09:39Z</time>
      </trkpt>
      <trkpt lat="48.63412" lon="-2.89903">
        <ele>99.4</ele>
        <time>2025-10-12T07:09:45Z</time>
      </trkpt>
      <trkpt lat="48.634" lon="-2.89843">
        <ele>99.2</ele>
        <time>2025-10-12T07:09:52Z</time>
      </trkpt>
      <trkpt lat="48.63397" lon="-2.89802">
        <ele>98.8</ele>
        <time>2025-10-12T07:09:56Z</time>
      </trkpt>
      <trkpt lat="48.63398" lon="-2.89745">
        <ele>98.4</ele>
        <time>2025-10-12T07:10:02Z</time>
      </trkpt>
      <trkpt lat="48.63395" lon="-2.89717">
        <ele>98.2</ele>
        <time>2025-10-12T07:10:05Z</time>
      </trkpt>
      <trkpt lat="48.63386" lon="-2.89687">
        <ele>98.2</ele>
        <time>2025-10-12T07:10:09Z</time>
      </trkpt>
      <trkpt lat="48.63359" lon="-2.89617">
        <ele>98</ele>
        <time>2025-10-12T07:10:17Z</time>
      </trkpt>
      <trkpt lat="48.63334" lon="-2.89552">
        <ele>97.8</ele>
        <time>2025-10-12T07:10:25Z</time>
      </trkpt>
      <trkpt lat="48.6331" lon="-2.89486">
        <ele>97.6</ele>
        <time>2025-10-12T07:10:33Z</time>
      </trkpt>
      <trkpt lat="48.63286" lon="-2.89421">
        <ele>97.2</ele>
        <time>2025-10-12T07:10:41Z</time>
      </trkpt>
      <trkpt lat="48.63264" lon="-2.89359">
        <ele>96.2</ele>
        <time>2025-10-12T07:10:48Z</time>
      </trkpt>
      <trkpt lat="48.63247" lon="-2.89282">
        <ele>95.2</ele>
        <time>2025-10-12T07:10:56Z</time>
      </trkpt>
      <trkpt lat="48.63231" lon="-2.89225">
        <ele>95.4</ele>
        <time>2025-10-12T07:11:03Z</time>
      </trkpt>
      <trkpt lat="48.63215" lon="-2.89181">
        <ele>95.2</ele>
        <time>2025-10-12T07:11:08Z</time>
      </trkpt>
      <trkpt lat="48.63188" lon="-2.89132">
        <ele>95.4</ele>
        <time>2025-10-12T07:11:15Z</time>
      </trkpt>
      <trkpt lat="48.63154" lon="-2.89079">
        <ele>95.8</ele>
        <time>2025-10-12T07:11:23Z</time>
      </trkpt>
      <trkpt lat="48.63132" lon="-2.8904">
        <ele>96</ele>
        <time>2025-10-12T07:11:29Z</time>
      </trkpt>
      <trkpt lat="48.63103" lon="-2.88965">
        <ele>96.2</ele>
        <time>2025-10-12T07:11:37Z</time>
      </trkpt>
      <trkpt lat="48.63079" lon="-2.88899">
        <ele>96.6</ele>
        <time>2025-10-12T07:11:45Z</time>
      </trkpt>
      <trkpt lat="48.63058" lon="-2.88833">
        <ele>96.8</ele>
        <time>2025-10-12T07:11:53Z</time>
      </trkpt>
      <trkpt lat="48.63038" lon="-2.88764">
        <ele>96.6</ele>
        <time>2025-10-12T07:12:01Z</time>
      </trkpt>
      <trkpt lat="48.63023" lon="-2.88692">
        <ele>96.8</ele>
        <time>2025-10-12T07:12:10Z</time>
      </trkpt>
      <trkpt lat="48.63012" lon="-2.8862">
        <ele>96.8</ele>
        <time>2025-10-12T07:12:18Z</time>
      </trkpt>
      <trkpt lat="48.63002" lon="-2.88558">
        <ele>97</ele>
        <time>2025-10-12T07:12:25Z</time>
      </trkpt>
      <trkpt lat="48.62988" lon="-2.88486">
        <ele>97.2</ele>
        <time>2025-10-12T07:12:33Z</time>
      </trkpt>
      <trkpt lat="48.62984" lon="-2.88432">
        <ele>96.8</ele>
        <time>2025-10-12T07:12:39Z</time>
      </trkpt>
      <trkpt lat="48.62986" lon="-2.88349">
        <ele>96</ele>
        <time>2025-10-12T07:12:47Z</time>
      </trkpt>
      <trkpt lat="48.62987" lon="-2.88271">
        <ele>95.6</ele>
        <time>2025-10-12T07:12:55Z</time>
      </trkpt>
      <trkpt lat="48.62988" lon="-2.88209">
        <ele>95.6</ele>
        <time>2025-10-12T07:13:02Z</time>
      </trkpt>
      <trkpt lat="48.62996" lon="-2.8815">
        <ele>96</ele>
        <time>2025-10-12T07:13:08Z</time>
      </trkpt>
      <trkpt lat="48.63002" lon="-2.88097">
        <ele>96.2</ele>
        <time>2025-10-12T07:13:14Z</time>
      </trkpt>
      <trkpt lat="48.63004" lon="-2.88016">
        <ele>95.4</ele>
        <time>2025-10-12T07:13:22Z</time>
      </trkpt>
      <trkpt lat="48.63008" lon="-2.87938">
        <ele>93.4</ele>
        <time>2025-10-12T07:13:30Z</time>
      </trkpt>
      <trkpt lat="48.63007" lon="-2.87885">
        <ele>92.8</ele>
        <time>2025-10-12T07:13:34Z</time>
      </trkpt>
      <trkpt lat="48.63006" lon="-2.87855">
        <ele>92.4</ele>
        <time>2025-10-12T07:13:37Z</time>
      </trkpt>
      <trkpt lat="48.63017" lon="-2.87776">
        <ele>91.4</ele>
        <time>2025-10-12T07:13:45Z</time>
      </trkpt>
      <trkpt lat="48.63026" lon="-2.87725">
        <ele>90.2</ele>
        <time>2025-10-12T07:13:50Z</time>
      </trkpt>
      <trkpt lat="48.6305" lon="-2.87648">
        <ele>87.8</ele>
        <time>2025-10-12T07:13:58Z</time>
      </trkpt>
      <trkpt lat="48.63086" lon="-2.87532">
        <ele>84.6</ele>
        <time>2025-10-12T07:14:06Z</time>
      </trkpt>
      <trkpt lat="48.63099" lon="-2.87482">
        <ele>83</ele>
        <time>2025-10-12T07:14:10Z</time>
      </trkpt>
      <trkpt lat="48.63106" lon="-2.87431">
        <ele>81.6</ele>
        <time>2025-10-12T07:14:14Z</time>
      </trkpt>
      <trkpt lat="48.63111" lon="-2.87353">
        <ele>78.8</ele>
        <time>2025-10-12T07:14:22Z</time>
      </trkpt>
      <trkpt lat="48.63115" lon="-2.87338">
        <ele>78.2</ele>
        <time>2025-10-12T07:14:25Z</time>
      </trkpt>
      <trkpt lat="48.63114" lon="-2.87325">
        <ele>77.8</ele>
        <time>2025-10-12T07:14:27Z</time>
      </trkpt>
      <trkpt lat="48.63103" lon="-2.87279">
        <ele>76.8</ele>
        <time>2025-10-12T07:14:32Z</time>
      </trkpt>
      <trkpt lat="48.63088" lon="-2.87198">
        <ele>75.2</ele>
        <time>2025-10-12T07:14:41Z</time>
      </trkpt>
      <trkpt lat="48.63082" lon="-2.87161">
        <ele>74.8</ele>
        <time>2025-10-12T07:14:45Z</time>
      </trkpt>
      <trkpt lat="48.63078" lon="-2.87092">
        <ele>73.4</ele>
        <time>2025-10-12T07:14:52Z</time>
      </trkpt>
      <trkpt lat="48.63072" lon="-2.87074">
        <ele>73</ele>
        <time>2025-10-12T07:14:54Z</time>
      </trkpt>
      <trkpt lat="48.6304" lon="-2.87036">
        <ele>72</ele>
        <time>2025-10-12T07:15:00Z</time>
      </trkpt>
      <trkpt lat="48.62998" lon="-2.86974">
        <ele>70.4</ele>
        <time>2025-10-12T07:15:08Z</time>
      </trkpt>
      <trkpt lat="48.62966" lon="-2.86926">
        <ele>69.6</ele>
        <time>2025-10-12T07:15:16Z</time>
      </trkpt>
      <trkpt lat="48.62958" lon="-2.86921">
        <ele>69.4</ele>
        <time>2025-10-12T07:15:19Z</time>
      </trkpt>
      <trkpt lat="48.62947" lon="-2.86921">
        <ele>69.2</ele>
        <time>2025-10-12T07:15:22Z</time>
      </trkpt>
      <trkpt lat="48.62943" lon="-2.86918">
        <ele>69.2</ele>
        <time>2025-10-12T07:15:23Z</time>
      </trkpt>
      <trkpt lat="48.62938" lon="-2.86906">
        <ele>69.2</ele>
        <time>2025-10-12T07:15:25Z</time>
      </trkpt>
      <trkpt lat="48.62932" lon="-2.86882">
        <ele>69</ele>
        <time>2025-10-12T07:15:28Z</time>
      </trkpt>
      <trkpt lat="48.62903" lon="-2.86836">
        <ele>69</ele>
        <time>2025-10-12T07:15:36Z</time>
      </trkpt>
      <trkpt lat="48.62873" lon="-2.86781">
        <ele>68.8</ele>
        <time>2025-10-12T07:15:44Z</time>
      </trkpt>
      <trkpt lat="48.6284" lon="-2.86719">
        <ele>68.6</ele>
        <time>2025-10-12T07:15:52Z</time>
      </trkpt>
      <trkpt lat="48.62811" lon="-2.86664">
        <ele>68.4</ele>
        <time>2025-10-12T07:16:00Z</time>
      </trkpt>
      <trkpt lat="48.62776" lon="-2.86605">
        <ele>68.2</ele>
        <time>2025-10-12T07:16:08Z</time>
      </trkpt>
      <trkpt lat="48.62745" lon="-2.86558">
        <ele>68.2</ele>
        <time>2025-10-12T07:16:15Z</time>
      </trkpt>
      <trkpt lat="48.62707" lon="-2.86506">
        <ele>68</ele>
        <time>2025-10-12T07:16:23Z</time>
      </trkpt>
      <trkpt lat="48.62674" lon="-2.86459">
        <ele>68</ele>
        <time>2025-10-12T07:16:31Z</time>
      </trkpt>
      <trkpt lat="48.62655" lon="-2.86419">
        <ele>67.8</ele>
        <time>2025-10-12T07:16:35Z</time>
      </trkpt>
      <trkpt lat="48.62646" lon="-2.86388">
        <ele>67.8</ele>
        <time>2025-10-12T07:16:38Z</time>
      </trkpt>
      <trkpt lat="48.62633" lon="-2.86319">
        <ele>67.8</ele>
        <time>2025-10-12T07:16:46Z</time>
      </trkpt>
      <trkpt lat="48.62619" lon="-2.86276">
        <ele>68</ele>
        <time>2025-10-12T07:16:51Z</time>
      </trkpt>
      <trkpt lat="48.62589" lon="-2.86214">
        <ele>67.6</ele>
        <time>2025-10-12T07:16:59Z</time>
      </trkpt>
      <trkpt lat="48.62571" lon="-2.86171">
        <ele>67</ele>
        <time>2025-10-12T07:17:04Z</time>
      </trkpt>
      <trkpt lat="48.62556" lon="-2.86149">
        <ele>66.8</ele>
        <time>2025-10-12T07:17:08Z</time>
      </trkpt>
      <trkpt lat="48.62539" lon="-2.86136">
        <ele>66.6</ele>
        <time>2025-10-12T07:17:11Z</time>
      </trkpt>
      <trkpt lat="48.62492" lon="-2.86114">
        <ele>67</ele>
        <time>2025-10-12T07:17:19Z</time>
      </trkpt>
      <trkpt lat="48.6245" lon="-2.86087">
        <ele>67.2</ele>
        <time>2025-10-12T07:17:27Z</time>
      </trkpt>
      <trkpt lat="48.62402" lon="-2.86048">
        <ele>67.4</ele>
        <time>2025-10-12T07:17:35Z</time>
      </trkpt>
      <trkpt lat="48.62371" lon="-2.86016">
        <ele>67.2</ele>
        <time>2025-10-12T07:17:41Z</time>
      </trkpt>
      <trkpt lat="48.62349" lon="-2.85983">
        <ele>67.2</ele>
        <time>2025-10-12T07:17:46Z</time>
      </trkpt>
      <trkpt lat="48.62322" lon="-2.8593">
        <ele>66.8</ele>
        <time>2025-10-12T07:17:53Z</time>
      </trkpt>
      <trkpt lat="48.62298" lon="-2.85864">
        <ele>66.4</ele>
        <time>2025-10-12T07:18:01Z</time>
      </trkpt>
      <trkpt lat="48.62277" lon="-2.85817">
        <ele>66</ele>
        <time>2025-10-12T07:18:07Z</time>
      </trkpt>
      <trkpt lat="48.62248" lon="-2.85758">
        <ele>65.6</ele>
        <time>2025-10-12T07:18:15Z</time>
      </trkpt>
      <trkpt lat="48.62237" lon="-2.85721">
        <ele>65.6</ele>
        <time>2025-10-12T07:18:19Z</time>
      </trkpt>
      <trkpt lat="48.62224" lon="-2.85648">
        <ele>65.2</ele>
        <time>2025-10-12T07:18:27Z</time>
      </trkpt>
      <trkpt lat="48.62207" lon="-2.85567">
        <ele>63.6</ele>
        <time>2025-10-12T07:18:35Z</time>
      </trkpt>
      <trkpt lat="48.62195" lon="-2.85527">
        <ele>63.4</ele>
        <time>2025-10-12T07:18:39Z</time>
      </trkpt>
      <trkpt lat="48.62177" lon="-2.85489">
        <ele>63.4</ele>
        <time>2025-10-12T07:18:44Z</time>
      </trkpt>
      <trkpt lat="48.62145" lon="-2.85433">
        <ele>64.2</ele>
        <time>2025-10-12T07:18:52Z</time>
      </trkpt>
      <trkpt lat="48.62113" lon="-2.85377">
        <ele>64.6</ele>
        <time>2025-10-12T07:19:00Z</time>
      </trkpt>
      <trkpt lat="48.62093" lon="-2.85347">
        <ele>64.8</ele>
        <time>2025-10-12T07:19:04Z</time>
      </trkpt>
      <trkpt lat="48.6207" lon="-2.85323">
        <ele>65.2</ele>
        <time>2025-10-12T07:19:08Z</time>
      </trkpt>
      <trkpt lat="48.6203" lon="-2.85297">
        <ele>66.8</ele>
        <time>2025-10-12T07:19:16Z</time>
      </trkpt>
      <trkpt lat="48.62015" lon="-2.85284">
        <ele>67.2</ele>
        <time>2025-10-12T07:19:19Z</time>
      </trkpt>
      <trkpt lat="48.62" lon="-2.85262">
        <ele>68</ele>
        <time>2025-10-12T07:19:23Z</time>
      </trkpt>
      <trkpt lat="48.61988" lon="-2.85233">
        <ele>68.8</ele>
        <time>2025-10-12T07:19:27Z</time>
      </trkpt>
      <trkpt lat="48.61975" lon="-2.85171">
        <ele>69.6</ele>
        <time>2025-10-12T07:19:36Z</time>
      </trkpt>
      <trkpt lat="48.61962" lon="-2.85112">
        <ele>70</ele>
        <time>2025-10-12T07:19:43Z</time>
      </trkpt>
      <trkpt lat="48.61944" lon="-2.85041">
        <ele>70.6</ele>
        <time>2025-10-12T07:19:51Z</time>
      </trkpt>
      <trkpt lat="48.61932" lon="-2.84974">
        <ele>71</ele>
        <time>2025-10-12T07:19:59Z</time>
      </trkpt>
      <trkpt lat="48.61919" lon="-2.84904">
        <ele>71.6</ele>
        <time>2025-10-12T07:20:07Z</time>
      </trkpt>
      <trkpt lat="48.61901" lon="-2.84844">
        <ele>71.8</ele>
        <time>2025-10-12T07:20:14Z</time>
      </trkpt>
      <trkpt lat="48.61879" lon="-2.84776">
        <ele>71.6</ele>
        <time>2025-10-12T07:20:22Z</time>
      </trkpt>
      <trkpt lat="48.61858" lon="-2.84712">
        <ele>71.6</ele>
        <time>2025-10-12T07:20:30Z</time>
      </trkpt>
      <trkpt lat="48.61836" lon="-2.84641">
        <ele>71.6</ele>
        <time>2025-10-12T07:20:38Z</time>
      </trkpt>
      <trkpt lat="48.61816" lon="-2.84573">
        <ele>72</ele>
        <time>2025-10-12T07:20:46Z</time>
      </trkpt>
      <trkpt lat="48.61794" lon="-2.84512">
        <ele>72.6</ele>
        <time>2025-10-12T07:20:54Z</time>
      </trkpt>
      <trkpt lat="48.61771" lon="-2.84447">
        <ele>73.4</ele>
        <time>2025-10-12T07:21:02Z</time>
      </trkpt>
      <trkpt lat="48.6176" lon="-2.8438">
        <ele>74.2</ele>
        <time>2025-10-12T07:21:10Z</time>
      </trkpt>
      <trkpt lat="48.61753" lon="-2.84311">
        <ele>74.4</ele>
        <time>2025-10-12T07:21:18Z</time>
      </trkpt>
      <trkpt lat="48.61743" lon="-2.8424">
        <ele>74.4</ele>
        <time>2025-10-12T07:21:26Z</time>
      </trkpt>
      <trkpt lat="48.61733" lon="-2.84188">
        <ele>74.4</ele>
        <time>2025-10-12T07:21:32Z</time>
      </trkpt>
      <trkpt lat="48.61725" lon="-2.84176">
        <ele>74.4</ele>
        <time>2025-10-12T07:21:34Z</time>
      </trkpt>
      <trkpt lat="48.61714" lon="-2.84174">
        <ele>74.4</ele>
        <time>2025-10-12T07:21:36Z</time>
      </trkpt>
      <trkpt lat="48.61671" lon="-2.84187">
        <ele>75.2</ele>
        <time>2025-10-12T07:21:43Z</time>
      </trkpt>
      <trkpt lat="48.61625" lon="-2.84188">
        <ele>76</ele>
        <time>2025-10-12T07:21:51Z</time>
      </trkpt>
      <trkpt lat="48.61596" lon="-2.84195">
        <ele>76.2</ele>
        <time>2025-10-12T07:21:56Z</time>
      </trkpt>
      <trkpt lat="48.61549" lon="-2.84217">
        <ele>76.4</ele>
        <time>2025-10-12T07:22:04Z</time>
      </trkpt>
      <trkpt lat="48.61502" lon="-2.84246">
        <ele>76.6</ele>
        <time>2025-10-12T07:22:13Z</time>
      </trkpt>
      <trkpt lat="48.61456" lon="-2.84272">
        <ele>76.2</ele>
        <time>2025-10-12T07:22:21Z</time>
      </trkpt>
      <trkpt lat="48.61421" lon="-2.84304">
        <ele>75.8</ele>
        <time>2025-10-12T07:22:27Z</time>
      </trkpt>
      <trkpt lat="48.61377" lon="-2.84351">
        <ele>75.2</ele>
        <time>2025-10-12T07:22:35Z</time>
      </trkpt>
      <trkpt lat="48.61334" lon="-2.84395">
        <ele>75.2</ele>
        <time>2025-10-12T07:22:43Z</time>
      </trkpt>
      <trkpt lat="48.61292" lon="-2.84437">
        <ele>75.2</ele>
        <time>2025-10-12T07:22:51Z</time>
      </trkpt>
      <trkpt lat="48.6127" lon="-2.84456">
        <ele>75</ele>
        <time>2025-10-12T07:22:55Z</time>
      </trkpt>
      <trkpt lat="48.61251" lon="-2.84464">
        <ele>74.6</ele>
        <time>2025-10-12T07:22:58Z</time>
      </trkpt>
      <trkpt lat="48.61193" lon="-2.84464">
        <ele>73</ele>
        <time>2025-10-12T07:23:06Z</time>
      </trkpt>
      <trkpt lat="48.61153" lon="-2.84469">
        <ele>71.4</ele>
        <time>2025-10-12T07:23:11Z</time>
      </trkpt>
      <trkpt lat="48.61128" lon="-2.84485">
        <ele>69.8</ele>
        <time>2025-10-12T07:23:14Z</time>
      </trkpt>
      <trkpt lat="48.6112" lon="-2.84494">
        <ele>69.2</ele>
        <time>2025-10-12T07:23:15Z</time>
      </trkpt>
      <trkpt lat="48.61102" lon="-2.84529">
        <ele>68</ele>
        <time>2025-10-12T07:23:18Z</time>
      </trkpt>
      <trkpt lat="48.61066" lon="-2.84607">
        <ele>66.6</ele>
        <time>2025-10-12T07:23:25Z</time>
      </trkpt>
      <trkpt lat="48.61027" lon="-2.84682">
        <ele>66.2</ele>
        <time>2025-10-12T07:23:33Z</time>
      </trkpt>
      <trkpt lat="48.61013" lon="-2.8471">
        <ele>66</ele>
        <time>2025-10-12T07:23:36Z</time>
      </trkpt>
      <trkpt lat="48.60992" lon="-2.84776">
        <ele>64.8</ele>
        <time>2025-10-12T07:23:42Z</time>
      </trkpt>
      <trkpt lat="48.60975" lon="-2.84823">
        <ele>62.8</ele>
        <time>2025-10-12T07:23:46Z</time>
      </trkpt>
      <trkpt lat="48.60971" lon="-2.84836">
        <ele>62.2</ele>
        <time>2025-10-12T07:23:47Z</time>
      </trkpt>
      <trkpt lat="48.60967" lon="-2.84851">
        <ele>61.4</ele>
        <time>2025-10-12T07:23:48Z</time>
      </trkpt>
      <trkpt lat="48.60964" lon="-2.84866">
        <ele>60.8</ele>
        <time>2025-10-12T07:23:49Z</time>
      </trkpt>
      <trkpt lat="48.60961" lon="-2.84882">
        <ele>60.2</ele>
        <time>2025-10-12T07:23:50Z</time>
      </trkpt>
      <trkpt lat="48.60946" lon="-2.84969">
        <ele>57.2</ele>
        <time>2025-10-12T07:23:56Z</time>
      </trkpt>
      <trkpt lat="48.60938" lon="-2.85017">
        <ele>55.8</ele>
        <time>2025-10-12T07:23:59Z</time>
      </trkpt>
      <trkpt lat="48.60935" lon="-2.85064">
        <ele>54.4</ele>
        <time>2025-10-12T07:24:02Z</time>
      </trkpt>
      <trkpt lat="48.60929" lon="-2.85094">
        <ele>53.6</ele>
        <time>2025-10-12T07:24:04Z</time>
      </trkpt>
      <trkpt lat="48.60915" lon="-2.85135">
        <ele>52.2</ele>
        <time>2025-10-12T07:24:07Z</time>
      </trkpt>
      <trkpt lat="48.60889" lon="-2.85199">
        <ele>50.8</ele>
        <time>2025-10-12T07:24:11Z</time>
      </trkpt>
      <trkpt lat="48.6086" lon="-2.85285">
        <ele>49.2</ele>
        <time>2025-10-12T07:24:18Z</time>
      </trkpt>
      <trkpt lat="48.60845" lon="-2.85348">
        <ele>46.8</ele>
        <time>2025-10-12T07:24:23Z</time>
      </trkpt>
      <trkpt lat="48.60837" lon="-2.85416">
        <ele>44.6</ele>
        <time>2025-10-12T07:24:27Z</time>
      </trkpt>
      <trkpt lat="48.60835" lon="-2.85432">
        <ele>44</ele>
        <time>2025-10-12T07:24:28Z</time>
      </trkpt>
      <trkpt lat="48.60825" lon="-2.85495">
        <ele>41.8</ele>
        <time>2025-10-12T07:24:32Z</time>
      </trkpt>
      <trkpt lat="48.60815" lon="-2.85555">
        <ele>40.6</ele>
        <time>2025-10-12T07:24:36Z</time>
      </trkpt>
      <trkpt lat="48.60815" lon="-2.85598">
        <ele>39.8</ele>
        <time>2025-10-12T07:24:40Z</time>
      </trkpt>
      <trkpt lat="48.6082" lon="-2.85684">
        <ele>37.4</ele>
        <time>2025-10-12T07:24:46Z</time>
      </trkpt>
      <trkpt lat="48.60818" lon="-2.85712">
        <ele>36.6</ele>
        <time>2025-10-12T07:24:48Z</time>
      </trkpt>
      <trkpt lat="48.608" lon="-2.85782">
        <ele>34.2</ele>
        <time>2025-10-12T07:24:53Z</time>
      </trkpt>
      <trkpt lat="48.60781" lon="-2.85851">
        <ele>32.2</ele>
        <time>2025-10-12T07:24:58Z</time>
      </trkpt>
      <trkpt lat="48.60761" lon="-2.85921">
        <ele>30</ele>
        <time>2025-10-12T07:25:03Z</time>
      </trkpt>
      <trkpt lat="48.6075" lon="-2.85974">
        <ele>28</ele>
        <time>2025-10-12T07:25:07Z</time>
      </trkpt>
      <trkpt lat="48.60739" lon="-2.86002">
        <ele>27</ele>
        <time>2025-10-12T07:25:09Z</time>
      </trkpt>
      <trkpt lat="48.60719" lon="-2.86032">
        <ele>25.4</ele>
        <time>2025-10-12T07:25:12Z</time>
      </trkpt>
      <trkpt lat="48.60695" lon="-2.86058">
        <ele>22.8</ele>
        <time>2025-10-12T07:25:17Z</time>
      </trkpt>
      <trkpt lat="48.60686" lon="-2.86064">
        <ele>22</ele>
        <time>2025-10-12T07:25:20Z</time>
      </trkpt>
      <trkpt lat="48.60673" lon="-2.86059">
        <ele>21.4</ele>
        <time>2025-10-12T07:25:23Z</time>
      </trkpt>
      <trkpt lat="48.60644" lon="-2.86042">
        <ele>20.8</ele>
        <time>2025-10-12T07:25:28Z</time>
      </trkpt>
      <trkpt lat="48.60593" lon="-2.86025">
        <ele>19.8</ele>
        <time>2025-10-12T07:25:36Z</time>
      </trkpt>
      <trkpt lat="48.60551" lon="-2.86013">
        <ele>19.2</ele>
        <time>2025-10-12T07:25:44Z</time>
      </trkpt>
      <trkpt lat="48.60504" lon="-2.86004">
        <ele>18.6</ele>
        <time>2025-10-12T07:25:50Z</time>
      </trkpt>
      <trkpt lat="48.6048" lon="-2.86006">
        <ele>18.2</ele>
        <time>2025-10-12T07:25:54Z</time>
      </trkpt>
      <trkpt lat="48.60452" lon="-2.86019">
        <ele>17.8</ele>
        <time>2025-10-12T07:25:58Z</time>
      </trkpt>
      <trkpt lat="48.60406" lon="-2.86052">
        <ele>17</ele>
        <time>2025-10-12T07:26:06Z</time>
      </trkpt>
      <trkpt lat="48.60359" lon="-2.86083">
        <ele>16.4</ele>
        <time>2025-10-12T07:26:14Z</time>
      </trkpt>
      <trkpt lat="48.60309" lon="-2.86106">
        <ele>15.8</ele>
        <time>2025-10-12T07:26:22Z</time>
      </trkpt>
      <trkpt lat="48.60278" lon="-2.8611">
        <ele>15.2</ele>
        <time>2025-10-12T07:26:27Z</time>
      </trkpt>
      <trkpt lat="48.60245" lon="-2.86106">
        <ele>14.8</ele>
        <time>2025-10-12T07:26:32Z</time>
      </trkpt>
      <trkpt lat="48.6022" lon="-2.86094">
        <ele>14.2</ele>
        <time>2025-10-12T07:26:36Z</time>
      </trkpt>
      <trkpt lat="48.60204" lon="-2.86081">
        <ele>14</ele>
        <time>2025-10-12T07:26:39Z</time>
      </trkpt>
      <trkpt lat="48.6018" lon="-2.86048">
        <ele>13.6</ele>
        <time>2025-10-12T07:26:43Z</time>
      </trkpt>
      <trkpt lat="48.60163" lon="-2.86013">
        <ele>13.4</ele>
        <time>2025-10-12T07:26:47Z</time>
      </trkpt>
      <trkpt lat="48.60153" lon="-2.85978">
        <ele>13</ele>
        <time>2025-10-12T07:26:51Z</time>
      </trkpt>
      <trkpt lat="48.60147" lon="-2.8593">
        <ele>12.4</ele>
        <time>2025-10-12T07:26:56Z</time>
      </trkpt>
      <trkpt lat="48.60146" lon="-2.85872">
        <ele>11.8</ele>
        <time>2025-10-12T07:27:02Z</time>
      </trkpt>
      <trkpt lat="48.60151" lon="-2.85796">
        <ele>11.4</ele>
        <time>2025-10-12T07:27:10Z</time>
      </trkpt>
      <trkpt lat="48.60157" lon="-2.85725">
        <ele>11.2</ele>
        <time>2025-10-12T07:27:19Z</time>
      </trkpt>
      <trkpt lat="48.60159" lon="-2.85658">
        <ele>11.4</ele>
        <time>2025-10-12T07:27:26Z</time>
      </trkpt>
      <trkpt lat="48.60167" lon="-2.85621">
        <ele>11.4</ele>
        <time>2025-10-12T07:27:30Z</time>
      </trkpt>
      <trkpt lat="48.60174" lon="-2.85595">
        <ele>11.4</ele>
        <time>2025-10-12T07:27:33Z</time>
      </trkpt>
      <trkpt lat="48.60176" lon="-2.85548">
        <ele>11.4</ele>
        <time>2025-10-12T07:27:38Z</time>
      </trkpt>
      <trkpt lat="48.60174" lon="-2.85501">
        <ele>11.4</ele>
        <time>2025-10-12T07:27:43Z</time>
      </trkpt>
      <trkpt lat="48.60167" lon="-2.85464">
        <ele>11.6</ele>
        <time>2025-10-12T07:27:47Z</time>
      </trkpt>
      <trkpt lat="48.60152" lon="-2.85396">
        <ele>12.6</ele>
        <time>2025-10-12T07:27:55Z</time>
      </trkpt>
      <trkpt lat="48.60148" lon="-2.85363">
        <ele>12.8</ele>
        <time>2025-10-12T07:27:59Z</time>
      </trkpt>
      <trkpt lat="48.60149" lon="-2.85326">
        <ele>12.8</ele>
        <time>2025-10-12T07:28:03Z</time>
      </trkpt>
      <trkpt lat="48.60155" lon="-2.85292">
        <ele>12.2</ele>
        <time>2025-10-12T07:28:06Z</time>
      </trkpt>
      <trkpt lat="48.60165" lon="-2.85262">
        <ele>11.8</ele>
        <time>2025-10-12T07:28:09Z</time>
      </trkpt>
      <trkpt lat="48.6018" lon="-2.85237">
        <ele>11.4</ele>
        <time>2025-10-12T07:28:12Z</time>
      </trkpt>
      <trkpt lat="48.60225" lon="-2.85192">
        <ele>11.6</ele>
        <time>2025-10-12T07:28:20Z</time>
      </trkpt>
      <trkpt lat="48.60265" lon="-2.85152">
        <ele>12.6</ele>
        <time>2025-10-12T07:28:28Z</time>
      </trkpt>
      <trkpt lat="48.60313" lon="-2.85102">
        <ele>10.6</ele>
        <time>2025-10-12T07:28:36Z</time>
      </trkpt>
      <trkpt lat="48.60356" lon="-2.85051">
        <ele>9.2</ele>
        <time>2025-10-12T07:28:43Z</time>
      </trkpt>
      <trkpt lat="48.60386" lon="-2.85008">
        <ele>8.6</ele>
        <time>2025-10-12T07:28:49Z</time>
      </trkpt>
      <trkpt lat="48.60402" lon="-2.84976">
        <ele>8.4</ele>
        <time>2025-10-12T07:28:52Z</time>
      </trkpt>
      <trkpt lat="48.6041" lon="-2.84945">
        <ele>8</ele>
        <time>2025-10-12T07:28:55Z</time>
      </trkpt>
      <trkpt lat="48.60414" lon="-2.84902">
        <ele>7.4</ele>
        <time>2025-10-12T07:28:59Z</time>
      </trkpt>
      <trkpt lat="48.60417" lon="-2.84808">
        <ele>6.6</ele>
        <time>2025-10-12T07:29:07Z</time>
      </trkpt>
      <trkpt lat="48.60422" lon="-2.84724">
        <ele>6.8</ele>
        <time>2025-10-12T07:29:15Z</time>
      </trkpt>
      <trkpt lat="48.60427" lon="-2.84648">
        <ele>6.8</ele>
        <time>2025-10-12T07:29:23Z</time>
      </trkpt>
      <trkpt lat="48.60428" lon="-2.84572">
        <ele>6.6</ele>
        <time>2025-10-12T07:29:31Z</time>
      </trkpt>
      <trkpt lat="48.60425" lon="-2.84493">
        <ele>6.2</ele>
        <time>2025-10-12T07:29:40Z</time>
      </trkpt>
      <trkpt lat="48.60415" lon="-2.84413">
        <ele>5.6</ele>
        <time>2025-10-12T07:29:48Z</time>
      </trkpt>
      <trkpt lat="48.60403" lon="-2.84341">
        <ele>5.2</ele>
        <time>2025-10-12T07:29:56Z</time>
      </trkpt>
      <trkpt lat="48.60386" lon="-2.84277">
        <ele>5</ele>
        <time>2025-10-12T07:30:03Z</time>
      </trkpt>
      <trkpt lat="48.60364" lon="-2.84219">
        <ele>4.8</ele>
        <time>2025-10-12T07:30:10Z</time>
      </trkpt>
      <trkpt lat="48.60334" lon="-2.84158">
        <ele>4.6</ele>
        <time>2025-10-12T07:30:18Z</time>
      </trkpt>
      <trkpt lat="48.60302" lon="-2.84101">
        <ele>4.6</ele>
        <time>2025-10-12T07:30:26Z</time>
      </trkpt>
      <trkpt lat="48.6027" lon="-2.84044">
        <ele>4.4</ele>
        <time>2025-10-12T07:30:34Z</time>
      </trkpt>
      <trkpt lat="48.60247" lon="-2.83998">
        <ele>4.4</ele>
        <time>2025-10-12T07:30:40Z</time>
      </trkpt>
      <trkpt lat="48.60227" lon="-2.8394">
        <ele>5</ele>
        <time>2025-10-12T07:30:47Z</time>
      </trkpt>
      <trkpt lat="48.6021" lon="-2.8387">
        <ele>5.2</ele>
        <time>2025-10-12T07:30:55Z</time>
      </trkpt>
      <trkpt lat="48.60195" lon="-2.83804">
        <ele>5.4</ele>
        <time>2025-10-12T07:31:03Z</time>
      </trkpt>
      <trkpt lat="48.6018" lon="-2.8375">
        <ele>5.8</ele>
        <time>2025-10-12T07:31:09Z</time>
      </trkpt>
      <trkpt lat="48.60154" lon="-2.83691">
        <ele>6.6</ele>
        <time>2025-10-12T07:31:17Z</time>
      </trkpt>
      <trkpt lat="48.60133" lon="-2.83642">
        <ele>7.8</ele>
        <time>2025-10-12T07:31:24Z</time>
      </trkpt>
      <trkpt lat="48.60126" lon="-2.83614">
        <ele>8.2</ele>
        <time>2025-10-12T07:31:28Z</time>
      </trkpt>
      <trkpt lat="48.60124" lon="-2.83589">
        <ele>8.4</ele>
        <time>2025-10-12T07:31:31Z</time>
      </trkpt>
      <trkpt lat="48.60127" lon="-2.83564">
        <ele>8.4</ele>
        <time>2025-10-12T07:31:34Z</time>
      </trkpt>
      <trkpt lat="48.60131" lon="-2.83555">
        <ele>8.2</ele>
        <time>2025-10-12T07:31:38Z</time>
      </trkpt>
      <trkpt lat="48.60131" lon="-2.83556">
        <ele>8.2</ele>
        <time>2025-10-12T07:31:40Z</time>
      </trkpt>
      <trkpt lat="48.60133" lon="-2.83537">
        <ele>7.8</ele>
        <time>2025-10-12T07:31:52Z</time>
      </trkpt>
      <trkpt lat="48.60131" lon="-2.83476">
        <ele>6.6</ele>
        <time>2025-10-12T07:31:59Z</time>
      </trkpt>
      <trkpt lat="48.60136" lon="-2.83435">
        <ele>5.8</ele>
        <time>2025-10-12T07:32:04Z</time>
      </trkpt>
      <trkpt lat="48.60155" lon="-2.8336">
        <ele>4.6</ele>
        <time>2025-10-12T07:32:12Z</time>
      </trkpt>
      <trkpt lat="48.60175" lon="-2.83288">
        <ele>4</ele>
        <time>2025-10-12T07:32:20Z</time>
      </trkpt>
      <trkpt lat="48.60194" lon="-2.83219">
        <ele>3.8</ele>
        <time>2025-10-12T07:32:28Z</time>
      </trkpt>
      <trkpt lat="48.60206" lon="-2.83166">
        <ele>3.8</ele>
        <time>2025-10-12T07:32:34Z</time>
      </trkpt>
      <trkpt lat="48.6021" lon="-2.8312">
        <ele>3.8</ele>
        <time>2025-10-12T07:32:39Z</time>
      </trkpt>
      <trkpt lat="48.60209" lon="-2.83064">
        <ele>3.6</ele>
        <time>2025-10-12T07:32:45Z</time>
      </trkpt>
      <trkpt lat="48.60202" lon="-2.83012">
        <ele>3.6</ele>
        <time>2025-10-12T07:32:51Z</time>
      </trkpt>
      <trkpt lat="48.6019" lon="-2.82956">
        <ele>3.6</ele>
        <time>2025-10-12T07:32:57Z</time>
      </trkpt>
      <trkpt lat="48.60172" lon="-2.82909">
        <ele>3.8</ele>
        <time>2025-10-12T07:33:03Z</time>
      </trkpt>
      <trkpt lat="48.60141" lon="-2.82853">
        <ele>4</ele>
        <time>2025-10-12T07:33:11Z</time>
      </trkpt>
      <trkpt lat="48.60117" lon="-2.82807">
        <ele>4</ele>
        <time>2025-10-12T07:33:19Z</time>
      </trkpt>
      <trkpt lat="48.60101" lon="-2.82778">
        <ele>4</ele>
        <time>2025-10-12T07:33:27Z</time>
      </trkpt>
      <trkpt lat="48.60086" lon="-2.82752">
        <ele>4</ele>
        <time>2025-10-12T07:33:35Z</time>
      </trkpt>
      <trkpt lat="48.60058" lon="-2.82697">
        <ele>4</ele>
        <time>2025-10-12T07:33:43Z</time>
      </trkpt>
      <trkpt lat="48.60037" lon="-2.82657">
        <ele>3.8</ele>
        <time>2025-10-12T07:33:49Z</time>
      </trkpt>
      <trkpt lat="48.60022" lon="-2.82634">
        <ele>3.6</ele>
        <time>2025-10-12T07:33:54Z</time>
      </trkpt>
      <trkpt lat="48.60022" lon="-2.82606">
        <ele>3.4</ele>
        <time>2025-10-12T07:33:58Z</time>
      </trkpt>
      <trkpt lat="48.60024" lon="-2.82569">
        <ele>3.6</ele>
        <time>2025-10-12T07:34:03Z</time>
      </trkpt>
      <trkpt lat="48.60022" lon="-2.82552">
        <ele>3.6</ele>
        <time>2025-10-12T07:34:05Z</time>
      </trkpt>
      <trkpt lat="48.60015" lon="-2.82539">
        <ele>3.6</ele>
        <time>2025-10-12T07:34:07Z</time>
      </trkpt>
      <trkpt lat="48.6" lon="-2.82528">
        <ele>3.4</ele>
        <time>2025-10-12T07:34:10Z</time>
      </trkpt>
      <trkpt lat="48.59955" lon="-2.82511">
        <ele>3.2</ele>
        <time>2025-10-12T07:34:18Z</time>
      </trkpt>
      <trkpt lat="48.59912" lon="-2.82492">
        <ele>3.6</ele>
        <time>2025-10-12T07:34:27Z</time>
      </trkpt>
      <trkpt lat="48.59869" lon="-2.82472">
        <ele>4</ele>
        <time>2025-10-12T07:34:35Z</time>
      </trkpt>
      <trkpt lat="48.59825" lon="-2.82451">
        <ele>4.4</ele>
        <time>2025-10-12T07:34:43Z</time>
      </trkpt>
      <trkpt lat="48.59778" lon="-2.8243">
        <ele>4.2</ele>
        <time>2025-10-12T07:34:51Z</time>
      </trkpt>
      <trkpt lat="48.59733" lon="-2.82409">
        <ele>4.8</ele>
        <time>2025-10-12T07:34:59Z</time>
      </trkpt>
      <trkpt lat="48.59698" lon="-2.82397">
        <ele>4.8</ele>
        <time>2025-10-12T07:35:05Z</time>
      </trkpt>
      <trkpt lat="48.59679" lon="-2.82397">
        <ele>4.8</ele>
        <time>2025-10-12T07:35:08Z</time>
      </trkpt>
      <trkpt lat="48.59662" lon="-2.82404">
        <ele>5</ele>
        <time>2025-10-12T07:35:11Z</time>
      </trkpt>
      <trkpt lat="48.59643" lon="-2.82422">
        <ele>5.4</ele>
        <time>2025-10-12T07:35:15Z</time>
      </trkpt>
      <trkpt lat="48.5961" lon="-2.82463">
        <ele>6.6</ele>
        <time>2025-10-12T07:35:23Z</time>
      </trkpt>
      <trkpt lat="48.59579" lon="-2.82498">
        <ele>7.8</ele>
        <time>2025-10-12T07:35:31Z</time>
      </trkpt>
      <trkpt lat="48.59554" lon="-2.8253">
        <ele>9</ele>
        <time>2025-10-12T07:35:38Z</time>
      </trkpt>
      <trkpt lat="48.59525" lon="-2.82552">
        <ele>10.6</ele>
        <time>2025-10-12T07:35:45Z</time>
      </trkpt>
      <trkpt lat="48.5949" lon="-2.82566">
        <ele>12.4</ele>
        <time>2025-10-12T07:35:53Z</time>
      </trkpt>
      <trkpt lat="48.59454" lon="-2.82578">
        <ele>14</ele>
        <time>2025-10-12T07:36:01Z</time>
      </trkpt>
      <trkpt lat="48.59417" lon="-2.82586">
        <ele>15.6</ele>
        <time>2025-10-12T07:36:09Z</time>
      </trkpt>
      <trkpt lat="48.59385" lon="-2.82584">
        <ele>18</ele>
        <time>2025-10-12T07:36:17Z</time>
      </trkpt>
      <trkpt lat="48.59362" lon="-2.82574">
        <ele>19.2</ele>
        <time>2025-10-12T07:36:22Z</time>
      </trkpt>
      <trkpt lat="48.59333" lon="-2.82546">
        <ele>21.2</ele>
        <time>2025-10-12T07:36:30Z</time>
      </trkpt>
      <trkpt lat="48.59315" lon="-2.82526">
        <ele>23.4</ele>
        <time>2025-10-12T07:36:36Z</time>
      </trkpt>
      <trkpt lat="48.59312" lon="-2.82523">
        <ele>24</ele>
        <time>2025-10-12T07:36:37Z</time>
      </trkpt>
      <trkpt lat="48.59308" lon="-2.82519">
        <ele>24.4</ele>
        <time>2025-10-12T07:36:38Z</time>
      </trkpt>
      <trkpt lat="48.59305" lon="-2.82516">
        <ele>24.8</ele>
        <time>2025-10-12T07:36:39Z</time>
      </trkpt>
      <trkpt lat="48.59303" lon="-2.82514">
        <ele>25.2</ele>
        <time>2025-10-12T07:36:40Z</time>
      </trkpt>
      <trkpt lat="48.59281" lon="-2.8249">
        <ele>28.4</ele>
        <time>2025-10-12T07:36:48Z</time>
      </trkpt>
      <trkpt lat="48.59256" lon="-2.82464">
        <ele>31.4</ele>
        <time>2025-10-12T07:36:57Z</time>
      </trkpt>
      <trkpt lat="48.59243" lon="-2.82447">
        <ele>33.6</ele>
        <time>2025-10-12T07:37:03Z</time>
      </trkpt>
      <trkpt lat="48.59238" lon="-2.82442">
        <ele>34.4</ele>
        <time>2025-10-12T07:37:05Z</time>
      </trkpt>
      <trkpt lat="48.59214" lon="-2.82416">
        <ele>37.4</ele>
        <time>2025-10-12T07:37:13Z</time>
      </trkpt>
      <trkpt lat="48.59194" lon="-2.82394">
        <ele>40.4</ele>
        <time>2025-10-12T07:37:21Z</time>
      </trkpt>
      <trkpt lat="48.59173" lon="-2.82373">
        <ele>43.4</ele>
        <time>2025-10-12T07:37:29Z</time>
      </trkpt>
      <trkpt lat="48.59152" lon="-2.82355">
        <ele>45.8</ele>
        <time>2025-10-12T07:37:37Z</time>
      </trkpt>
      <trkpt lat="48.59127" lon="-2.82339">
        <ele>48.2</ele>
        <time>2025-10-12T07:37:45Z</time>
      </trkpt>
      <trkpt lat="48.59102" lon="-2.82323">
        <ele>50.2</ele>
        <time>2025-10-12T07:37:53Z</time>
      </trkpt>
      <trkpt lat="48.59074" lon="-2.823">
        <ele>52.6</ele>
        <time>2025-10-12T07:38:01Z</time>
      </trkpt>
      <trkpt lat="48.59056" lon="-2.82285">
        <ele>54.4</ele>
        <time>2025-10-12T07:38:07Z</time>
      </trkpt>
      <trkpt lat="48.59034" lon="-2.82279">
        <ele>55.6</ele>
        <time>2025-10-12T07:38:12Z</time>
      </trkpt>
      <trkpt lat="48.58997" lon="-2.8228">
        <ele>57.2</ele>
        <time>2025-10-12T07:38:20Z</time>
      </trkpt>
      <trkpt lat="48.58964" lon="-2.82281">
        <ele>59</ele>
        <time>2025-10-12T07:38:27Z</time>
      </trkpt>
      <trkpt lat="48.58939" lon="-2.82274">
        <ele>60.8</ele>
        <time>2025-10-12T07:38:33Z</time>
      </trkpt>
      <trkpt lat="48.58908" lon="-2.82256">
        <ele>63.2</ele>
        <time>2025-10-12T07:38:41Z</time>
      </trkpt>
      <trkpt lat="48.58872" lon="-2.82226">
        <ele>65.8</ele>
        <time>2025-10-12T07:38:49Z</time>
      </trkpt>
      <trkpt lat="48.58845" lon="-2.82195">
        <ele>67</ele>
        <time>2025-10-12T07:38:56Z</time>
      </trkpt>
      <trkpt lat="48.58814" lon="-2.82148">
        <ele>68</ele>
        <time>2025-10-12T07:39:04Z</time>
      </trkpt>
      <trkpt lat="48.58806" lon="-2.82128">
        <ele>68.6</ele>
        <time>2025-10-12T07:39:07Z</time>
      </trkpt>
      <trkpt lat="48.58804" lon="-2.82113">
        <ele>69</ele>
        <time>2025-10-12T07:39:09Z</time>
      </trkpt>
      <trkpt lat="48.58807" lon="-2.82091">
        <ele>70</ele>
        <time>2025-10-12T07:39:12Z</time>
      </trkpt>
      <trkpt lat="48.58827" lon="-2.82038">
        <ele>72.8</ele>
        <time>2025-10-12T07:39:21Z</time>
      </trkpt>
      <trkpt lat="48.58832" lon="-2.82014">
        <ele>74.4</ele>
        <time>2025-10-12T07:39:25Z</time>
      </trkpt>
      <trkpt lat="48.5883" lon="-2.82007">
        <ele>74.8</ele>
        <time>2025-10-12T07:39:26Z</time>
      </trkpt>
      <trkpt lat="48.58826" lon="-2.82002">
        <ele>75</ele>
        <time>2025-10-12T07:39:27Z</time>
      </trkpt>
      <trkpt lat="48.58815" lon="-2.81998">
        <ele>75.2</ele>
        <time>2025-10-12T07:39:29Z</time>
      </trkpt>
      <trkpt lat="48.58769" lon="-2.82">
        <ele>74.8</ele>
        <time>2025-10-12T07:39:37Z</time>
      </trkpt>
      <trkpt lat="48.58741" lon="-2.81993">
        <ele>74.4</ele>
        <time>2025-10-12T07:39:42Z</time>
      </trkpt>
      <trkpt lat="48.58695" lon="-2.81971">
        <ele>74</ele>
        <time>2025-10-12T07:39:50Z</time>
      </trkpt>
      <trkpt lat="48.58652" lon="-2.81954">
        <ele>73.2</ele>
        <time>2025-10-12T07:39:57Z</time>
      </trkpt>
      <trkpt lat="48.58615" lon="-2.81948">
        <ele>73</ele>
        <time>2025-10-12T07:40:03Z</time>
      </trkpt>
      <trkpt lat="48.58567" lon="-2.81947">
        <ele>73.4</ele>
        <time>2025-10-12T07:40:11Z</time>
      </trkpt>
      <trkpt lat="48.58521" lon="-2.81946">
        <ele>74.2</ele>
        <time>2025-10-12T07:40:19Z</time>
      </trkpt>
      <trkpt lat="48.58477" lon="-2.81947">
        <ele>75.6</ele>
        <time>2025-10-12T07:40:27Z</time>
      </trkpt>
      <trkpt lat="48.58434" lon="-2.81946">
        <ele>77.2</ele>
        <time>2025-10-12T07:40:35Z</time>
      </trkpt>
      <trkpt lat="48.58402" lon="-2.81944">
        <ele>78.2</ele>
        <time>2025-10-12T07:40:41Z</time>
      </trkpt>
      <trkpt lat="48.58364" lon="-2.81928">
        <ele>79.2</ele>
        <time>2025-10-12T07:40:48Z</time>
      </trkpt>
      <trkpt lat="48.58322" lon="-2.81907">
        <ele>80</ele>
        <time>2025-10-12T07:40:56Z</time>
      </trkpt>
      <trkpt lat="48.58277" lon="-2.81885">
        <ele>80.2</ele>
        <time>2025-10-12T07:41:04Z</time>
      </trkpt>
      <trkpt lat="48.58229" lon="-2.81863">
        <ele>80.4</ele>
        <time>2025-10-12T07:41:12Z</time>
      </trkpt>
      <trkpt lat="48.58176" lon="-2.81839">
        <ele>80.6</ele>
        <time>2025-10-12T07:41:20Z</time>
      </trkpt>
      <trkpt lat="48.5813" lon="-2.81817">
        <ele>80.8</ele>
        <time>2025-10-12T07:41:28Z</time>
      </trkpt>
      <trkpt lat="48.58085" lon="-2.81794">
        <ele>81.4</ele>
        <time>2025-10-12T07:41:36Z</time>
      </trkpt>
      <trkpt lat="48.5804" lon="-2.81773">
        <ele>81.8</ele>
        <time>2025-10-12T07:41:44Z</time>
      </trkpt>
      <trkpt lat="48.57998" lon="-2.81751">
        <ele>82.6</ele>
        <time>2025-10-12T07:41:53Z</time>
      </trkpt>
      <trkpt lat="48.57955" lon="-2.81727">
        <ele>83.2</ele>
        <time>2025-10-12T07:42:01Z</time>
      </trkpt>
      <trkpt lat="48.5791" lon="-2.81703">
        <ele>83.6</ele>
        <time>2025-10-12T07:42:09Z</time>
      </trkpt>
      <trkpt lat="48.57865" lon="-2.81683">
        <ele>84.2</ele>
        <time>2025-10-12T07:42:17Z</time>
      </trkpt>
      <trkpt lat="48.57819" lon="-2.81673">
        <ele>84.2</ele>
        <time>2025-10-12T07:42:25Z</time>
      </trkpt>
      <trkpt lat="48.57771" lon="-2.81667">
        <ele>84.2</ele>
        <time>2025-10-12T07:42:33Z</time>
      </trkpt>
      <trkpt lat="48.57739" lon="-2.81653">
        <ele>84.4</ele>
        <time>2025-10-12T07:42:38Z</time>
      </trkpt>
      <trkpt lat="48.57695" lon="-2.81624">
        <ele>84.8</ele>
        <time>2025-10-12T07:42:46Z</time>
      </trkpt>
      <trkpt lat="48.57651" lon="-2.81597">
        <ele>85.2</ele>
        <time>2025-10-12T07:42:54Z</time>
      </trkpt>
      <trkpt lat="48.57607" lon="-2.81572">
        <ele>85.8</ele>
        <time>2025-10-12T07:43:02Z</time>
      </trkpt>
      <trkpt lat="48.57579" lon="-2.81565">
        <ele>86.2</ele>
        <time>2025-10-12T07:43:07Z</time>
      </trkpt>
      <trkpt lat="48.57533" lon="-2.81562">
        <ele>87</ele>
        <time>2025-10-12T07:43:15Z</time>
      </trkpt>
      <trkpt lat="48.57489" lon="-2.8156">
        <ele>88.2</ele>
        <time>2025-10-12T07:43:23Z</time>
      </trkpt>
      <trkpt lat="48.57443" lon="-2.8156">
        <ele>89</ele>
        <time>2025-10-12T07:43:31Z</time>
      </trkpt>
      <trkpt lat="48.57399" lon="-2.81558">
        <ele>90.2</ele>
        <time>2025-10-12T07:43:39Z</time>
      </trkpt>
      <trkpt lat="48.57377" lon="-2.81561">
        <ele>90.8</ele>
        <time>2025-10-12T07:43:43Z</time>
      </trkpt>
      <trkpt lat="48.57364" lon="-2.81561">
        <ele>91</ele>
        <time>2025-10-12T07:43:45Z</time>
      </trkpt>
      <trkpt lat="48.57348" lon="-2.81555">
        <ele>91.6</ele>
        <time>2025-10-12T07:43:48Z</time>
      </trkpt>
      <trkpt lat="48.57307" lon="-2.81536">
        <ele>92.6</ele>
        <time>2025-10-12T07:43:56Z</time>
      </trkpt>
      <trkpt lat="48.57272" lon="-2.8151">
        <ele>93.6</ele>
        <time>2025-10-12T07:44:03Z</time>
      </trkpt>
      <trkpt lat="48.57238" lon="-2.81473">
        <ele>94.2</ele>
        <time>2025-10-12T07:44:11Z</time>
      </trkpt>
      <trkpt lat="48.57201" lon="-2.81428">
        <ele>94.2</ele>
        <time>2025-10-12T07:44:20Z</time>
      </trkpt>
      <trkpt lat="48.57184" lon="-2.81402">
        <ele>94.2</ele>
        <time>2025-10-12T07:44:24Z</time>
      </trkpt>
      <trkpt lat="48.57175" lon="-2.81383">
        <ele>94.4</ele>
        <time>2025-10-12T07:44:28Z</time>
      </trkpt>
      <trkpt lat="48.57167" lon="-2.81382">
        <ele>94.2</ele>
        <time>2025-10-12T07:44:30Z</time>
      </trkpt>
      <trkpt lat="48.57161" lon="-2.81388">
        <ele>94.2</ele>
        <time>2025-10-12T07:44:32Z</time>
      </trkpt>
      <trkpt lat="48.57156" lon="-2.81419">
        <ele>94.4</ele>
        <time>2025-10-12T07:44:37Z</time>
      </trkpt>
      <trkpt lat="48.57146" lon="-2.81478">
        <ele>95.4</ele>
        <time>2025-10-12T07:44:45Z</time>
      </trkpt>
      <trkpt lat="48.57134" lon="-2.81537">
        <ele>96.8</ele>
        <time>2025-10-12T07:44:53Z</time>
      </trkpt>
      <trkpt lat="48.57124" lon="-2.81597">
        <ele>98.2</ele>
        <time>2025-10-12T07:45:01Z</time>
      </trkpt>
      <trkpt lat="48.5711" lon="-2.81639">
        <ele>98.8</ele>
        <time>2025-10-12T07:45:07Z</time>
      </trkpt>
      <trkpt lat="48.57096" lon="-2.81669">
        <ele>99.2</ele>
        <time>2025-10-12T07:45:12Z</time>
      </trkpt>
      <trkpt lat="48.57089" lon="-2.81696">
        <ele>99.6</ele>
        <time>2025-10-12T07:45:15Z</time>
      </trkpt>
      <trkpt lat="48.57088" lon="-2.81712">
        <ele>99.8</ele>
        <time>2025-10-12T07:45:17Z</time>
      </trkpt>
      <trkpt lat="48.57091" lon="-2.81725">
        <ele>99.8</ele>
        <time>2025-10-12T07:45:19Z</time>
      </trkpt>
      <trkpt lat="48.57103" lon="-2.81745">
        <ele>100</ele>
        <time>2025-10-12T07:45:23Z</time>
      </trkpt>
      <trkpt lat="48.57107" lon="-2.81765">
        <ele>100</ele>
        <time>2025-10-12T07:45:26Z</time>
      </trkpt>
      <trkpt lat="48.57104" lon="-2.81785">
        <ele>99.8</ele>
        <time>2025-10-12T07:45:29Z</time>
      </trkpt>
      <trkpt lat="48.57091" lon="-2.81825">
        <ele>99.2</ele>
        <time>2025-10-12T07:45:36Z</time>
      </trkpt>
      <trkpt lat="48.57085" lon="-2.81832">
        <ele>99.2</ele>
        <time>2025-10-12T07:45:38Z</time>
      </trkpt>
      <trkpt lat="48.57074" lon="-2.81831">
        <ele>99.4</ele>
        <time>2025-10-12T07:45:41Z</time>
      </trkpt>
      <trkpt lat="48.5706" lon="-2.81823">
        <ele>99.8</ele>
        <time>2025-10-12T07:45:45Z</time>
      </trkpt>
      <trkpt lat="48.57028" lon="-2.81823">
        <ele>100.4</ele>
        <time>2025-10-12T07:45:52Z</time>
      </trkpt>
      <trkpt lat="48.57015" lon="-2.81814">
        <ele>100.8</ele>
        <time>2025-10-12T07:45:55Z</time>
      </trkpt>
      <trkpt lat="48.56985" lon="-2.81784">
        <ele>101.6</ele>
        <time>2025-10-12T07:46:02Z</time>
      </trkpt>
      <trkpt lat="48.56963" lon="-2.8175">
        <ele>102.2</ele>
        <time>2025-10-12T07:46:10Z</time>
      </trkpt>
      <trkpt lat="48.56954" lon="-2.81741">
        <ele>102.2</ele>
        <time>2025-10-12T07:46:14Z</time>
      </trkpt>
      <trkpt lat="48.56954" lon="-2.81733">
        <ele>102.2</ele>
        <time>2025-10-12T07:46:16Z</time>
      </trkpt>
      <trkpt lat="48.56956" lon="-2.81733">
        <ele>102.2</ele>
        <time>2025-10-12T07:46:21Z</time>
      </trkpt>
      <trkpt lat="48.56962" lon="-2.81748">
        <ele>102.2</ele>
        <time>2025-10-12T07:46:32Z</time>
      </trkpt>
      <trkpt lat="48.56961" lon="-2.8176">
        <ele>102.2</ele>
        <time>2025-10-12T07:46:34Z</time>
      </trkpt>
      <trkpt lat="48.56949" lon="-2.81788">
        <ele>102.4</ele>
        <time>2025-10-12T07:46:39Z</time>
      </trkpt>
      <trkpt lat="48.56938" lon="-2.81803">
        <ele>102.6</ele>
        <time>2025-10-12T07:46:42Z</time>
      </trkpt>
      <trkpt lat="48.56899" lon="-2.81815">
        <ele>102.8</ele>
        <time>2025-10-12T07:46:51Z</time>
      </trkpt>
      <trkpt lat="48.56853" lon="-2.81821">
        <ele>103.8</ele>
        <time>2025-10-12T07:46:59Z</time>
      </trkpt>
      <trkpt lat="48.56827" lon="-2.8183">
        <ele>104.4</ele>
        <time>2025-10-12T07:47:04Z</time>
      </trkpt>
      <trkpt lat="48.56819" lon="-2.8184">
        <ele>104.6</ele>
        <time>2025-10-12T07:47:06Z</time>
      </trkpt>
      <trkpt lat="48.56808" lon="-2.81872">
        <ele>104.4</ele>
        <time>2025-10-12T07:47:10Z</time>
      </trkpt>
      <trkpt lat="48.56777" lon="-2.81941">
        <ele>102.8</ele>
        <time>2025-10-12T07:47:18Z</time>
      </trkpt>
      <trkpt lat="48.56747" lon="-2.8201">
        <ele>102.2</ele>
        <time>2025-10-12T07:47:26Z</time>
      </trkpt>
      <trkpt lat="48.56722" lon="-2.82067">
        <ele>103.2</ele>
        <time>2025-10-12T07:47:34Z</time>
      </trkpt>
      <trkpt lat="48.56698" lon="-2.82123">
        <ele>104.6</ele>
        <time>2025-10-12T07:47:42Z</time>
      </trkpt>
      <trkpt lat="48.56674" lon="-2.82178">
        <ele>106</ele>
        <time>2025-10-12T07:47:50Z</time>
      </trkpt>
      <trkpt lat="48.56653" lon="-2.82225">
        <ele>107.4</ele>
        <time>2025-10-12T07:47:57Z</time>
      </trkpt>
      <trkpt lat="48.56648" lon="-2.82237">
        <ele>107.8</ele>
        <time>2025-10-12T07:47:59Z</time>
      </trkpt>
      <trkpt lat="48.56641" lon="-2.8224">
        <ele>108</ele>
        <time>2025-10-12T07:48:01Z</time>
      </trkpt>
      <trkpt lat="48.56625" lon="-2.82225">
        <ele>108.6</ele>
        <time>2025-10-12T07:48:05Z</time>
      </trkpt>
      <trkpt lat="48.56587" lon="-2.8219">
        <ele>109.2</ele>
        <time>2025-10-12T07:48:13Z</time>
      </trkpt>
      <trkpt lat="48.56546" lon="-2.82156">
        <ele>109.8</ele>
        <time>2025-10-12T07:48:21Z</time>
      </trkpt>
      <trkpt lat="48.56516" lon="-2.82128">
        <ele>110.2</ele>
        <time>2025-10-12T07:48:27Z</time>
      </trkpt>
      <trkpt lat="48.56504" lon="-2.82108">
        <ele>110.2</ele>
        <time>2025-10-12T07:48:30Z</time>
      </trkpt>
      <trkpt lat="48.56497" lon="-2.82092">
        <ele>110</ele>
        <time>2025-10-12T07:48:32Z</time>
      </trkpt>
      <trkpt lat="48.56486" lon="-2.82081">
        <ele>109.8</ele>
        <time>2025-10-12T07:48:34Z</time>
      </trkpt>
      <trkpt lat="48.56467" lon="-2.82077">
        <ele>109.4</ele>
        <time>2025-10-12T07:48:37Z</time>
      </trkpt>
      <trkpt lat="48.56451" lon="-2.82081">
        <ele>109.4</ele>
        <time>2025-10-12T07:48:40Z</time>
      </trkpt>
      <trkpt lat="48.56399" lon="-2.82114">
        <ele>110.2</ele>
        <time>2025-10-12T07:48:48Z</time>
      </trkpt>
      <trkpt lat="48.56355" lon="-2.82145">
        <ele>110.6</ele>
        <time>2025-10-12T07:48:56Z</time>
      </trkpt>
      <trkpt lat="48.56313" lon="-2.82183">
        <ele>110.8</ele>
        <time>2025-10-12T07:49:04Z</time>
      </trkpt>
      <trkpt lat="48.56285" lon="-2.82206">
        <ele>110.8</ele>
        <time>2025-10-12T07:49:10Z</time>
      </trkpt>
      <trkpt lat="48.56273" lon="-2.82209">
        <ele>110.6</ele>
        <time>2025-10-12T07:49:12Z</time>
      </trkpt>
      <trkpt lat="48.56262" lon="-2.82204">
        <ele>110.8</ele>
        <time>2025-10-12T07:49:14Z</time>
      </trkpt>
      <trkpt lat="48.56237" lon="-2.82175">
        <ele>110.8</ele>
        <time>2025-10-12T07:49:19Z</time>
      </trkpt>
      <trkpt lat="48.5622" lon="-2.82166">
        <ele>111</ele>
        <time>2025-10-12T07:49:22Z</time>
      </trkpt>
      <trkpt lat="48.56205" lon="-2.82167">
        <ele>111.2</ele>
        <time>2025-10-12T07:49:25Z</time>
      </trkpt>
      <trkpt lat="48.56184" lon="-2.82177">
        <ele>111.2</ele>
        <time>2025-10-12T07:49:28Z</time>
      </trkpt>
      <trkpt lat="48.56174" lon="-2.8219">
        <ele>111.2</ele>
        <time>2025-10-12T07:49:30Z</time>
      </trkpt>
      <trkpt lat="48.5615" lon="-2.82247">
        <ele>111.4</ele>
        <time>2025-10-12T07:49:37Z</time>
      </trkpt>
      <trkpt lat="48.56133" lon="-2.82272">
        <ele>111.6</ele>
        <time>2025-10-12T07:49:41Z</time>
      </trkpt>
      <trkpt lat="48.56092" lon="-2.82313">
        <ele>112</ele>
        <time>2025-10-12T07:49:49Z</time>
      </trkpt>
      <trkpt lat="48.5605" lon="-2.82347">
        <ele>112.8</ele>
        <time>2025-10-12T07:49:57Z</time>
      </trkpt>
      <trkpt lat="48.56009" lon="-2.82387">
        <ele>113.2</ele>
        <time>2025-10-12T07:50:05Z</time>
      </trkpt>
      <trkpt lat="48.55979" lon="-2.82416">
        <ele>113.8</ele>
        <time>2025-10-12T07:50:11Z</time>
      </trkpt>
      <trkpt lat="48.55945" lon="-2.82456">
        <ele>114.4</ele>
        <time>2025-10-12T07:50:18Z</time>
      </trkpt>
      <trkpt lat="48.55917" lon="-2.82489">
        <ele>115.2</ele>
        <time>2025-10-12T07:50:24Z</time>
      </trkpt>
      <trkpt lat="48.55883" lon="-2.82537">
        <ele>116</ele>
        <time>2025-10-12T07:50:32Z</time>
      </trkpt>
      <trkpt lat="48.55867" lon="-2.82553">
        <ele>116.2</ele>
        <time>2025-10-12T07:50:35Z</time>
      </trkpt>
      <trkpt lat="48.55822" lon="-2.82576">
        <ele>116.8</ele>
        <time>2025-10-12T07:50:43Z</time>
      </trkpt>
      <trkpt lat="48.55786" lon="-2.82599">
        <ele>117</ele>
        <time>2025-10-12T07:50:49Z</time>
      </trkpt>
      <trkpt lat="48.55744" lon="-2.82638">
        <ele>117.4</ele>
        <time>2025-10-12T07:50:57Z</time>
      </trkpt>
      <trkpt lat="48.55705" lon="-2.82669">
        <ele>117.6</ele>
        <time>2025-10-12T07:51:03Z</time>
      </trkpt>
      <trkpt lat="48.55659" lon="-2.82694">
        <ele>117.6</ele>
        <time>2025-10-12T07:51:11Z</time>
      </trkpt>
      <trkpt lat="48.55613" lon="-2.82724">
        <ele>117.6</ele>
        <time>2025-10-12T07:51:19Z</time>
      </trkpt>
      <trkpt lat="48.55569" lon="-2.8276">
        <ele>117.2</ele>
        <time>2025-10-12T07:51:27Z</time>
      </trkpt>
      <trkpt lat="48.55551" lon="-2.82768">
        <ele>117.2</ele>
        <time>2025-10-12T07:51:31Z</time>
      </trkpt>
      <trkpt lat="48.55539" lon="-2.82767">
        <ele>117</ele>
        <time>2025-10-12T07:51:33Z</time>
      </trkpt>
      <trkpt lat="48.55516" lon="-2.82752">
        <ele>117</ele>
        <time>2025-10-12T07:51:37Z</time>
      </trkpt>
      <trkpt lat="48.55475" lon="-2.82726">
        <ele>116.6</ele>
        <time>2025-10-12T07:51:44Z</time>
      </trkpt>
      <trkpt lat="48.55431" lon="-2.82703">
        <ele>116.4</ele>
        <time>2025-10-12T07:51:52Z</time>
      </trkpt>
      <trkpt lat="48.55383" lon="-2.82684">
        <ele>116.8</ele>
        <time>2025-10-12T07:52:00Z</time>
      </trkpt>
      <trkpt lat="48.55338" lon="-2.82664">
        <ele>117.4</ele>
        <time>2025-10-12T07:52:08Z</time>
      </trkpt>
      <trkpt lat="48.55294" lon="-2.82646">
        <ele>117.8</ele>
        <time>2025-10-12T07:52:16Z</time>
      </trkpt>
      <trkpt lat="48.55266" lon="-2.82644">
        <ele>118.2</ele>
        <time>2025-10-12T07:52:21Z</time>
      </trkpt>
      <trkpt lat="48.55223" lon="-2.82646">
        <ele>118.8</ele>
        <time>2025-10-12T07:52:29Z</time>
      </trkpt>
      <trkpt lat="48.55177" lon="-2.82648">
        <ele>120.4</ele>
        <time>2025-10-12T07:52:37Z</time>
      </trkpt>
      <trkpt lat="48.55136" lon="-2.82648">
        <ele>121.8</ele>
        <time>2025-10-12T07:52:45Z</time>
      </trkpt>
      <trkpt lat="48.55092" lon="-2.8265">
        <ele>122.8</ele>
        <time>2025-10-12T07:52:53Z</time>
      </trkpt>
      <trkpt lat="48.55048" lon="-2.82651">
        <ele>123.6</ele>
        <time>2025-10-12T07:53:01Z</time>
      </trkpt>
      <trkpt lat="48.55013" lon="-2.82642">
        <ele>124.4</ele>
        <time>2025-10-12T07:53:08Z</time>
      </trkpt>
      <trkpt lat="48.54977" lon="-2.82624">
        <ele>126.2</ele>
        <time>2025-10-12T07:53:16Z</time>
      </trkpt>
      <trkpt lat="48.54934" lon="-2.82604">
        <ele>127.6</ele>
        <time>2025-10-12T07:53:24Z</time>
      </trkpt>
      <trkpt lat="48.54894" lon="-2.82588">
        <ele>128.4</ele>
        <time>2025-10-12T07:53:32Z</time>
      </trkpt>
      <trkpt lat="48.54848" lon="-2.8257">
        <ele>128.6</ele>
        <time>2025-10-12T07:53:40Z</time>
      </trkpt>
      <trkpt lat="48.54802" lon="-2.82553">
        <ele>128.4</ele>
        <time>2025-10-12T07:53:48Z</time>
      </trkpt>
      <trkpt lat="48.54758" lon="-2.82537">
        <ele>128.2</ele>
        <time>2025-10-12T07:53:57Z</time>
      </trkpt>
      <trkpt lat="48.54712" lon="-2.82521">
        <ele>128.2</ele>
        <time>2025-10-12T07:54:05Z</time>
      </trkpt>
      <trkpt lat="48.54663" lon="-2.82507">
        <ele>128.4</ele>
        <time>2025-10-12T07:54:13Z</time>
      </trkpt>
      <trkpt lat="48.54622" lon="-2.82489">
        <ele>129.4</ele>
        <time>2025-10-12T07:54:21Z</time>
      </trkpt>
      <trkpt lat="48.54593" lon="-2.82471">
        <ele>130.2</ele>
        <time>2025-10-12T07:54:27Z</time>
      </trkpt>
      <trkpt lat="48.54555" lon="-2.82437">
        <ele>130.8</ele>
        <time>2025-10-12T07:54:35Z</time>
      </trkpt>
      <trkpt lat="48.54522" lon="-2.82409">
        <ele>132.4</ele>
        <time>2025-10-12T07:54:43Z</time>
      </trkpt>
      <trkpt lat="48.54485" lon="-2.82381">
        <ele>133.8</ele>
        <time>2025-10-12T07:54:51Z</time>
      </trkpt>
      <trkpt lat="48.54444" lon="-2.82348">
        <ele>134.2</ele>
        <time>2025-10-12T07:54:59Z</time>
      </trkpt>
      <trkpt lat="48.54428" lon="-2.8233">
        <ele>133.6</ele>
        <time>2025-10-12T07:55:02Z</time>
      </trkpt>
      <trkpt lat="48.54409" lon="-2.82294">
        <ele>132.4</ele>
        <time>2025-10-12T07:55:06Z</time>
      </trkpt>
      <trkpt lat="48.54372" lon="-2.82218">
        <ele>129.4</ele>
        <time>2025-10-12T07:55:13Z</time>
      </trkpt>
      <trkpt lat="48.5433" lon="-2.82144">
        <ele>127.8</ele>
        <time>2025-10-12T07:55:21Z</time>
      </trkpt>
      <trkpt lat="48.54293" lon="-2.82072">
        <ele>126.6</ele>
        <time>2025-10-12T07:55:29Z</time>
      </trkpt>
      <trkpt lat="48.54262" lon="-2.82016">
        <ele>126.4</ele>
        <time>2025-10-12T07:55:36Z</time>
      </trkpt>
      <trkpt lat="48.54227" lon="-2.81948">
        <ele>126.6</ele>
        <time>2025-10-12T07:55:44Z</time>
      </trkpt>
      <trkpt lat="48.54203" lon="-2.81915">
        <ele>127</ele>
        <time>2025-10-12T07:55:50Z</time>
      </trkpt>
      <trkpt lat="48.54162" lon="-2.81866">
        <ele>127.4</ele>
        <time>2025-10-12T07:55:58Z</time>
      </trkpt>
      <trkpt lat="48.54144" lon="-2.81845">
        <ele>127.6</ele>
        <time>2025-10-12T07:56:02Z</time>
      </trkpt>
      <trkpt lat="48.5414" lon="-2.81844">
        <ele>127.6</ele>
        <time>2025-10-12T07:56:03Z</time>
      </trkpt>
      <trkpt lat="48.54137" lon="-2.81846">
        <ele>127.6</ele>
        <time>2025-10-12T07:56:04Z</time>
      </trkpt>
      <trkpt lat="48.54133" lon="-2.81858">
        <ele>127.8</ele>
        <time>2025-10-12T07:56:06Z</time>
      </trkpt>
      <trkpt lat="48.54133" lon="-2.81931">
        <ele>127.8</ele>
        <time>2025-10-12T07:56:15Z</time>
      </trkpt>
      <trkpt lat="48.5413" lon="-2.82007">
        <ele>127.4</ele>
        <time>2025-10-12T07:56:23Z</time>
      </trkpt>
      <trkpt lat="48.54129" lon="-2.82088">
        <ele>126.4</ele>
        <time>2025-10-12T07:56:31Z</time>
      </trkpt>
      <trkpt lat="48.5413" lon="-2.82132">
        <ele>125.6</ele>
        <time>2025-10-12T07:56:35Z</time>
      </trkpt>
      <trkpt lat="48.54138" lon="-2.82198">
        <ele>124.4</ele>
        <time>2025-10-12T07:56:41Z</time>
      </trkpt>
      <trkpt lat="48.54153" lon="-2.82284">
        <ele>123.2</ele>
        <time>2025-10-12T07:56:49Z</time>
      </trkpt>
      <trkpt lat="48.54159" lon="-2.8235">
        <ele>123.6</ele>
        <time>2025-10-12T07:56:55Z</time>
      </trkpt>
      <trkpt lat="48.54159" lon="-2.82419">
        <ele>124.8</ele>
        <time>2025-10-12T07:57:03Z</time>
      </trkpt>
      <trkpt lat="48.54155" lon="-2.82472">
        <ele>126</ele>
        <time>2025-10-12T07:57:09Z</time>
      </trkpt>
      <trkpt lat="48.54143" lon="-2.82541">
        <ele>127</ele>
        <time>2025-10-12T07:57:17Z</time>
      </trkpt>
      <trkpt lat="48.54131" lon="-2.82613">
        <ele>127.4</ele>
        <time>2025-10-12T07:57:25Z</time>
      </trkpt>
      <trkpt lat="48.54125" lon="-2.82665">
        <ele>128</ele>
        <time>2025-10-12T07:57:31Z</time>
      </trkpt>
      <trkpt lat="48.54123" lon="-2.82738">
        <ele>128.6</ele>
        <time>2025-10-12T07:57:39Z</time>
      </trkpt>
      <trkpt lat="48.5412" lon="-2.82811">
        <ele>128.6</ele>
        <time>2025-10-12T07:57:47Z</time>
      </trkpt>
      <trkpt lat="48.54118" lon="-2.82865">
        <ele>129</ele>
        <time>2025-10-12T07:57:53Z</time>
      </trkpt>
      <trkpt lat="48.54115" lon="-2.82882">
        <ele>129.2</ele>
        <time>2025-10-12T07:57:55Z</time>
      </trkpt>
      <trkpt lat="48.54084" lon="-2.8295">
        <ele>129.8</ele>
        <time>2025-10-12T07:58:03Z</time>
      </trkpt>
      <trkpt lat="48.54057" lon="-2.83008">
        <ele>130.6</ele>
        <time>2025-10-12T07:58:11Z</time>
      </trkpt>
      <trkpt lat="48.54028" lon="-2.83067">
        <ele>131</ele>
        <time>2025-10-12T07:58:19Z</time>
      </trkpt>
      <trkpt lat="48.54005" lon="-2.83131">
        <ele>131.6</ele>
        <time>2025-10-12T07:58:28Z</time>
      </trkpt>
      <trkpt lat="48.53984" lon="-2.83197">
        <ele>131.8</ele>
        <time>2025-10-12T07:58:36Z</time>
      </trkpt>
      <trkpt lat="48.53964" lon="-2.83265">
        <ele>131.2</ele>
        <time>2025-10-12T07:58:44Z</time>
      </trkpt>
      <trkpt lat="48.53937" lon="-2.8334">
        <ele>130.6</ele>
        <time>2025-10-12T07:58:52Z</time>
      </trkpt>
      <trkpt lat="48.53913" lon="-2.83404">
        <ele>131.2</ele>
        <time>2025-10-12T07:59:00Z</time>
      </trkpt>
      <trkpt lat="48.53887" lon="-2.83466">
        <ele>131.6</ele>
        <time>2025-10-12T07:59:08Z</time>
      </trkpt>
      <trkpt lat="48.53861" lon="-2.8353">
        <ele>132</ele>
        <time>2025-10-12T07:59:16Z</time>
      </trkpt>
      <trkpt lat="48.53837" lon="-2.83595">
        <ele>132.2</ele>
        <time>2025-10-12T07:59:24Z</time>
      </trkpt>
      <trkpt lat="48.53821" lon="-2.83666">
        <ele>132.6</ele>
        <time>2025-10-12T07:59:32Z</time>
      </trkpt>
      <trkpt lat="48.53808" lon="-2.83719">
        <ele>132.8</ele>
        <time>2025-10-12T07:59:38Z</time>
      </trkpt>
      <trkpt lat="48.53785" lon="-2.83774">
        <ele>133</ele>
        <time>2025-10-12T07:59:45Z</time>
      </trkpt>
      <trkpt lat="48.53757" lon="-2.83832">
        <ele>133.8</ele>
        <time>2025-10-12T07:59:53Z</time>
      </trkpt>
      <trkpt lat="48.53726" lon="-2.83891">
        <ele>134.2</ele>
        <time>2025-10-12T08:00:01Z</time>
      </trkpt>
      <trkpt lat="48.53695" lon="-2.83947">
        <ele>134.8</ele>
        <time>2025-10-12T08:00:09Z</time>
      </trkpt>
      <trkpt lat="48.53662" lon="-2.84008">
        <ele>134.6</ele>
        <time>2025-10-12T08:00:17Z</time>
      </trkpt>
      <trkpt lat="48.53643" lon="-2.84049">
        <ele>134</ele>
        <time>2025-10-12T08:00:22Z</time>
      </trkpt>
      <trkpt lat="48.53617" lon="-2.84126">
        <ele>133.8</ele>
        <time>2025-10-12T08:00:30Z</time>
      </trkpt>
      <trkpt lat="48.53597" lon="-2.84195">
        <ele>133.6</ele>
        <time>2025-10-12T08:00:38Z</time>
      </trkpt>
      <trkpt lat="48.53574" lon="-2.84262">
        <ele>133.4</ele>
        <time>2025-10-12T08:00:46Z</time>
      </trkpt>
      <trkpt lat="48.53547" lon="-2.84328">
        <ele>133.2</ele>
        <time>2025-10-12T08:00:55Z</time>
      </trkpt>
      <trkpt lat="48.53521" lon="-2.84392">
        <ele>133.4</ele>
        <time>2025-10-12T08:01:03Z</time>
      </trkpt>
      <trkpt lat="48.53501" lon="-2.84457">
        <ele>134</ele>
        <time>2025-10-12T08:01:11Z</time>
      </trkpt>
      <trkpt lat="48.53484" lon="-2.84514">
        <ele>134.8</ele>
        <time>2025-10-12T08:01:18Z</time>
      </trkpt>
      <trkpt lat="48.53457" lon="-2.84573">
        <ele>135.6</ele>
        <time>2025-10-12T08:01:26Z</time>
      </trkpt>
      <trkpt lat="48.53422" lon="-2.84642">
        <ele>134.2</ele>
        <time>2025-10-12T08:01:34Z</time>
      </trkpt>
      <trkpt lat="48.53384" lon="-2.84706">
        <ele>133.4</ele>
        <time>2025-10-12T08:01:42Z</time>
      </trkpt>
      <trkpt lat="48.53352" lon="-2.84764">
        <ele>133.2</ele>
        <time>2025-10-12T08:01:50Z</time>
      </trkpt>
      <trkpt lat="48.53318" lon="-2.84823">
        <ele>133</ele>
        <time>2025-10-12T08:01:58Z</time>
      </trkpt>
      <trkpt lat="48.53295" lon="-2.84865">
        <ele>133</ele>
        <time>2025-10-12T08:02:04Z</time>
      </trkpt>
      <trkpt lat="48.53268" lon="-2.84923">
        <ele>133.8</ele>
        <time>2025-10-12T08:02:12Z</time>
      </trkpt>
      <trkpt lat="48.53249" lon="-2.84957">
        <ele>134.6</ele>
        <time>2025-10-12T08:02:17Z</time>
      </trkpt>
      <trkpt lat="48.53226" lon="-2.84982">
        <ele>135.4</ele>
        <time>2025-10-12T08:02:22Z</time>
      </trkpt>
      <trkpt lat="48.53186" lon="-2.85018">
        <ele>136.2</ele>
        <time>2025-10-12T08:02:30Z</time>
      </trkpt>
      <trkpt lat="48.53143" lon="-2.85056">
        <ele>136.2</ele>
        <time>2025-10-12T08:02:38Z</time>
      </trkpt>
      <trkpt lat="48.53128" lon="-2.85072">
        <ele>135.8</ele>
        <time>2025-10-12T08:02:41Z</time>
      </trkpt>
      <trkpt lat="48.53122" lon="-2.85088">
        <ele>135.8</ele>
        <time>2025-10-12T08:02:43Z</time>
      </trkpt>
      <trkpt lat="48.53107" lon="-2.85154">
        <ele>136</ele>
        <time>2025-10-12T08:02:50Z</time>
      </trkpt>
      <trkpt lat="48.53088" lon="-2.85215">
        <ele>137</ele>
        <time>2025-10-12T08:02:58Z</time>
      </trkpt>
      <trkpt lat="48.53067" lon="-2.85276">
        <ele>138</ele>
        <time>2025-10-12T08:03:06Z</time>
      </trkpt>
      <trkpt lat="48.53039" lon="-2.85331">
        <ele>138.8</ele>
        <time>2025-10-12T08:03:14Z</time>
      </trkpt>
      <trkpt lat="48.53009" lon="-2.85384">
        <ele>139.4</ele>
        <time>2025-10-12T08:03:23Z</time>
      </trkpt>
      <trkpt lat="48.5298" lon="-2.85436">
        <ele>140</ele>
        <time>2025-10-12T08:03:31Z</time>
      </trkpt>
      <trkpt lat="48.52951" lon="-2.85491">
        <ele>140.8</ele>
        <time>2025-10-12T08:03:39Z</time>
      </trkpt>
      <trkpt lat="48.52925" lon="-2.85546">
        <ele>142</ele>
        <time>2025-10-12T08:03:47Z</time>
      </trkpt>
      <trkpt lat="48.52906" lon="-2.85588">
        <ele>142.6</ele>
        <time>2025-10-12T08:03:53Z</time>
      </trkpt>
      <trkpt lat="48.52893" lon="-2.85626">
        <ele>143.2</ele>
        <time>2025-10-12T08:03:58Z</time>
      </trkpt>
      <trkpt lat="48.5288" lon="-2.85657">
        <ele>143.4</ele>
        <time>2025-10-12T08:04:02Z</time>
      </trkpt>
      <trkpt lat="48.52869" lon="-2.85711">
        <ele>143.4</ele>
        <time>2025-10-12T08:04:08Z</time>
      </trkpt>
      <trkpt lat="48.52855" lon="-2.85781">
        <ele>143.4</ele>
        <time>2025-10-12T08:04:16Z</time>
      </trkpt>
      <trkpt lat="48.5284" lon="-2.85856">
        <ele>143.2</ele>
        <time>2025-10-12T08:04:24Z</time>
      </trkpt>
      <trkpt lat="48.52829" lon="-2.85929">
        <ele>143.2</ele>
        <time>2025-10-12T08:04:32Z</time>
      </trkpt>
      <trkpt lat="48.52821" lon="-2.8599">
        <ele>143.2</ele>
        <time>2025-10-12T08:04:39Z</time>
      </trkpt>
      <trkpt lat="48.52802" lon="-2.86065">
        <ele>143.4</ele>
        <time>2025-10-12T08:04:47Z</time>
      </trkpt>
      <trkpt lat="48.52783" lon="-2.86133">
        <ele>143.8</ele>
        <time>2025-10-12T08:04:55Z</time>
      </trkpt>
      <trkpt lat="48.52758" lon="-2.86198">
        <ele>144.2</ele>
        <time>2025-10-12T08:05:03Z</time>
      </trkpt>
      <trkpt lat="48.52729" lon="-2.86257">
        <ele>144.6</ele>
        <time>2025-10-12T08:05:11Z</time>
      </trkpt>
      <trkpt lat="48.52694" lon="-2.86323">
        <ele>145</ele>
        <time>2025-10-12T08:05:19Z</time>
      </trkpt>
      <trkpt lat="48.52662" lon="-2.86382">
        <ele>145</ele>
        <time>2025-10-12T08:05:27Z</time>
      </trkpt>
      <trkpt lat="48.52626" lon="-2.86437">
        <ele>145</ele>
        <time>2025-10-12T08:05:35Z</time>
      </trkpt>
      <trkpt lat="48.5259" lon="-2.86494">
        <ele>144.6</ele>
        <time>2025-10-12T08:05:43Z</time>
      </trkpt>
      <trkpt lat="48.52563" lon="-2.86536">
        <ele>144.4</ele>
        <time>2025-10-12T08:05:49Z</time>
      </trkpt>
      <trkpt lat="48.52541" lon="-2.86558">
        <ele>144.2</ele>
        <time>2025-10-12T08:05:54Z</time>
      </trkpt>
      <trkpt lat="48.52504" lon="-2.86577">
        <ele>144</ele>
        <time>2025-10-12T08:06:00Z</time>
      </trkpt>
      <trkpt lat="48.52456" lon="-2.866">
        <ele>143.8</ele>
        <time>2025-10-12T08:06:08Z</time>
      </trkpt>
      <trkpt lat="48.52428" lon="-2.86617">
        <ele>143.8</ele>
        <time>2025-10-12T08:06:13Z</time>
      </trkpt>
      <trkpt lat="48.52386" lon="-2.86657">
        <ele>144.2</ele>
        <time>2025-10-12T08:06:21Z</time>
      </trkpt>
      <trkpt lat="48.52346" lon="-2.86697">
        <ele>144.2</ele>
        <time>2025-10-12T08:06:29Z</time>
      </trkpt>
      <trkpt lat="48.52303" lon="-2.86737">
        <ele>144.8</ele>
        <time>2025-10-12T08:06:37Z</time>
      </trkpt>
      <trkpt lat="48.52277" lon="-2.86755">
        <ele>145.6</ele>
        <time>2025-10-12T08:06:42Z</time>
      </trkpt>
      <trkpt lat="48.52255" lon="-2.86763">
        <ele>146.2</ele>
        <time>2025-10-12T08:06:47Z</time>
      </trkpt>
      <trkpt lat="48.5225" lon="-2.86769">
        <ele>146.6</ele>
        <time>2025-10-12T08:06:50Z</time>
      </trkpt>
      <trkpt lat="48.5225" lon="-2.86801">
        <ele>147</ele>
        <time>2025-10-12T08:06:58Z</time>
      </trkpt>
      <trkpt lat="48.52248" lon="-2.86853">
        <ele>147.2</ele>
        <time>2025-10-12T08:07:06Z</time>
      </trkpt>
      <trkpt lat="48.52246" lon="-2.86921">
        <ele>147.6</ele>
        <time>2025-10-12T08:07:14Z</time>
      </trkpt>
      <trkpt lat="48.52244" lon="-2.86991">
        <ele>148.4</ele>
        <time>2025-10-12T08:07:22Z</time>
      </trkpt>
      <trkpt lat="48.52243" lon="-2.87061">
        <ele>149.2</ele>
        <time>2025-10-12T08:07:30Z</time>
      </trkpt>
      <trkpt lat="48.52244" lon="-2.87128">
        <ele>150.2</ele>
        <time>2025-10-12T08:07:38Z</time>
      </trkpt>
      <trkpt lat="48.52245" lon="-2.87199">
        <ele>151.4</ele>
        <time>2025-10-12T08:07:46Z</time>
      </trkpt>
      <trkpt lat="48.52249" lon="-2.87233">
        <ele>152</ele>
        <time>2025-10-12T08:07:50Z</time>
      </trkpt>
      <trkpt lat="48.52248" lon="-2.87252">
        <ele>152.2</ele>
        <time>2025-10-12T08:07:52Z</time>
      </trkpt>
      <trkpt lat="48.52242" lon="-2.87267">
        <ele>152.4</ele>
        <time>2025-10-12T08:07:54Z</time>
      </trkpt>
      <trkpt lat="48.52231" lon="-2.87274">
        <ele>152.6</ele>
        <time>2025-10-12T08:07:56Z</time>
      </trkpt>
      <trkpt lat="48.52219" lon="-2.87274">
        <ele>152.8</ele>
        <time>2025-10-12T08:07:58Z</time>
      </trkpt>
      <trkpt lat="48.52194" lon="-2.87264">
        <ele>153</ele>
        <time>2025-10-12T08:08:02Z</time>
      </trkpt>
      <trkpt lat="48.52188" lon="-2.87264">
        <ele>153</ele>
        <time>2025-10-12T08:08:03Z</time>
      </trkpt>
      <trkpt lat="48.52182" lon="-2.87267">
        <ele>153</ele>
        <time>2025-10-12T08:08:04Z</time>
      </trkpt>
      <trkpt lat="48.52178" lon="-2.87272">
        <ele>153.2</ele>
        <time>2025-10-12T08:08:05Z</time>
      </trkpt>
      <trkpt lat="48.52173" lon="-2.87289">
        <ele>153.2</ele>
        <time>2025-10-12T08:08:07Z</time>
      </trkpt>
      <trkpt lat="48.52173" lon="-2.87308">
        <ele>153.4</ele>
        <time>2025-10-12T08:08:09Z</time>
      </trkpt>
      <trkpt lat="48.52178" lon="-2.87323">
        <ele>153.8</ele>
        <time>2025-10-12T08:08:11Z</time>
      </trkpt>
      <trkpt lat="48.52189" lon="-2.87338">
        <ele>153.8</ele>
        <time>2025-10-12T08:08:13Z</time>
      </trkpt>
      <trkpt lat="48.52223" lon="-2.87365">
        <ele>154.2</ele>
        <time>2025-10-12T08:08:20Z</time>
      </trkpt>
      <trkpt lat="48.52231" lon="-2.87378">
        <ele>154.2</ele>
        <time>2025-10-12T08:08:22Z</time>
      </trkpt>
      <trkpt lat="48.52237" lon="-2.87395">
        <ele>154</ele>
        <time>2025-10-12T08:08:24Z</time>
      </trkpt>
      <trkpt lat="48.52242" lon="-2.87434">
        <ele>153.8</ele>
        <time>2025-10-12T08:08:28Z</time>
      </trkpt>
      <trkpt lat="48.52245" lon="-2.87514">
        <ele>153.4</ele>
        <time>2025-10-12T08:08:36Z</time>
      </trkpt>
      <trkpt lat="48.52249" lon="-2.87589">
        <ele>153.4</ele>
        <time>2025-10-12T08:08:44Z</time>
      </trkpt>
      <trkpt lat="48.52249" lon="-2.87635">
        <ele>153.4</ele>
        <time>2025-10-12T08:08:49Z</time>
      </trkpt>
      <trkpt lat="48.52243" lon="-2.87707">
        <ele>154.4</ele>
        <time>2025-10-12T08:08:57Z</time>
      </trkpt>
      <trkpt lat="48.5224" lon="-2.87775">
        <ele>156</ele>
        <time>2025-10-12T08:09:05Z</time>
      </trkpt>
      <trkpt lat="48.5224" lon="-2.87841">
        <ele>157.8</ele>
        <time>2025-10-12T08:09:13Z</time>
      </trkpt>
      <trkpt lat="48.52239" lon="-2.87905">
        <ele>159.6</ele>
        <time>2025-10-12T08:09:21Z</time>
      </trkpt>
      <trkpt lat="48.5224" lon="-2.87972">
        <ele>160.8</ele>
        <time>2025-10-12T08:09:29Z</time>
      </trkpt>
      <trkpt lat="48.52244" lon="-2.88039">
        <ele>161.6</ele>
        <time>2025-10-12T08:09:37Z</time>
      </trkpt>
      <trkpt lat="48.5225" lon="-2.88115">
        <ele>162</ele>
        <time>2025-10-12T08:09:45Z</time>
      </trkpt>
      <trkpt lat="48.52256" lon="-2.88191">
        <ele>161.8</ele>
        <time>2025-10-12T08:09:53Z</time>
      </trkpt>
      <trkpt lat="48.52263" lon="-2.88268">
        <ele>160.8</ele>
        <time>2025-10-12T08:10:01Z</time>
      </trkpt>
      <trkpt lat="48.52274" lon="-2.88347">
        <ele>159.6</ele>
        <time>2025-10-12T08:10:08Z</time>
      </trkpt>
      <trkpt lat="48.52294" lon="-2.88448">
        <ele>158</ele>
        <time>2025-10-12T08:10:16Z</time>
      </trkpt>
      <trkpt lat="48.52313" lon="-2.88541">
        <ele>156.2</ele>
        <time>2025-10-12T08:10:24Z</time>
      </trkpt>
      <trkpt lat="48.52336" lon="-2.88636">
        <ele>154.6</ele>
        <time>2025-10-12T08:10:32Z</time>
      </trkpt>
      <trkpt lat="48.52358" lon="-2.88717">
        <ele>154.6</ele>
        <time>2025-10-12T08:10:40Z</time>
      </trkpt>
      <trkpt lat="48.52375" lon="-2.88791">
        <ele>155.2</ele>
        <time>2025-10-12T08:10:49Z</time>
      </trkpt>
      <trkpt lat="48.52378" lon="-2.88824">
        <ele>155.4</ele>
        <time>2025-10-12T08:10:53Z</time>
      </trkpt>
      <trkpt lat="48.52375" lon="-2.889">
        <ele>156</ele>
        <time>2025-10-12T08:11:01Z</time>
      </trkpt>
      <trkpt lat="48.52378" lon="-2.88938">
        <ele>156.2</ele>
        <time>2025-10-12T08:11:05Z</time>
      </trkpt>
      <trkpt lat="48.52387" lon="-2.88973">
        <ele>156.4</ele>
        <time>2025-10-12T08:11:09Z</time>
      </trkpt>
      <trkpt lat="48.52401" lon="-2.89004">
        <ele>156.4</ele>
        <time>2025-10-12T08:11:13Z</time>
      </trkpt>
      <trkpt lat="48.52425" lon="-2.89036">
        <ele>156.4</ele>
        <time>2025-10-12T08:11:18Z</time>
      </trkpt>
      <trkpt lat="48.52458" lon="-2.89079">
        <ele>156.2</ele>
        <time>2025-10-12T08:11:25Z</time>
      </trkpt>
      <trkpt lat="48.52473" lon="-2.8911">
        <ele>156</ele>
        <time>2025-10-12T08:11:29Z</time>
      </trkpt>
      <trkpt lat="48.52494" lon="-2.8918">
        <ele>155.6</ele>
        <time>2025-10-12T08:11:37Z</time>
      </trkpt>
      <trkpt lat="48.52515" lon="-2.89249">
        <ele>155</ele>
        <time>2025-10-12T08:11:45Z</time>
      </trkpt>
      <trkpt lat="48.52538" lon="-2.89321">
        <ele>154.4</ele>
        <time>2025-10-12T08:11:53Z</time>
      </trkpt>
      <trkpt lat="48.52561" lon="-2.89401">
        <ele>152.8</ele>
        <time>2025-10-12T08:12:01Z</time>
      </trkpt>
      <trkpt lat="48.52566" lon="-2.89435">
        <ele>152</ele>
        <time>2025-10-12T08:12:04Z</time>
      </trkpt>
      <trkpt lat="48.52564" lon="-2.89496">
        <ele>150.4</ele>
        <time>2025-10-12T08:12:09Z</time>
      </trkpt>
      <trkpt lat="48.52555" lon="-2.89595">
        <ele>147.6</ele>
        <time>2025-10-12T08:12:17Z</time>
      </trkpt>
      <trkpt lat="48.52547" lon="-2.8969">
        <ele>145.6</ele>
        <time>2025-10-12T08:12:25Z</time>
      </trkpt>
      <trkpt lat="48.52541" lon="-2.89711">
        <ele>145.2</ele>
        <time>2025-10-12T08:12:28Z</time>
      </trkpt>
      <trkpt lat="48.52534" lon="-2.8972">
        <ele>145</ele>
        <time>2025-10-12T08:12:31Z</time>
      </trkpt>
      <trkpt lat="48.52524" lon="-2.89715">
        <ele>145.2</ele>
        <time>2025-10-12T08:12:34Z</time>
      </trkpt>
      <trkpt lat="48.52484" lon="-2.89677">
        <ele>145.8</ele>
        <time>2025-10-12T08:12:42Z</time>
      </trkpt>
      <trkpt lat="48.52458" lon="-2.89664">
        <ele>146.2</ele>
        <time>2025-10-12T08:12:47Z</time>
      </trkpt>
      <trkpt lat="48.52409" lon="-2.89654">
        <ele>147</ele>
        <time>2025-10-12T08:12:55Z</time>
      </trkpt>
      <trkpt lat="48.52358" lon="-2.89641">
        <ele>147.2</ele>
        <time>2025-10-12T08:13:03Z</time>
      </trkpt>
      <trkpt lat="48.52313" lon="-2.89625">
        <ele>148.8</ele>
        <time>2025-10-12T08:13:12Z</time>
      </trkpt>
      <trkpt lat="48.52275" lon="-2.89605">
        <ele>151.2</ele>
        <time>2025-10-12T08:13:20Z</time>
      </trkpt>
      <trkpt lat="48.52239" lon="-2.89579">
        <ele>152.6</ele>
        <time>2025-10-12T08:13:28Z</time>
      </trkpt>
      <trkpt lat="48.52203" lon="-2.89553">
        <ele>154</ele>
        <time>2025-10-12T08:13:36Z</time>
      </trkpt>
      <trkpt lat="48.52166" lon="-2.89528">
        <ele>155.8</ele>
        <time>2025-10-12T08:13:44Z</time>
      </trkpt>
      <trkpt lat="48.52133" lon="-2.89504">
        <ele>157.6</ele>
        <time>2025-10-12T08:13:52Z</time>
      </trkpt>
      <trkpt lat="48.52102" lon="-2.89481">
        <ele>159.4</ele>
        <time>2025-10-12T08:14:00Z</time>
      </trkpt>
      <trkpt lat="48.5207" lon="-2.89459">
        <ele>161</ele>
        <time>2025-10-12T08:14:08Z</time>
      </trkpt>
      <trkpt lat="48.5204" lon="-2.89438">
        <ele>163</ele>
        <time>2025-10-12T08:14:16Z</time>
      </trkpt>
      <trkpt lat="48.52015" lon="-2.89415">
        <ele>165.4</ele>
        <time>2025-10-12T08:14:24Z</time>
      </trkpt>
      <trkpt lat="48.51992" lon="-2.8938">
        <ele>167.4</ele>
        <time>2025-10-12T08:14:32Z</time>
      </trkpt>
      <trkpt lat="48.51972" lon="-2.89336">
        <ele>168.6</ele>
        <time>2025-10-12T08:14:40Z</time>
      </trkpt>
      <trkpt lat="48.51947" lon="-2.89285">
        <ele>169.2</ele>
        <time>2025-10-12T08:14:48Z</time>
      </trkpt>
      <trkpt lat="48.51919" lon="-2.89236">
        <ele>170.2</ele>
        <time>2025-10-12T08:14:56Z</time>
      </trkpt>
      <trkpt lat="48.51895" lon="-2.89184">
        <ele>170.8</ele>
        <time>2025-10-12T08:15:04Z</time>
      </trkpt>
      <trkpt lat="48.51872" lon="-2.89132">
        <ele>171.8</ele>
        <time>2025-10-12T08:15:12Z</time>
      </trkpt>
      <trkpt lat="48.51847" lon="-2.89072">
        <ele>172.4</ele>
        <time>2025-10-12T08:15:20Z</time>
      </trkpt>
      <trkpt lat="48.51826" lon="-2.89028">
        <ele>172.6</ele>
        <time>2025-10-12T08:15:26Z</time>
      </trkpt>
      <trkpt lat="48.51793" lon="-2.88979">
        <ele>173</ele>
        <time>2025-10-12T08:15:34Z</time>
      </trkpt>
      <trkpt lat="48.51759" lon="-2.88929">
        <ele>173.4</ele>
        <time>2025-10-12T08:15:42Z</time>
      </trkpt>
      <trkpt lat="48.51724" lon="-2.88878">
        <ele>173</ele>
        <time>2025-10-12T08:15:51Z</time>
      </trkpt>
      <trkpt lat="48.51709" lon="-2.88846">
        <ele>172.8</ele>
        <time>2025-10-12T08:15:55Z</time>
      </trkpt>
      <trkpt lat="48.51688" lon="-2.88785">
        <ele>173.2</ele>
        <time>2025-10-12T08:16:03Z</time>
      </trkpt>
      <trkpt lat="48.51671" lon="-2.88723">
        <ele>173.8</ele>
        <time>2025-10-12T08:16:11Z</time>
      </trkpt>
      <trkpt lat="48.51658" lon="-2.88658">
        <ele>174.8</ele>
        <time>2025-10-12T08:16:19Z</time>
      </trkpt>
      <trkpt lat="48.51645" lon="-2.88591">
        <ele>175</ele>
        <time>2025-10-12T08:16:27Z</time>
      </trkpt>
      <trkpt lat="48.51636" lon="-2.88557">
        <ele>175.2</ele>
        <time>2025-10-12T08:16:31Z</time>
      </trkpt>
      <trkpt lat="48.51618" lon="-2.88522">
        <ele>175</ele>
        <time>2025-10-12T08:16:36Z</time>
      </trkpt>
      <trkpt lat="48.51589" lon="-2.88487">
        <ele>174.8</ele>
        <time>2025-10-12T08:16:42Z</time>
      </trkpt>
      <trkpt lat="48.51547" lon="-2.88448">
        <ele>174.4</ele>
        <time>2025-10-12T08:16:50Z</time>
      </trkpt>
      <trkpt lat="48.5153" lon="-2.88436">
        <ele>174.4</ele>
        <time>2025-10-12T08:16:54Z</time>
      </trkpt>
      <trkpt lat="48.51486" lon="-2.88443">
        <ele>173.2</ele>
        <time>2025-10-12T08:17:02Z</time>
      </trkpt>
      <trkpt lat="48.51463" lon="-2.88447">
        <ele>171.8</ele>
        <time>2025-10-12T08:17:05Z</time>
      </trkpt>
      <trkpt lat="48.51397" lon="-2.88484">
        <ele>168</ele>
        <time>2025-10-12T08:17:13Z</time>
      </trkpt>
      <trkpt lat="48.51329" lon="-2.8852">
        <ele>165</ele>
        <time>2025-10-12T08:17:21Z</time>
      </trkpt>
      <trkpt lat="48.51292" lon="-2.88535">
        <ele>164.4</ele>
        <time>2025-10-12T08:17:25Z</time>
      </trkpt>
      <trkpt lat="48.51265" lon="-2.88537">
        <ele>164.8</ele>
        <time>2025-10-12T08:17:28Z</time>
      </trkpt>
      <trkpt lat="48.51216" lon="-2.88522">
        <ele>167.2</ele>
        <time>2025-10-12T08:17:36Z</time>
      </trkpt>
      <trkpt lat="48.51169" lon="-2.88509">
        <ele>167.6</ele>
        <time>2025-10-12T08:17:44Z</time>
      </trkpt>
      <trkpt lat="48.51101" lon="-2.88493">
        <ele>165.6</ele>
        <time>2025-10-12T08:17:52Z</time>
      </trkpt>
      <trkpt lat="48.51074" lon="-2.88492">
        <ele>164.6</ele>
        <time>2025-10-12T08:17:55Z</time>
      </trkpt>
      <trkpt lat="48.51011" lon="-2.88506">
        <ele>162</ele>
        <time>2025-10-12T08:18:02Z</time>
      </trkpt>
      <trkpt lat="48.50969" lon="-2.88504">
        <ele>161.6</ele>
        <time>2025-10-12T08:18:07Z</time>
      </trkpt>
      <trkpt lat="48.50924" lon="-2.88494">
        <ele>163.8</ele>
        <time>2025-10-12T08:18:15Z</time>
      </trkpt>
      <trkpt lat="48.50892" lon="-2.88479">
        <ele>164.4</ele>
        <time>2025-10-12T08:18:22Z</time>
      </trkpt>
      <trkpt lat="48.50845" lon="-2.88443">
        <ele>163</ele>
        <time>2025-10-12T08:18:29Z</time>
      </trkpt>
      <trkpt lat="48.50821" lon="-2.88433">
        <ele>162</ele>
        <time>2025-10-12T08:18:32Z</time>
      </trkpt>
      <trkpt lat="48.50786" lon="-2.8843">
        <ele>160.4</ele>
        <time>2025-10-12T08:18:36Z</time>
      </trkpt>
      <trkpt lat="48.50725" lon="-2.88435">
        <ele>159.6</ele>
        <time>2025-10-12T08:18:44Z</time>
      </trkpt>
      <trkpt lat="48.50697" lon="-2.88432">
        <ele>160.2</ele>
        <time>2025-10-12T08:18:48Z</time>
      </trkpt>
      <trkpt lat="48.50653" lon="-2.88415">
        <ele>160.8</ele>
        <time>2025-10-12T08:18:56Z</time>
      </trkpt>
      <trkpt lat="48.50646" lon="-2.88417">
        <ele>160.8</ele>
        <time>2025-10-12T08:18:58Z</time>
      </trkpt>
      <trkpt lat="48.50643" lon="-2.88424">
        <ele>160.2</ele>
        <time>2025-10-12T08:19:00Z</time>
      </trkpt>
      <trkpt lat="48.50646" lon="-2.88432">
        <ele>160</ele>
        <time>2025-10-12T08:19:01Z</time>
      </trkpt>
      <trkpt lat="48.50667" lon="-2.88464">
        <ele>158</ele>
        <time>2025-10-12T08:19:05Z</time>
      </trkpt>
      <trkpt lat="48.50674" lon="-2.88486">
        <ele>157.2</ele>
        <time>2025-10-12T08:19:07Z</time>
      </trkpt>
      <trkpt lat="48.50686" lon="-2.88568">
        <ele>156.4</ele>
        <time>2025-10-12T08:19:15Z</time>
      </trkpt>
      <trkpt lat="48.50699" lon="-2.88639">
        <ele>157.2</ele>
        <time>2025-10-12T08:19:23Z</time>
      </trkpt>
      <trkpt lat="48.50713" lon="-2.88701">
        <ele>158.4</ele>
        <time>2025-10-12T08:19:31Z</time>
      </trkpt>
      <trkpt lat="48.5073" lon="-2.8877">
        <ele>159.8</ele>
        <time>2025-10-12T08:19:39Z</time>
      </trkpt>
      <trkpt lat="48.50745" lon="-2.88832">
        <ele>161.4</ele>
        <time>2025-10-12T08:19:47Z</time>
      </trkpt>
      <trkpt lat="48.5076" lon="-2.88896">
        <ele>163</ele>
        <time>2025-10-12T08:19:55Z</time>
      </trkpt>
      <trkpt lat="48.50774" lon="-2.88959">
        <ele>164.4</ele>
        <time>2025-10-12T08:20:03Z</time>
      </trkpt>
      <trkpt lat="48.50789" lon="-2.89024">
        <ele>165.6</ele>
        <time>2025-10-12T08:20:11Z</time>
      </trkpt>
      <trkpt lat="48.50803" lon="-2.89087">
        <ele>167</ele>
        <time>2025-10-12T08:20:19Z</time>
      </trkpt>
      <trkpt lat="48.50821" lon="-2.89159">
        <ele>168.2</ele>
        <time>2025-10-12T08:20:27Z</time>
      </trkpt>
      <trkpt lat="48.50836" lon="-2.89223">
        <ele>169</ele>
        <time>2025-10-12T08:20:35Z</time>
      </trkpt>
      <trkpt lat="48.50852" lon="-2.89292">
        <ele>169.4</ele>
        <time>2025-10-12T08:20:43Z</time>
      </trkpt>
      <trkpt lat="48.50872" lon="-2.89362">
        <ele>169.4</ele>
        <time>2025-10-12T08:20:51Z</time>
      </trkpt>
      <trkpt lat="48.5089" lon="-2.89436">
        <ele>168.6</ele>
        <time>2025-10-12T08:21:00Z</time>
      </trkpt>
      <trkpt lat="48.50901" lon="-2.89494">
        <ele>167.2</ele>
        <time>2025-10-12T08:21:08Z</time>
      </trkpt>
      <trkpt lat="48.50916" lon="-2.89549">
        <ele>167.6</ele>
        <time>2025-10-12T08:21:16Z</time>
      </trkpt>
      <trkpt lat="48.50935" lon="-2.89617">
        <ele>167.6</ele>
        <time>2025-10-12T08:21:24Z</time>
      </trkpt>
      <trkpt lat="48.50952" lon="-2.89685">
        <ele>167</ele>
        <time>2025-10-12T08:21:32Z</time>
      </trkpt>
      <trkpt lat="48.50957" lon="-2.89706">
        <ele>166.6</ele>
        <time>2025-10-12T08:21:37Z</time>
      </trkpt>
      <trkpt lat="48.50954" lon="-2.89704">
        <ele>166.4</ele>
        <time>2025-10-12T08:21:40Z</time>
      </trkpt>
      <trkpt lat="48.50948" lon="-2.89675">
        <ele>166.6</ele>
        <time>2025-10-12T08:21:48Z</time>
      </trkpt>
      <trkpt lat="48.50934" lon="-2.89629">
        <ele>167</ele>
        <time>2025-10-12T08:21:56Z</time>
      </trkpt>
      <trkpt lat="48.50918" lon="-2.89563">
        <ele>167.4</ele>
        <time>2025-10-12T08:22:04Z</time>
      </trkpt>
      <trkpt lat="48.50901" lon="-2.89499">
        <ele>167.4</ele>
        <time>2025-10-12T08:22:12Z</time>
      </trkpt>
      <trkpt lat="48.50896" lon="-2.89487">
        <ele>167.2</ele>
        <time>2025-10-12T08:22:14Z</time>
      </trkpt>
      <trkpt lat="48.5089" lon="-2.89482">
        <ele>167.2</ele>
        <time>2025-10-12T08:22:16Z</time>
      </trkpt>
      <trkpt lat="48.50878" lon="-2.89488">
        <ele>167.4</ele>
        <time>2025-10-12T08:22:19Z</time>
      </trkpt>
      <trkpt lat="48.50858" lon="-2.89502">
        <ele>168</ele>
        <time>2025-10-12T08:22:24Z</time>
      </trkpt>
      <trkpt lat="48.50822" lon="-2.89518">
        <ele>169.8</ele>
        <time>2025-10-12T08:22:32Z</time>
      </trkpt>
      <trkpt lat="48.50786" lon="-2.89532">
        <ele>171.8</ele>
        <time>2025-10-12T08:22:40Z</time>
      </trkpt>
      <trkpt lat="48.5075" lon="-2.89544">
        <ele>173.6</ele>
        <time>2025-10-12T08:22:48Z</time>
      </trkpt>
      <trkpt lat="48.50721" lon="-2.89548">
        <ele>174.2</ele>
        <time>2025-10-12T08:22:53Z</time>
      </trkpt>
      <trkpt lat="48.50694" lon="-2.89542">
        <ele>175.2</ele>
        <time>2025-10-12T08:22:59Z</time>
      </trkpt>
      <trkpt lat="48.50656" lon="-2.89528">
        <ele>176.6</ele>
        <time>2025-10-12T08:23:07Z</time>
      </trkpt>
      <trkpt lat="48.50629" lon="-2.89521">
        <ele>177.8</ele>
        <time>2025-10-12T08:23:13Z</time>
      </trkpt>
      <trkpt lat="48.50603" lon="-2.89524">
        <ele>179.2</ele>
        <time>2025-10-12T08:23:19Z</time>
      </trkpt>
      <trkpt lat="48.50566" lon="-2.89543">
        <ele>181.6</ele>
        <time>2025-10-12T08:23:29Z</time>
      </trkpt>
      <trkpt lat="48.50534" lon="-2.89568">
        <ele>183</ele>
        <time>2025-10-12T08:23:37Z</time>
      </trkpt>
      <trkpt lat="48.50496" lon="-2.89597">
        <ele>183.6</ele>
        <time>2025-10-12T08:23:45Z</time>
      </trkpt>
      <trkpt lat="48.50468" lon="-2.89608">
        <ele>183.8</ele>
        <time>2025-10-12T08:23:50Z</time>
      </trkpt>
      <trkpt lat="48.50419" lon="-2.89615">
        <ele>183.6</ele>
        <time>2025-10-12T08:23:58Z</time>
      </trkpt>
      <trkpt lat="48.50376" lon="-2.89629">
        <ele>183.2</ele>
        <time>2025-10-12T08:24:05Z</time>
      </trkpt>
      <trkpt lat="48.50328" lon="-2.89648">
        <ele>182.6</ele>
        <time>2025-10-12T08:24:13Z</time>
      </trkpt>
      <trkpt lat="48.50293" lon="-2.8966">
        <ele>182.4</ele>
        <time>2025-10-12T08:24:19Z</time>
      </trkpt>
      <trkpt lat="48.50243" lon="-2.89662">
        <ele>181.4</ele>
        <time>2025-10-12T08:24:26Z</time>
      </trkpt>
      <trkpt lat="48.50186" lon="-2.89662">
        <ele>180</ele>
        <time>2025-10-12T08:24:34Z</time>
      </trkpt>
      <trkpt lat="48.50158" lon="-2.89669">
        <ele>179.8</ele>
        <time>2025-10-12T08:24:38Z</time>
      </trkpt>
      <trkpt lat="48.50133" lon="-2.89684">
        <ele>179.4</ele>
        <time>2025-10-12T08:24:42Z</time>
      </trkpt>
      <trkpt lat="48.50105" lon="-2.8971">
        <ele>179.4</ele>
        <time>2025-10-12T08:24:47Z</time>
      </trkpt>
      <trkpt lat="48.50087" lon="-2.89717">
        <ele>179.4</ele>
        <time>2025-10-12T08:24:50Z</time>
      </trkpt>
      <trkpt lat="48.50063" lon="-2.89714">
        <ele>179.6</ele>
        <time>2025-10-12T08:24:54Z</time>
      </trkpt>
      <trkpt lat="48.50015" lon="-2.89704">
        <ele>180</ele>
        <time>2025-10-12T08:25:02Z</time>
      </trkpt>
      <trkpt lat="48.4997" lon="-2.89697">
        <ele>180.6</ele>
        <time>2025-10-12T08:25:10Z</time>
      </trkpt>
      <trkpt lat="48.49913" lon="-2.89689">
        <ele>181</ele>
        <time>2025-10-12T08:25:18Z</time>
      </trkpt>
      <trkpt lat="48.49866" lon="-2.89683">
        <ele>181.6</ele>
        <time>2025-10-12T08:25:26Z</time>
      </trkpt>
      <trkpt lat="48.49831" lon="-2.89671">
        <ele>182.2</ele>
        <time>2025-10-12T08:25:32Z</time>
      </trkpt>
      <trkpt lat="48.4979" lon="-2.89644">
        <ele>183.8</ele>
        <time>2025-10-12T08:25:40Z</time>
      </trkpt>
      <trkpt lat="48.49753" lon="-2.89619">
        <ele>185.6</ele>
        <time>2025-10-12T08:25:49Z</time>
      </trkpt>
      <trkpt lat="48.49717" lon="-2.89596">
        <ele>187</ele>
        <time>2025-10-12T08:25:57Z</time>
      </trkpt>
      <trkpt lat="48.49681" lon="-2.89572">
        <ele>188.8</ele>
        <time>2025-10-12T08:26:05Z</time>
      </trkpt>
      <trkpt lat="48.49647" lon="-2.89548">
        <ele>190.4</ele>
        <time>2025-10-12T08:26:13Z</time>
      </trkpt>
      <trkpt lat="48.49614" lon="-2.89526">
        <ele>192</ele>
        <time>2025-10-12T08:26:21Z</time>
      </trkpt>
      <trkpt lat="48.49581" lon="-2.89503">
        <ele>193.4</ele>
        <time>2025-10-12T08:26:29Z</time>
      </trkpt>
      <trkpt lat="48.4955" lon="-2.8948">
        <ele>195.2</ele>
        <time>2025-10-12T08:26:37Z</time>
      </trkpt>
      <trkpt lat="48.49535" lon="-2.89475">
        <ele>195.8</ele>
        <time>2025-10-12T08:26:40Z</time>
      </trkpt>
      <trkpt lat="48.49522" lon="-2.89477">
        <ele>196.4</ele>
        <time>2025-10-12T08:26:43Z</time>
      </trkpt>
      <trkpt lat="48.49514" lon="-2.89486">
        <ele>196.6</ele>
        <time>2025-10-12T08:26:45Z</time>
      </trkpt>
      <trkpt lat="48.49506" lon="-2.89506">
        <ele>196.8</ele>
        <time>2025-10-12T08:26:48Z</time>
      </trkpt>
      <trkpt lat="48.49488" lon="-2.89574">
        <ele>196.8</ele>
        <time>2025-10-12T08:26:56Z</time>
      </trkpt>
      <trkpt lat="48.49468" lon="-2.89639">
        <ele>197.2</ele>
        <time>2025-10-12T08:27:04Z</time>
      </trkpt>
      <trkpt lat="48.49449" lon="-2.89703">
        <ele>198.4</ele>
        <time>2025-10-12T08:27:12Z</time>
      </trkpt>
      <trkpt lat="48.49438" lon="-2.89732">
        <ele>199.6</ele>
        <time>2025-10-12T08:27:18Z</time>
      </trkpt>
      <trkpt lat="48.49436" lon="-2.89734">
        <ele>200</ele>
        <time>2025-10-12T08:27:23Z</time>
      </trkpt>
      <trkpt lat="48.49431" lon="-2.89734">
        <ele>200.4</ele>
        <time>2025-10-12T08:27:30Z</time>
      </trkpt>
      <trkpt lat="48.49414" lon="-2.89707">
        <ele>201.4</ele>
        <time>2025-10-12T08:27:38Z</time>
      </trkpt>
      <trkpt lat="48.49386" lon="-2.89664">
        <ele>202.4</ele>
        <time>2025-10-12T08:27:46Z</time>
      </trkpt>
      <trkpt lat="48.49358" lon="-2.89625">
        <ele>203</ele>
        <time>2025-10-12T08:27:54Z</time>
      </trkpt>
      <trkpt lat="48.49335" lon="-2.896">
        <ele>203.4</ele>
        <time>2025-10-12T08:27:59Z</time>
      </trkpt>
      <trkpt lat="48.49315" lon="-2.89585">
        <ele>203.8</ele>
        <time>2025-10-12T08:28:03Z</time>
      </trkpt>
      <trkpt lat="48.49288" lon="-2.89576">
        <ele>204</ele>
        <time>2025-10-12T08:28:08Z</time>
      </trkpt>
      <trkpt lat="48.49237" lon="-2.89567">
        <ele>203</ele>
        <time>2025-10-12T08:28:16Z</time>
      </trkpt>
      <trkpt lat="48.49205" lon="-2.89564">
        <ele>202.4</ele>
        <time>2025-10-12T08:28:21Z</time>
      </trkpt>
      <trkpt lat="48.49172" lon="-2.89549">
        <ele>201.4</ele>
        <time>2025-10-12T08:28:25Z</time>
      </trkpt>
      <trkpt lat="48.49152" lon="-2.89531">
        <ele>200.6</ele>
        <time>2025-10-12T08:28:28Z</time>
      </trkpt>
      <trkpt lat="48.49103" lon="-2.8947">
        <ele>199.6</ele>
        <time>2025-10-12T08:28:36Z</time>
      </trkpt>
      <trkpt lat="48.49073" lon="-2.89448">
        <ele>199.6</ele>
        <time>2025-10-12T08:28:41Z</time>
      </trkpt>
      <trkpt lat="48.4903" lon="-2.89422">
        <ele>200.6</ele>
        <time>2025-10-12T08:28:48Z</time>
      </trkpt>
      <trkpt lat="48.48989" lon="-2.89392">
        <ele>202.4</ele>
        <time>2025-10-12T08:28:56Z</time>
      </trkpt>
      <trkpt lat="48.48944" lon="-2.89363">
        <ele>203.8</ele>
        <time>2025-10-12T08:29:04Z</time>
      </trkpt>
      <trkpt lat="48.48916" lon="-2.89351">
        <ele>203.8</ele>
        <time>2025-10-12T08:29:09Z</time>
      </trkpt>
      <trkpt lat="48.48881" lon="-2.89347">
        <ele>203.4</ele>
        <time>2025-10-12T08:29:14Z</time>
      </trkpt>
      <trkpt lat="48.48846" lon="-2.89354">
        <ele>202.4</ele>
        <time>2025-10-12T08:29:19Z</time>
      </trkpt>
      <trkpt lat="48.48788" lon="-2.89373">
        <ele>200.8</ele>
        <time>2025-10-12T08:29:27Z</time>
      </trkpt>
      <trkpt lat="48.48736" lon="-2.89386">
        <ele>199.8</ele>
        <time>2025-10-12T08:29:35Z</time>
      </trkpt>
      <trkpt lat="48.48681" lon="-2.89403">
        <ele>198.8</ele>
        <time>2025-10-12T08:29:43Z</time>
      </trkpt>
      <trkpt lat="48.48633" lon="-2.89414">
        <ele>198</ele>
        <time>2025-10-12T08:29:50Z</time>
      </trkpt>
      <trkpt lat="48.48561" lon="-2.89438">
        <ele>196.8</ele>
        <time>2025-10-12T08:29:58Z</time>
      </trkpt>
      <trkpt lat="48.48499" lon="-2.89469">
        <ele>195.6</ele>
        <time>2025-10-12T08:30:06Z</time>
      </trkpt>
      <trkpt lat="48.48446" lon="-2.895">
        <ele>195.2</ele>
        <time>2025-10-12T08:30:14Z</time>
      </trkpt>
      <trkpt lat="48.48417" lon="-2.89512">
        <ele>195.2</ele>
        <time>2025-10-12T08:30:18Z</time>
      </trkpt>
      <trkpt lat="48.48389" lon="-2.89516">
        <ele>195.2</ele>
        <time>2025-10-12T08:30:22Z</time>
      </trkpt>
      <trkpt lat="48.48356" lon="-2.8951">
        <ele>195.4</ele>
        <time>2025-10-12T08:30:27Z</time>
      </trkpt>
      <trkpt lat="48.48309" lon="-2.89488">
        <ele>195.6</ele>
        <time>2025-10-12T08:30:36Z</time>
      </trkpt>
      <trkpt lat="48.48262" lon="-2.8946">
        <ele>196.2</ele>
        <time>2025-10-12T08:30:44Z</time>
      </trkpt>
      <trkpt lat="48.48234" lon="-2.89448">
        <ele>196.8</ele>
        <time>2025-10-12T08:30:49Z</time>
      </trkpt>
      <trkpt lat="48.48209" lon="-2.89445">
        <ele>196.8</ele>
        <time>2025-10-12T08:30:53Z</time>
      </trkpt>
      <trkpt lat="48.48178" lon="-2.89452">
        <ele>197</ele>
        <time>2025-10-12T08:30:58Z</time>
      </trkpt>
      <trkpt lat="48.48129" lon="-2.89469">
        <ele>197</ele>
        <time>2025-10-12T08:31:06Z</time>
      </trkpt>
      <trkpt lat="48.48083" lon="-2.89486">
        <ele>197.6</ele>
        <time>2025-10-12T08:31:14Z</time>
      </trkpt>
      <trkpt lat="48.48035" lon="-2.89501">
        <ele>198.4</ele>
        <time>2025-10-12T08:31:22Z</time>
      </trkpt>
      <trkpt lat="48.47993" lon="-2.89514">
        <ele>200</ele>
        <time>2025-10-12T08:31:30Z</time>
      </trkpt>
      <trkpt lat="48.4794" lon="-2.89519">
        <ele>200.2</ele>
        <time>2025-10-12T08:31:38Z</time>
      </trkpt>
      <trkpt lat="48.47891" lon="-2.89524">
        <ele>199.8</ele>
        <time>2025-10-12T08:31:46Z</time>
      </trkpt>
      <trkpt lat="48.47835" lon="-2.89528">
        <ele>199.2</ele>
        <time>2025-10-12T08:31:54Z</time>
      </trkpt>
      <trkpt lat="48.47783" lon="-2.89532">
        <ele>198.8</ele>
        <time>2025-10-12T08:32:02Z</time>
      </trkpt>
      <trkpt lat="48.4773" lon="-2.89535">
        <ele>198.4</ele>
        <time>2025-10-12T08:32:10Z</time>
      </trkpt>
      <trkpt lat="48.47678" lon="-2.8953">
        <ele>198.2</ele>
        <time>2025-10-12T08:32:18Z</time>
      </trkpt>
      <trkpt lat="48.47641" lon="-2.89517">
        <ele>197.8</ele>
        <time>2025-10-12T08:32:24Z</time>
      </trkpt>
      <trkpt lat="48.47596" lon="-2.89494">
        <ele>197</ele>
        <time>2025-10-12T08:32:30Z</time>
      </trkpt>
      <trkpt lat="48.47555" lon="-2.89462">
        <ele>195.4</ele>
        <time>2025-10-12T08:32:37Z</time>
      </trkpt>
      <trkpt lat="48.47489" lon="-2.89404">
        <ele>191.2</ele>
        <time>2025-10-12T08:32:45Z</time>
      </trkpt>
      <trkpt lat="48.47452" lon="-2.89372">
        <ele>188.4</ele>
        <time>2025-10-12T08:32:49Z</time>
      </trkpt>
      <trkpt lat="48.47443" lon="-2.89364">
        <ele>187.6</ele>
        <time>2025-10-12T08:32:50Z</time>
      </trkpt>
      <trkpt lat="48.47433" lon="-2.89355">
        <ele>186.8</ele>
        <time>2025-10-12T08:32:51Z</time>
      </trkpt>
      <trkpt lat="48.47416" lon="-2.8934">
        <ele>185.4</ele>
        <time>2025-10-12T08:32:53Z</time>
      </trkpt>
      <trkpt lat="48.47405" lon="-2.89329">
        <ele>185</ele>
        <time>2025-10-12T08:32:54Z</time>
      </trkpt>
      <trkpt lat="48.47394" lon="-2.89318">
        <ele>184.2</ele>
        <time>2025-10-12T08:32:55Z</time>
      </trkpt>
      <trkpt lat="48.47384" lon="-2.89306">
        <ele>183.4</ele>
        <time>2025-10-12T08:32:56Z</time>
      </trkpt>
      <trkpt lat="48.47375" lon="-2.89294">
        <ele>182.4</ele>
        <time>2025-10-12T08:32:57Z</time>
      </trkpt>
      <trkpt lat="48.47365" lon="-2.89282">
        <ele>181.4</ele>
        <time>2025-10-12T08:32:59Z</time>
      </trkpt>
      <trkpt lat="48.47356" lon="-2.89269">
        <ele>180.4</ele>
        <time>2025-10-12T08:33:00Z</time>
      </trkpt>
      <trkpt lat="48.4734" lon="-2.89248">
        <ele>178.6</ele>
        <time>2025-10-12T08:33:02Z</time>
      </trkpt>
      <trkpt lat="48.47329" lon="-2.89233">
        <ele>177.8</ele>
        <time>2025-10-12T08:33:03Z</time>
      </trkpt>
      <trkpt lat="48.47299" lon="-2.89192">
        <ele>175.4</ele>
        <time>2025-10-12T08:33:06Z</time>
      </trkpt>
      <trkpt lat="48.47277" lon="-2.89151">
        <ele>174.2</ele>
        <time>2025-10-12T08:33:09Z</time>
      </trkpt>
      <trkpt lat="48.47239" lon="-2.89065">
        <ele>175.6</ele>
        <time>2025-10-12T08:33:17Z</time>
      </trkpt>
      <trkpt lat="48.47214" lon="-2.89006">
        <ele>177.8</ele>
        <time>2025-10-12T08:33:25Z</time>
      </trkpt>
      <trkpt lat="48.47188" lon="-2.88954">
        <ele>179.4</ele>
        <time>2025-10-12T08:33:33Z</time>
      </trkpt>
      <trkpt lat="48.47168" lon="-2.88905">
        <ele>180.6</ele>
        <time>2025-10-12T08:33:40Z</time>
      </trkpt>
      <trkpt lat="48.47152" lon="-2.88857">
        <ele>182</ele>
        <time>2025-10-12T08:33:47Z</time>
      </trkpt>
      <trkpt lat="48.47138" lon="-2.88792">
        <ele>182.8</ele>
        <time>2025-10-12T08:33:55Z</time>
      </trkpt>
      <trkpt lat="48.47121" lon="-2.88722">
        <ele>182.2</ele>
        <time>2025-10-12T08:34:03Z</time>
      </trkpt>
      <trkpt lat="48.47103" lon="-2.88652">
        <ele>181.6</ele>
        <time>2025-10-12T08:34:11Z</time>
      </trkpt>
      <trkpt lat="48.47092" lon="-2.88618">
        <ele>181.2</ele>
        <time>2025-10-12T08:34:15Z</time>
      </trkpt>
      <trkpt lat="48.47077" lon="-2.88592">
        <ele>180.8</ele>
        <time>2025-10-12T08:34:19Z</time>
      </trkpt>
      <trkpt lat="48.47056" lon="-2.88568">
        <ele>180.2</ele>
        <time>2025-10-12T08:34:23Z</time>
      </trkpt>
      <trkpt lat="48.47026" lon="-2.88539">
        <ele>179.2</ele>
        <time>2025-10-12T08:34:29Z</time>
      </trkpt>
      <trkpt lat="48.47021" lon="-2.88529">
        <ele>178.8</ele>
        <time>2025-10-12T08:34:31Z</time>
      </trkpt>
      <trkpt lat="48.47018" lon="-2.88503">
        <ele>177.4</ele>
        <time>2025-10-12T08:34:36Z</time>
      </trkpt>
      <trkpt lat="48.47004" lon="-2.88439">
        <ele>174.2</ele>
        <time>2025-10-12T08:34:44Z</time>
      </trkpt>
      <trkpt lat="48.46993" lon="-2.88407">
        <ele>172.6</ele>
        <time>2025-10-12T08:34:49Z</time>
      </trkpt>
      <trkpt lat="48.46981" lon="-2.88394">
        <ele>171.6</ele>
        <time>2025-10-12T08:34:52Z</time>
      </trkpt>
      <trkpt lat="48.46958" lon="-2.88372">
        <ele>170.4</ele>
        <time>2025-10-12T08:34:56Z</time>
      </trkpt>
      <trkpt lat="48.4694" lon="-2.8835">
        <ele>169.2</ele>
        <time>2025-10-12T08:34:59Z</time>
      </trkpt>
      <trkpt lat="48.46933" lon="-2.88333">
        <ele>168.2</ele>
        <time>2025-10-12T08:35:01Z</time>
      </trkpt>
      <trkpt lat="48.46933" lon="-2.88324">
        <ele>167.8</ele>
        <time>2025-10-12T08:35:02Z</time>
      </trkpt>
      <trkpt lat="48.46938" lon="-2.88306">
        <ele>167.2</ele>
        <time>2025-10-12T08:35:04Z</time>
      </trkpt>
      <trkpt lat="48.46956" lon="-2.88281">
        <ele>165.6</ele>
        <time>2025-10-12T08:35:07Z</time>
      </trkpt>
      <trkpt lat="48.46972" lon="-2.88267">
        <ele>164.2</ele>
        <time>2025-10-12T08:35:09Z</time>
      </trkpt>
      <trkpt lat="48.46989" lon="-2.88263">
        <ele>163.2</ele>
        <time>2025-10-12T08:35:11Z</time>
      </trkpt>
      <trkpt lat="48.47017" lon="-2.88264">
        <ele>162.6</ele>
        <time>2025-10-12T08:35:15Z</time>
      </trkpt>
      <trkpt lat="48.47026" lon="-2.88256">
        <ele>162.6</ele>
        <time>2025-10-12T08:35:17Z</time>
      </trkpt>
      <trkpt lat="48.47034" lon="-2.88233">
        <ele>162.6</ele>
        <time>2025-10-12T08:35:20Z</time>
      </trkpt>
      <trkpt lat="48.47046" lon="-2.88185">
        <ele>163.6</ele>
        <time>2025-10-12T08:35:27Z</time>
      </trkpt>
      <trkpt lat="48.47061" lon="-2.88136">
        <ele>165.6</ele>
        <time>2025-10-12T08:35:34Z</time>
      </trkpt>
      <trkpt lat="48.47071" lon="-2.88081">
        <ele>167</ele>
        <time>2025-10-12T08:35:42Z</time>
      </trkpt>
      <trkpt lat="48.47086" lon="-2.88028">
        <ele>168.6</ele>
        <time>2025-10-12T08:35:50Z</time>
      </trkpt>
      <trkpt lat="48.47106" lon="-2.87979">
        <ele>170.2</ele>
        <time>2025-10-12T08:35:58Z</time>
      </trkpt>
      <trkpt lat="48.47126" lon="-2.87933">
        <ele>172</ele>
        <time>2025-10-12T08:36:06Z</time>
      </trkpt>
      <trkpt lat="48.47146" lon="-2.87887">
        <ele>173.6</ele>
        <time>2025-10-12T08:36:14Z</time>
      </trkpt>
      <trkpt lat="48.47165" lon="-2.87843">
        <ele>175.2</ele>
        <time>2025-10-12T08:36:22Z</time>
      </trkpt>
      <trkpt lat="48.47183" lon="-2.87802">
        <ele>177</ele>
        <time>2025-10-12T08:36:30Z</time>
      </trkpt>
      <trkpt lat="48.47201" lon="-2.87761">
        <ele>178.6</ele>
        <time>2025-10-12T08:36:38Z</time>
      </trkpt>
      <trkpt lat="48.47219" lon="-2.8772">
        <ele>180.2</ele>
        <time>2025-10-12T08:36:46Z</time>
      </trkpt>
      <trkpt lat="48.47236" lon="-2.8768">
        <ele>181.6</ele>
        <time>2025-10-12T08:36:54Z</time>
      </trkpt>
      <trkpt lat="48.47254" lon="-2.8764">
        <ele>182.8</ele>
        <time>2025-10-12T08:37:02Z</time>
      </trkpt>
      <trkpt lat="48.47271" lon="-2.87601">
        <ele>184.2</ele>
        <time>2025-10-12T08:37:10Z</time>
      </trkpt>
      <trkpt lat="48.47288" lon="-2.87559">
        <ele>185.6</ele>
        <time>2025-10-12T08:37:18Z</time>
      </trkpt>
      <trkpt lat="48.47306" lon="-2.87519">
        <ele>187.2</ele>
        <time>2025-10-12T08:37:26Z</time>
      </trkpt>
      <trkpt lat="48.47324" lon="-2.87483">
        <ele>188.4</ele>
        <time>2025-10-12T08:37:34Z</time>
      </trkpt>
      <trkpt lat="48.47342" lon="-2.8745">
        <ele>189.8</ele>
        <time>2025-10-12T08:37:42Z</time>
      </trkpt>
      <trkpt lat="48.47362" lon="-2.87411">
        <ele>191.2</ele>
        <time>2025-10-12T08:37:50Z</time>
      </trkpt>
      <trkpt lat="48.4738" lon="-2.87374">
        <ele>192.6</ele>
        <time>2025-10-12T08:37:59Z</time>
      </trkpt>
      <trkpt lat="48.47396" lon="-2.87326">
        <ele>193.4</ele>
        <time>2025-10-12T08:38:07Z</time>
      </trkpt>
      <trkpt lat="48.47401" lon="-2.87316">
        <ele>193.6</ele>
        <time>2025-10-12T08:38:09Z</time>
      </trkpt>
      <trkpt lat="48.4741" lon="-2.87312">
        <ele>193.4</ele>
        <time>2025-10-12T08:38:11Z</time>
      </trkpt>
      <trkpt lat="48.47446" lon="-2.87324">
        <ele>193.6</ele>
        <time>2025-10-12T08:38:18Z</time>
      </trkpt>
      <trkpt lat="48.47495" lon="-2.87331">
        <ele>193</ele>
        <time>2025-10-12T08:38:26Z</time>
      </trkpt>
      <trkpt lat="48.47537" lon="-2.87343">
        <ele>192.8</ele>
        <time>2025-10-12T08:38:33Z</time>
      </trkpt>
      <trkpt lat="48.47571" lon="-2.8736">
        <ele>192.8</ele>
        <time>2025-10-12T08:38:39Z</time>
      </trkpt>
      <trkpt lat="48.47615" lon="-2.87389">
        <ele>193</ele>
        <time>2025-10-12T08:38:47Z</time>
      </trkpt>
      <trkpt lat="48.47658" lon="-2.87415">
        <ele>193.6</ele>
        <time>2025-10-12T08:38:55Z</time>
      </trkpt>
      <trkpt lat="48.477" lon="-2.87433">
        <ele>194.4</ele>
        <time>2025-10-12T08:39:03Z</time>
      </trkpt>
      <trkpt lat="48.47745" lon="-2.87439">
        <ele>195.2</ele>
        <time>2025-10-12T08:39:11Z</time>
      </trkpt>
      <trkpt lat="48.47786" lon="-2.87441">
        <ele>196</ele>
        <time>2025-10-12T08:39:19Z</time>
      </trkpt>
      <trkpt lat="48.47831" lon="-2.87444">
        <ele>196.6</ele>
        <time>2025-10-12T08:39:27Z</time>
      </trkpt>
      <trkpt lat="48.47867" lon="-2.87455">
        <ele>197.2</ele>
        <time>2025-10-12T08:39:34Z</time>
      </trkpt>
      <trkpt lat="48.47916" lon="-2.87481">
        <ele>197.6</ele>
        <time>2025-10-12T08:39:42Z</time>
      </trkpt>
      <trkpt lat="48.4796" lon="-2.8751">
        <ele>197.2</ele>
        <time>2025-10-12T08:39:50Z</time>
      </trkpt>
      <trkpt lat="48.48007" lon="-2.87535">
        <ele>196.6</ele>
        <time>2025-10-12T08:39:58Z</time>
      </trkpt>
      <trkpt lat="48.48055" lon="-2.87556">
        <ele>196.2</ele>
        <time>2025-10-12T08:40:06Z</time>
      </trkpt>
      <trkpt lat="48.48072" lon="-2.8756">
        <ele>196.6</ele>
        <time>2025-10-12T08:40:09Z</time>
      </trkpt>
      <trkpt lat="48.48089" lon="-2.87557">
        <ele>196.6</ele>
        <time>2025-10-12T08:40:12Z</time>
      </trkpt>
      <trkpt lat="48.48131" lon="-2.8753">
        <ele>196.6</ele>
        <time>2025-10-12T08:40:21Z</time>
      </trkpt>
      <trkpt lat="48.48157" lon="-2.87525">
        <ele>196.4</ele>
        <time>2025-10-12T08:40:25Z</time>
      </trkpt>
      <trkpt lat="48.48185" lon="-2.87525">
        <ele>196.4</ele>
        <time>2025-10-12T08:40:30Z</time>
      </trkpt>
      <trkpt lat="48.48211" lon="-2.87533">
        <ele>196.4</ele>
        <time>2025-10-12T08:40:34Z</time>
      </trkpt>
      <trkpt lat="48.48242" lon="-2.87553">
        <ele>196</ele>
        <time>2025-10-12T08:40:39Z</time>
      </trkpt>
      <trkpt lat="48.48277" lon="-2.87587">
        <ele>195</ele>
        <time>2025-10-12T08:40:46Z</time>
      </trkpt>
      <trkpt lat="48.48304" lon="-2.87613">
        <ele>194.2</ele>
        <time>2025-10-12T08:40:51Z</time>
      </trkpt>
      <trkpt lat="48.48342" lon="-2.87637">
        <ele>193.4</ele>
        <time>2025-10-12T08:40:57Z</time>
      </trkpt>
      <trkpt lat="48.48377" lon="-2.87649">
        <ele>192.6</ele>
        <time>2025-10-12T08:41:02Z</time>
      </trkpt>
      <trkpt lat="48.48411" lon="-2.87651">
        <ele>191.4</ele>
        <time>2025-10-12T08:41:07Z</time>
      </trkpt>
      <trkpt lat="48.48444" lon="-2.87646">
        <ele>190.6</ele>
        <time>2025-10-12T08:41:11Z</time>
      </trkpt>
      <trkpt lat="48.48489" lon="-2.87629">
        <ele>189.4</ele>
        <time>2025-10-12T08:41:17Z</time>
      </trkpt>
      <trkpt lat="48.48523" lon="-2.87605">
        <ele>188.2</ele>
        <time>2025-10-12T08:41:22Z</time>
      </trkpt>
      <trkpt lat="48.4855" lon="-2.87579">
        <ele>187</ele>
        <time>2025-10-12T08:41:26Z</time>
      </trkpt>
      <trkpt lat="48.486" lon="-2.87508">
        <ele>183.8</ele>
        <time>2025-10-12T08:41:34Z</time>
      </trkpt>
      <trkpt lat="48.48645" lon="-2.87452">
        <ele>180.4</ele>
        <time>2025-10-12T08:41:40Z</time>
      </trkpt>
      <trkpt lat="48.4867" lon="-2.87428">
        <ele>178.8</ele>
        <time>2025-10-12T08:41:43Z</time>
      </trkpt>
      <trkpt lat="48.48712" lon="-2.87403">
        <ele>176.6</ele>
        <time>2025-10-12T08:41:48Z</time>
      </trkpt>
      <trkpt lat="48.48786" lon="-2.87363">
        <ele>171</ele>
        <time>2025-10-12T08:41:56Z</time>
      </trkpt>
      <trkpt lat="48.48883" lon="-2.87306">
        <ele>164.6</ele>
        <time>2025-10-12T08:42:04Z</time>
      </trkpt>
      <trkpt lat="48.48914" lon="-2.87293">
        <ele>162.6</ele>
        <time>2025-10-12T08:42:07Z</time>
      </trkpt>
      <trkpt lat="48.4893" lon="-2.87292">
        <ele>161</ele>
        <time>2025-10-12T08:42:09Z</time>
      </trkpt>
      <trkpt lat="48.48956" lon="-2.873">
        <ele>159.6</ele>
        <time>2025-10-12T08:42:11Z</time>
      </trkpt>
      <trkpt lat="48.48977" lon="-2.87315">
        <ele>158.6</ele>
        <time>2025-10-12T08:42:13Z</time>
      </trkpt>
      <trkpt lat="48.48992" lon="-2.87334">
        <ele>158.4</ele>
        <time>2025-10-12T08:42:15Z</time>
      </trkpt>
      <trkpt lat="48.49005" lon="-2.87364">
        <ele>159</ele>
        <time>2025-10-12T08:42:18Z</time>
      </trkpt>
      <trkpt lat="48.4902" lon="-2.87424">
        <ele>162.4</ele>
        <time>2025-10-12T08:42:26Z</time>
      </trkpt>
      <trkpt lat="48.49034" lon="-2.87468">
        <ele>165.4</ele>
        <time>2025-10-12T08:42:35Z</time>
      </trkpt>
      <trkpt lat="48.49047" lon="-2.87514">
        <ele>167.6</ele>
        <time>2025-10-12T08:42:43Z</time>
      </trkpt>
      <trkpt lat="48.49062" lon="-2.87545">
        <ele>169</ele>
        <time>2025-10-12T08:42:49Z</time>
      </trkpt>
      <trkpt lat="48.49088" lon="-2.87586">
        <ele>170.4</ele>
        <time>2025-10-12T08:42:57Z</time>
      </trkpt>
      <trkpt lat="48.49118" lon="-2.87623">
        <ele>171.2</ele>
        <time>2025-10-12T08:43:05Z</time>
      </trkpt>
      <trkpt lat="48.49157" lon="-2.87657">
        <ele>172</ele>
        <time>2025-10-12T08:43:13Z</time>
      </trkpt>
      <trkpt lat="48.49201" lon="-2.87693">
        <ele>171.8</ele>
        <time>2025-10-12T08:43:21Z</time>
      </trkpt>
      <trkpt lat="48.49247" lon="-2.8773">
        <ele>170.6</ele>
        <time>2025-10-12T08:43:29Z</time>
      </trkpt>
      <trkpt lat="48.49289" lon="-2.87764">
        <ele>168.6</ele>
        <time>2025-10-12T08:43:35Z</time>
      </trkpt>
      <trkpt lat="48.49313" lon="-2.87776">
        <ele>167.4</ele>
        <time>2025-10-12T08:43:38Z</time>
      </trkpt>
      <trkpt lat="48.49369" lon="-2.87788">
        <ele>166.6</ele>
        <time>2025-10-12T08:43:45Z</time>
      </trkpt>
      <trkpt lat="48.49411" lon="-2.87812">
        <ele>169</ele>
        <time>2025-10-12T08:43:53Z</time>
      </trkpt>
      <trkpt lat="48.49445" lon="-2.87841">
        <ele>171.2</ele>
        <time>2025-10-12T08:44:01Z</time>
      </trkpt>
      <trkpt lat="48.49485" lon="-2.87876">
        <ele>171.6</ele>
        <time>2025-10-12T08:44:09Z</time>
      </trkpt>
      <trkpt lat="48.49532" lon="-2.87907">
        <ele>171</ele>
        <time>2025-10-12T08:44:17Z</time>
      </trkpt>
      <trkpt lat="48.49569" lon="-2.87933">
        <ele>170</ele>
        <time>2025-10-12T08:44:22Z</time>
      </trkpt>
      <trkpt lat="48.49586" lon="-2.87939">
        <ele>169.4</ele>
        <time>2025-10-12T08:44:24Z</time>
      </trkpt>
      <trkpt lat="48.49598" lon="-2.87941">
        <ele>168.6</ele>
        <time>2025-10-12T08:44:26Z</time>
      </trkpt>
      <trkpt lat="48.49634" lon="-2.87926">
        <ele>167</ele>
        <time>2025-10-12T08:44:30Z</time>
      </trkpt>
      <trkpt lat="48.4966" lon="-2.87907">
        <ele>165.6</ele>
        <time>2025-10-12T08:44:33Z</time>
      </trkpt>
      <trkpt lat="48.49686" lon="-2.87871">
        <ele>164</ele>
        <time>2025-10-12T08:44:37Z</time>
      </trkpt>
      <trkpt lat="48.49718" lon="-2.87823">
        <ele>161.6</ele>
        <time>2025-10-12T08:44:43Z</time>
      </trkpt>
      <trkpt lat="48.49724" lon="-2.87817">
        <ele>161</ele>
        <time>2025-10-12T08:44:45Z</time>
      </trkpt>
      <trkpt lat="48.49732" lon="-2.87825">
        <ele>160.2</ele>
        <time>2025-10-12T08:44:52Z</time>
      </trkpt>
      <trkpt lat="48.49736" lon="-2.87837">
        <ele>160.4</ele>
        <time>2025-10-12T08:44:56Z</time>
      </trkpt>
      <trkpt lat="48.49745" lon="-2.8788">
        <ele>160.8</ele>
        <time>2025-10-12T08:45:04Z</time>
      </trkpt>
      <trkpt lat="48.4976" lon="-2.87949">
        <ele>161.2</ele>
        <time>2025-10-12T08:45:12Z</time>
      </trkpt>
      <trkpt lat="48.49772" lon="-2.87992">
        <ele>161.4</ele>
        <time>2025-10-12T08:45:17Z</time>
      </trkpt>
      <trkpt lat="48.49783" lon="-2.88015">
        <ele>161.4</ele>
        <time>2025-10-12T08:45:20Z</time>
      </trkpt>
      <trkpt lat="48.49801" lon="-2.88039">
        <ele>161.4</ele>
        <time>2025-10-12T08:45:24Z</time>
      </trkpt>
      <trkpt lat="48.49819" lon="-2.88053">
        <ele>161.4</ele>
        <time>2025-10-12T08:45:27Z</time>
      </trkpt>
      <trkpt lat="48.49842" lon="-2.88061">
        <ele>161.2</ele>
        <time>2025-10-12T08:45:31Z</time>
      </trkpt>
      <trkpt lat="48.49895" lon="-2.88066">
        <ele>161.2</ele>
        <time>2025-10-12T08:45:39Z</time>
      </trkpt>
      <trkpt lat="48.49942" lon="-2.88075">
        <ele>161</ele>
        <time>2025-10-12T08:45:47Z</time>
      </trkpt>
      <trkpt lat="48.49993" lon="-2.88093">
        <ele>160.8</ele>
        <time>2025-10-12T08:45:55Z</time>
      </trkpt>
      <trkpt lat="48.50041" lon="-2.88118">
        <ele>160.6</ele>
        <time>2025-10-12T08:46:03Z</time>
      </trkpt>
      <trkpt lat="48.50089" lon="-2.88139">
        <ele>160.2</ele>
        <time>2025-10-12T08:46:11Z</time>
      </trkpt>
      <trkpt lat="48.50127" lon="-2.8815">
        <ele>160</ele>
        <time>2025-10-12T08:46:17Z</time>
      </trkpt>
      <trkpt lat="48.50162" lon="-2.88156">
        <ele>159.6</ele>
        <time>2025-10-12T08:46:23Z</time>
      </trkpt>
      <trkpt lat="48.5019" lon="-2.8817">
        <ele>159.2</ele>
        <time>2025-10-12T08:46:28Z</time>
      </trkpt>
      <trkpt lat="48.50219" lon="-2.88195">
        <ele>158.4</ele>
        <time>2025-10-12T08:46:32Z</time>
      </trkpt>
      <trkpt lat="48.50254" lon="-2.88228">
        <ele>156.4</ele>
        <time>2025-10-12T08:46:37Z</time>
      </trkpt>
      <trkpt lat="48.5027" lon="-2.88238">
        <ele>155.4</ele>
        <time>2025-10-12T08:46:39Z</time>
      </trkpt>
      <trkpt lat="48.50306" lon="-2.88248">
        <ele>154.6</ele>
        <time>2025-10-12T08:46:42Z</time>
      </trkpt>
      <trkpt lat="48.50338" lon="-2.8825">
        <ele>155</ele>
        <time>2025-10-12T08:46:46Z</time>
      </trkpt>
      <trkpt lat="48.50361" lon="-2.8826">
        <ele>156</ele>
        <time>2025-10-12T08:46:50Z</time>
      </trkpt>
      <trkpt lat="48.50404" lon="-2.88286">
        <ele>157.4</ele>
        <time>2025-10-12T08:46:58Z</time>
      </trkpt>
      <trkpt lat="48.50452" lon="-2.88311">
        <ele>157.4</ele>
        <time>2025-10-12T08:47:06Z</time>
      </trkpt>
      <trkpt lat="48.505" lon="-2.88337">
        <ele>157</ele>
        <time>2025-10-12T08:47:15Z</time>
      </trkpt>
      <trkpt lat="48.50548" lon="-2.88361">
        <ele>156.6</ele>
        <time>2025-10-12T08:47:23Z</time>
      </trkpt>
      <trkpt lat="48.50592" lon="-2.88386">
        <ele>157.4</ele>
        <time>2025-10-12T08:47:31Z</time>
      </trkpt>
      <trkpt lat="48.50632" lon="-2.88406">
        <ele>159.4</ele>
        <time>2025-10-12T08:47:39Z</time>
      </trkpt>
      <trkpt lat="48.50638" lon="-2.88412">
        <ele>159.8</ele>
        <time>2025-10-12T08:47:41Z</time>
      </trkpt>
      <trkpt lat="48.50667" lon="-2.88462">
        <ele>158.4</ele>
        <time>2025-10-12T08:47:47Z</time>
      </trkpt>
      <trkpt lat="48.50673" lon="-2.88482">
        <ele>157.6</ele>
        <time>2025-10-12T08:47:49Z</time>
      </trkpt>
      <trkpt lat="48.50689" lon="-2.88582">
        <ele>157</ele>
        <time>2025-10-12T08:47:57Z</time>
      </trkpt>
      <trkpt lat="48.50703" lon="-2.88655">
        <ele>158</ele>
        <time>2025-10-12T08:48:05Z</time>
      </trkpt>
      <trkpt lat="48.50717" lon="-2.88722">
        <ele>159.2</ele>
        <time>2025-10-12T08:48:13Z</time>
      </trkpt>
      <trkpt lat="48.50734" lon="-2.88784">
        <ele>160.4</ele>
        <time>2025-10-12T08:48:21Z</time>
      </trkpt>
      <trkpt lat="48.50749" lon="-2.88845">
        <ele>162.2</ele>
        <time>2025-10-12T08:48:29Z</time>
      </trkpt>
      <trkpt lat="48.50763" lon="-2.88908">
        <ele>163.6</ele>
        <time>2025-10-12T08:48:37Z</time>
      </trkpt>
      <trkpt lat="48.50777" lon="-2.88967">
        <ele>165.2</ele>
        <time>2025-10-12T08:48:45Z</time>
      </trkpt>
      <trkpt lat="48.50792" lon="-2.89034">
        <ele>166.2</ele>
        <time>2025-10-12T08:48:53Z</time>
      </trkpt>
      <trkpt lat="48.50807" lon="-2.89101">
        <ele>167.8</ele>
        <time>2025-10-12T08:49:01Z</time>
      </trkpt>
      <trkpt lat="48.50823" lon="-2.89168">
        <ele>168.8</ele>
        <time>2025-10-12T08:49:09Z</time>
      </trkpt>
      <trkpt lat="48.50838" lon="-2.8923">
        <ele>169.4</ele>
        <time>2025-10-12T08:49:17Z</time>
      </trkpt>
      <trkpt lat="48.50855" lon="-2.893">
        <ele>169.8</ele>
        <time>2025-10-12T08:49:25Z</time>
      </trkpt>
      <trkpt lat="48.50874" lon="-2.8937">
        <ele>169.8</ele>
        <time>2025-10-12T08:49:33Z</time>
      </trkpt>
      <trkpt lat="48.50892" lon="-2.89441">
        <ele>168.6</ele>
        <time>2025-10-12T08:49:42Z</time>
      </trkpt>
      <trkpt lat="48.509" lon="-2.89485">
        <ele>167.6</ele>
        <time>2025-10-12T08:49:48Z</time>
      </trkpt>
      <trkpt lat="48.50917" lon="-2.89547">
        <ele>168</ele>
        <time>2025-10-12T08:49:56Z</time>
      </trkpt>
      <trkpt lat="48.50934" lon="-2.8962">
        <ele>167.8</ele>
        <time>2025-10-12T08:50:04Z</time>
      </trkpt>
      <trkpt lat="48.50953" lon="-2.89692">
        <ele>167</ele>
        <time>2025-10-12T08:50:12Z</time>
      </trkpt>
      <trkpt lat="48.50975" lon="-2.89775">
        <ele>165.4</ele>
        <time>2025-10-12T08:50:20Z</time>
      </trkpt>
      <trkpt lat="48.50983" lon="-2.89824">
        <ele>164.4</ele>
        <time>2025-10-12T08:50:24Z</time>
      </trkpt>
      <trkpt lat="48.50994" lon="-2.89931">
        <ele>162.2</ele>
        <time>2025-10-12T08:50:32Z</time>
      </trkpt>
      <trkpt lat="48.51" lon="-2.90014">
        <ele>160.4</ele>
        <time>2025-10-12T08:50:38Z</time>
      </trkpt>
      <trkpt lat="48.51007" lon="-2.90139">
        <ele>156.2</ele>
        <time>2025-10-12T08:50:46Z</time>
      </trkpt>
      <trkpt lat="48.51011" lon="-2.90221">
        <ele>153.6</ele>
        <time>2025-10-12T08:50:51Z</time>
      </trkpt>
      <trkpt lat="48.51009" lon="-2.90269">
        <ele>152.4</ele>
        <time>2025-10-12T08:50:54Z</time>
      </trkpt>
      <trkpt lat="48.51" lon="-2.90314">
        <ele>151.6</ele>
        <time>2025-10-12T08:50:57Z</time>
      </trkpt>
      <trkpt lat="48.50984" lon="-2.90369">
        <ele>150.8</ele>
        <time>2025-10-12T08:51:01Z</time>
      </trkpt>
      <trkpt lat="48.50969" lon="-2.90401">
        <ele>150.2</ele>
        <time>2025-10-12T08:51:04Z</time>
      </trkpt>
      <trkpt lat="48.50927" lon="-2.90475">
        <ele>150.4</ele>
        <time>2025-10-12T08:51:11Z</time>
      </trkpt>
      <trkpt lat="48.5091" lon="-2.90518">
        <ele>152</ele>
        <time>2025-10-12T08:51:16Z</time>
      </trkpt>
      <trkpt lat="48.50895" lon="-2.90575">
        <ele>154.8</ele>
        <time>2025-10-12T08:51:24Z</time>
      </trkpt>
      <trkpt lat="48.50879" lon="-2.90638">
        <ele>157</ele>
        <time>2025-10-12T08:51:32Z</time>
      </trkpt>
      <trkpt lat="48.50865" lon="-2.90699">
        <ele>158.2</ele>
        <time>2025-10-12T08:51:40Z</time>
      </trkpt>
      <trkpt lat="48.50858" lon="-2.90748">
        <ele>158</ele>
        <time>2025-10-12T08:51:45Z</time>
      </trkpt>
      <trkpt lat="48.5085" lon="-2.90832">
        <ele>156.8</ele>
        <time>2025-10-12T08:51:53Z</time>
      </trkpt>
      <trkpt lat="48.50844" lon="-2.90909">
        <ele>156.8</ele>
        <time>2025-10-12T08:52:02Z</time>
      </trkpt>
      <trkpt lat="48.50839" lon="-2.90973">
        <ele>156.4</ele>
        <time>2025-10-12T08:52:09Z</time>
      </trkpt>
      <trkpt lat="48.50842" lon="-2.91051">
        <ele>157</ele>
        <time>2025-10-12T08:52:17Z</time>
      </trkpt>
      <trkpt lat="48.50848" lon="-2.91116">
        <ele>158.8</ele>
        <time>2025-10-12T08:52:25Z</time>
      </trkpt>
      <trkpt lat="48.50854" lon="-2.91195">
        <ele>158</ele>
        <time>2025-10-12T08:52:33Z</time>
      </trkpt>
      <trkpt lat="48.50856" lon="-2.91246">
        <ele>157.8</ele>
        <time>2025-10-12T08:52:38Z</time>
      </trkpt>
      <trkpt lat="48.50852" lon="-2.91287">
        <ele>158</ele>
        <time>2025-10-12T08:52:42Z</time>
      </trkpt>
      <trkpt lat="48.50845" lon="-2.9131">
        <ele>158.6</ele>
        <time>2025-10-12T08:52:45Z</time>
      </trkpt>
      <trkpt lat="48.50829" lon="-2.91341">
        <ele>160</ele>
        <time>2025-10-12T08:52:50Z</time>
      </trkpt>
      <trkpt lat="48.50806" lon="-2.91374">
        <ele>162.2</ele>
        <time>2025-10-12T08:52:57Z</time>
      </trkpt>
      <trkpt lat="48.50788" lon="-2.91411">
        <ele>165</ele>
        <time>2025-10-12T08:53:05Z</time>
      </trkpt>
      <trkpt lat="48.50773" lon="-2.91448">
        <ele>167.6</ele>
        <time>2025-10-12T08:53:13Z</time>
      </trkpt>
      <trkpt lat="48.50757" lon="-2.9149">
        <ele>170.2</ele>
        <time>2025-10-12T08:53:21Z</time>
      </trkpt>
      <trkpt lat="48.50752" lon="-2.91509">
        <ele>170.4</ele>
        <time>2025-10-12T08:53:24Z</time>
      </trkpt>
      <trkpt lat="48.50754" lon="-2.91524">
        <ele>170.4</ele>
        <time>2025-10-12T08:53:26Z</time>
      </trkpt>
      <trkpt lat="48.50762" lon="-2.91535">
        <ele>170.2</ele>
        <time>2025-10-12T08:53:28Z</time>
      </trkpt>
      <trkpt lat="48.50776" lon="-2.91542">
        <ele>169.6</ele>
        <time>2025-10-12T08:53:30Z</time>
      </trkpt>
      <trkpt lat="48.50802" lon="-2.91544">
        <ele>168.4</ele>
        <time>2025-10-12T08:53:34Z</time>
      </trkpt>
      <trkpt lat="48.5081" lon="-2.91552">
        <ele>168</ele>
        <time>2025-10-12T08:53:36Z</time>
      </trkpt>
      <trkpt lat="48.50814" lon="-2.91568">
        <ele>167.4</ele>
        <time>2025-10-12T08:53:38Z</time>
      </trkpt>
      <trkpt lat="48.5082" lon="-2.91613">
        <ele>165.2</ele>
        <time>2025-10-12T08:53:42Z</time>
      </trkpt>
      <trkpt lat="48.50832" lon="-2.91667">
        <ele>162.2</ele>
        <time>2025-10-12T08:53:46Z</time>
      </trkpt>
      <trkpt lat="48.50836" lon="-2.91714">
        <ele>160</ele>
        <time>2025-10-12T08:53:49Z</time>
      </trkpt>
      <trkpt lat="48.50836" lon="-2.91801">
        <ele>156.8</ele>
        <time>2025-10-12T08:53:53Z</time>
      </trkpt>
      <trkpt lat="48.50843" lon="-2.9185">
        <ele>155</ele>
        <time>2025-10-12T08:53:56Z</time>
      </trkpt>
      <trkpt lat="48.50866" lon="-2.91973">
        <ele>151.2</ele>
        <time>2025-10-12T08:54:04Z</time>
      </trkpt>
      <trkpt lat="48.50884" lon="-2.92081">
        <ele>149.6</ele>
        <time>2025-10-12T08:54:12Z</time>
      </trkpt>
      <trkpt lat="48.50897" lon="-2.92184">
        <ele>148.4</ele>
        <time>2025-10-12T08:54:20Z</time>
      </trkpt>
      <trkpt lat="48.50907" lon="-2.92273">
        <ele>148.2</ele>
        <time>2025-10-12T08:54:29Z</time>
      </trkpt>
      <trkpt lat="48.50914" lon="-2.92351">
        <ele>148.6</ele>
        <time>2025-10-12T08:54:37Z</time>
      </trkpt>
      <trkpt lat="48.50921" lon="-2.92425">
        <ele>149.2</ele>
        <time>2025-10-12T08:54:45Z</time>
      </trkpt>
      <trkpt lat="48.50927" lon="-2.92495">
        <ele>150</ele>
        <time>2025-10-12T08:54:53Z</time>
      </trkpt>
      <trkpt lat="48.50935" lon="-2.92567">
        <ele>150.8</ele>
        <time>2025-10-12T08:55:01Z</time>
      </trkpt>
      <trkpt lat="48.50941" lon="-2.92637">
        <ele>152</ele>
        <time>2025-10-12T08:55:09Z</time>
      </trkpt>
      <trkpt lat="48.50943" lon="-2.92707">
        <ele>153.4</ele>
        <time>2025-10-12T08:55:17Z</time>
      </trkpt>
      <trkpt lat="48.50943" lon="-2.92771">
        <ele>153.8</ele>
        <time>2025-10-12T08:55:24Z</time>
      </trkpt>
      <trkpt lat="48.5095" lon="-2.92831">
        <ele>153</ele>
        <time>2025-10-12T08:55:30Z</time>
      </trkpt>
      <trkpt lat="48.50967" lon="-2.9292">
        <ele>151.4</ele>
        <time>2025-10-12T08:55:38Z</time>
      </trkpt>
      <trkpt lat="48.50985" lon="-2.93008">
        <ele>150.8</ele>
        <time>2025-10-12T08:55:46Z</time>
      </trkpt>
      <trkpt lat="48.51005" lon="-2.93087">
        <ele>151.4</ele>
        <time>2025-10-12T08:55:54Z</time>
      </trkpt>
      <trkpt lat="48.51018" lon="-2.93158">
        <ele>151.8</ele>
        <time>2025-10-12T08:56:02Z</time>
      </trkpt>
      <trkpt lat="48.51025" lon="-2.93194">
        <ele>152.2</ele>
        <time>2025-10-12T08:56:06Z</time>
      </trkpt>
      <trkpt lat="48.51046" lon="-2.93249">
        <ele>152.8</ele>
        <time>2025-10-12T08:56:13Z</time>
      </trkpt>
      <trkpt lat="48.51064" lon="-2.93327">
        <ele>153.6</ele>
        <time>2025-10-12T08:56:21Z</time>
      </trkpt>
      <trkpt lat="48.51081" lon="-2.93392">
        <ele>154</ele>
        <time>2025-10-12T08:56:29Z</time>
      </trkpt>
      <trkpt lat="48.51105" lon="-2.93468">
        <ele>153.6</ele>
        <time>2025-10-12T08:56:37Z</time>
      </trkpt>
      <trkpt lat="48.51127" lon="-2.93546">
        <ele>153</ele>
        <time>2025-10-12T08:56:45Z</time>
      </trkpt>
      <trkpt lat="48.51149" lon="-2.93614">
        <ele>153</ele>
        <time>2025-10-12T08:56:54Z</time>
      </trkpt>
      <trkpt lat="48.51157" lon="-2.93633">
        <ele>153</ele>
        <time>2025-10-12T08:56:56Z</time>
      </trkpt>
      <trkpt lat="48.51184" lon="-2.93689">
        <ele>153.2</ele>
        <time>2025-10-12T08:57:03Z</time>
      </trkpt>
      <trkpt lat="48.51207" lon="-2.93738">
        <ele>152.8</ele>
        <time>2025-10-12T08:57:09Z</time>
      </trkpt>
      <trkpt lat="48.51215" lon="-2.93769">
        <ele>152.2</ele>
        <time>2025-10-12T08:57:12Z</time>
      </trkpt>
      <trkpt lat="48.51225" lon="-2.93859">
        <ele>151.2</ele>
        <time>2025-10-12T08:57:20Z</time>
      </trkpt>
      <trkpt lat="48.5123" lon="-2.9391">
        <ele>150.2</ele>
        <time>2025-10-12T08:57:25Z</time>
      </trkpt>
      <trkpt lat="48.51229" lon="-2.9395">
        <ele>148.4</ele>
        <time>2025-10-12T08:57:29Z</time>
      </trkpt>
      <trkpt lat="48.51221" lon="-2.94027">
        <ele>146.6</ele>
        <time>2025-10-12T08:57:33Z</time>
      </trkpt>
      <trkpt lat="48.51209" lon="-2.94079">
        <ele>144</ele>
        <time>2025-10-12T08:57:37Z</time>
      </trkpt>
      <trkpt lat="48.51195" lon="-2.94133">
        <ele>141.4</ele>
        <time>2025-10-12T08:57:40Z</time>
      </trkpt>
      <trkpt lat="48.5119" lon="-2.94171">
        <ele>139.6</ele>
        <time>2025-10-12T08:57:42Z</time>
      </trkpt>
      <trkpt lat="48.5119" lon="-2.94209">
        <ele>137.8</ele>
        <time>2025-10-12T08:57:44Z</time>
      </trkpt>
      <trkpt lat="48.51196" lon="-2.94246">
        <ele>136.8</ele>
        <time>2025-10-12T08:57:46Z</time>
      </trkpt>
      <trkpt lat="48.51216" lon="-2.94321">
        <ele>136.8</ele>
        <time>2025-10-12T08:57:51Z</time>
      </trkpt>
      <trkpt lat="48.5123" lon="-2.94355">
        <ele>137</ele>
        <time>2025-10-12T08:57:54Z</time>
      </trkpt>
      <trkpt lat="48.51262" lon="-2.94409">
        <ele>136.8</ele>
        <time>2025-10-12T08:58:00Z</time>
      </trkpt>
      <trkpt lat="48.51293" lon="-2.94489">
        <ele>135.8</ele>
        <time>2025-10-12T08:58:07Z</time>
      </trkpt>
      <trkpt lat="48.51317" lon="-2.94556">
        <ele>134.2</ele>
        <time>2025-10-12T08:58:12Z</time>
      </trkpt>
      <trkpt lat="48.51324" lon="-2.94598">
        <ele>132.8</ele>
        <time>2025-10-12T08:58:15Z</time>
      </trkpt>
      <trkpt lat="48.51334" lon="-2.94714">
        <ele>130</ele>
        <time>2025-10-12T08:58:23Z</time>
      </trkpt>
      <trkpt lat="48.51343" lon="-2.94754">
        <ele>129.4</ele>
        <time>2025-10-12T08:58:26Z</time>
      </trkpt>
      <trkpt lat="48.51358" lon="-2.94797">
        <ele>128.8</ele>
        <time>2025-10-12T08:58:30Z</time>
      </trkpt>
      <trkpt lat="48.51396" lon="-2.94871">
        <ele>128</ele>
        <time>2025-10-12T08:58:37Z</time>
      </trkpt>
      <trkpt lat="48.51435" lon="-2.94942">
        <ele>126.6</ele>
        <time>2025-10-12T08:58:43Z</time>
      </trkpt>
      <trkpt lat="48.51453" lon="-2.9497">
        <ele>125.4</ele>
        <time>2025-10-12T08:58:46Z</time>
      </trkpt>
      <trkpt lat="48.51461" lon="-2.94994">
        <ele>124.6</ele>
        <time>2025-10-12T08:58:48Z</time>
      </trkpt>
      <trkpt lat="48.51463" lon="-2.95022">
        <ele>123.6</ele>
        <time>2025-10-12T08:58:50Z</time>
      </trkpt>
      <trkpt lat="48.51458" lon="-2.95068">
        <ele>122</ele>
        <time>2025-10-12T08:58:53Z</time>
      </trkpt>
      <trkpt lat="48.51445" lon="-2.95146">
        <ele>118.8</ele>
        <time>2025-10-12T08:58:58Z</time>
      </trkpt>
      <trkpt lat="48.51444" lon="-2.9518">
        <ele>117.2</ele>
        <time>2025-10-12T08:59:00Z</time>
      </trkpt>
      <trkpt lat="48.5145" lon="-2.95256">
        <ele>115.6</ele>
        <time>2025-10-12T08:59:05Z</time>
      </trkpt>
      <trkpt lat="48.51448" lon="-2.953">
        <ele>115</ele>
        <time>2025-10-12T08:59:08Z</time>
      </trkpt>
      <trkpt lat="48.51432" lon="-2.95409">
        <ele>114.4</ele>
        <time>2025-10-12T08:59:17Z</time>
      </trkpt>
      <trkpt lat="48.51423" lon="-2.95472">
        <ele>114.4</ele>
        <time>2025-10-12T08:59:22Z</time>
      </trkpt>
      <trkpt lat="48.51414" lon="-2.95505">
        <ele>114.4</ele>
        <time>2025-10-12T08:59:25Z</time>
      </trkpt>
      <trkpt lat="48.51389" lon="-2.95575">
        <ele>114.6</ele>
        <time>2025-10-12T08:59:32Z</time>
      </trkpt>
      <trkpt lat="48.51374" lon="-2.95625">
        <ele>115</ele>
        <time>2025-10-12T08:59:37Z</time>
      </trkpt>
      <trkpt lat="48.51369" lon="-2.95665">
        <ele>115.4</ele>
        <time>2025-10-12T08:59:41Z</time>
      </trkpt>
      <trkpt lat="48.51367" lon="-2.95727">
        <ele>116.4</ele>
        <time>2025-10-12T08:59:48Z</time>
      </trkpt>
      <trkpt lat="48.51362" lon="-2.95757">
        <ele>116.6</ele>
        <time>2025-10-12T08:59:51Z</time>
      </trkpt>
      <trkpt lat="48.51347" lon="-2.95799">
        <ele>117</ele>
        <time>2025-10-12T08:59:56Z</time>
      </trkpt>
      <trkpt lat="48.51321" lon="-2.95863">
        <ele>117.4</ele>
        <time>2025-10-12T09:00:04Z</time>
      </trkpt>
      <trkpt lat="48.51297" lon="-2.95928">
        <ele>117.4</ele>
        <time>2025-10-12T09:00:12Z</time>
      </trkpt>
      <trkpt lat="48.51277" lon="-2.95982">
        <ele>117.8</ele>
        <time>2025-10-12T09:00:19Z</time>
      </trkpt>
      <trkpt lat="48.51267" lon="-2.9602">
        <ele>118</ele>
        <time>2025-10-12T09:00:25Z</time>
      </trkpt>
      <trkpt lat="48.51267" lon="-2.96024">
        <ele>118.2</ele>
        <time>2025-10-12T09:00:30Z</time>
      </trkpt>
      <trkpt lat="48.51261" lon="-2.96054">
        <ele>118.6</ele>
        <time>2025-10-12T09:01:10Z</time>
      </trkpt>
      <trkpt lat="48.51259" lon="-2.96083">
        <ele>119.6</ele>
        <time>2025-10-12T09:01:18Z</time>
      </trkpt>
      <trkpt lat="48.51256" lon="-2.96098">
        <ele>120.2</ele>
        <time>2025-10-12T09:01:23Z</time>
      </trkpt>
      <trkpt lat="48.51258" lon="-2.96145">
        <ele>121.8</ele>
        <time>2025-10-12T09:01:31Z</time>
      </trkpt>
      <trkpt lat="48.51262" lon="-2.96183">
        <ele>123.4</ele>
        <time>2025-10-12T09:01:39Z</time>
      </trkpt>
      <trkpt lat="48.51272" lon="-2.96226">
        <ele>125.4</ele>
        <time>2025-10-12T09:01:47Z</time>
      </trkpt>
      <trkpt lat="48.51282" lon="-2.9627">
        <ele>127.6</ele>
        <time>2025-10-12T09:01:55Z</time>
      </trkpt>
      <trkpt lat="48.5129" lon="-2.96318">
        <ele>128.8</ele>
        <time>2025-10-12T09:02:03Z</time>
      </trkpt>
      <trkpt lat="48.51297" lon="-2.96389">
        <ele>128.4</ele>
        <time>2025-10-12T09:02:11Z</time>
      </trkpt>
      <trkpt lat="48.51298" lon="-2.96445">
        <ele>128</ele>
        <time>2025-10-12T09:02:17Z</time>
      </trkpt>
      <trkpt lat="48.51292" lon="-2.96491">
        <ele>128</ele>
        <time>2025-10-12T09:02:22Z</time>
      </trkpt>
      <trkpt lat="48.51276" lon="-2.96558">
        <ele>128.6</ele>
        <time>2025-10-12T09:02:30Z</time>
      </trkpt>
      <trkpt lat="48.5126" lon="-2.9662">
        <ele>129.6</ele>
        <time>2025-10-12T09:02:38Z</time>
      </trkpt>
      <trkpt lat="48.51244" lon="-2.96685">
        <ele>130.4</ele>
        <time>2025-10-12T09:02:46Z</time>
      </trkpt>
      <trkpt lat="48.5123" lon="-2.96754">
        <ele>130.8</ele>
        <time>2025-10-12T09:02:54Z</time>
      </trkpt>
      <trkpt lat="48.51216" lon="-2.96828">
        <ele>130.6</ele>
        <time>2025-10-12T09:03:02Z</time>
      </trkpt>
      <trkpt lat="48.51209" lon="-2.969">
        <ele>130.4</ele>
        <time>2025-10-12T09:03:10Z</time>
      </trkpt>
      <trkpt lat="48.51202" lon="-2.96975">
        <ele>130.6</ele>
        <time>2025-10-12T09:03:18Z</time>
      </trkpt>
      <trkpt lat="48.51194" lon="-2.97056">
        <ele>131</ele>
        <time>2025-10-12T09:03:26Z</time>
      </trkpt>
      <trkpt lat="48.51183" lon="-2.9713">
        <ele>132</ele>
        <time>2025-10-12T09:03:34Z</time>
      </trkpt>
      <trkpt lat="48.51172" lon="-2.97198">
        <ele>133.2</ele>
        <time>2025-10-12T09:03:42Z</time>
      </trkpt>
      <trkpt lat="48.51162" lon="-2.97263">
        <ele>134.8</ele>
        <time>2025-10-12T09:03:50Z</time>
      </trkpt>
      <trkpt lat="48.51152" lon="-2.97328">
        <ele>136.6</ele>
        <time>2025-10-12T09:03:59Z</time>
      </trkpt>
      <trkpt lat="48.51142" lon="-2.97392">
        <ele>138.4</ele>
        <time>2025-10-12T09:04:07Z</time>
      </trkpt>
      <trkpt lat="48.51134" lon="-2.97452">
        <ele>140.6</ele>
        <time>2025-10-12T09:04:15Z</time>
      </trkpt>
      <trkpt lat="48.5113" lon="-2.97495">
        <ele>143</ele>
        <time>2025-10-12T09:04:22Z</time>
      </trkpt>
      <trkpt lat="48.51132" lon="-2.97541">
        <ele>145.4</ele>
        <time>2025-10-12T09:04:30Z</time>
      </trkpt>
      <trkpt lat="48.51134" lon="-2.97578">
        <ele>147.4</ele>
        <time>2025-10-12T09:04:37Z</time>
      </trkpt>
      <trkpt lat="48.51139" lon="-2.9762">
        <ele>149.6</ele>
        <time>2025-10-12T09:04:45Z</time>
      </trkpt>
      <trkpt lat="48.51148" lon="-2.97662">
        <ele>151</ele>
        <time>2025-10-12T09:04:53Z</time>
      </trkpt>
      <trkpt lat="48.5116" lon="-2.97688">
        <ele>151.6</ele>
        <time>2025-10-12T09:04:58Z</time>
      </trkpt>
      <trkpt lat="48.51176" lon="-2.9771">
        <ele>152.2</ele>
        <time>2025-10-12T09:05:02Z</time>
      </trkpt>
      <trkpt lat="48.51211" lon="-2.97741">
        <ele>152.8</ele>
        <time>2025-10-12T09:05:10Z</time>
      </trkpt>
      <trkpt lat="48.51251" lon="-2.97774">
        <ele>152.6</ele>
        <time>2025-10-12T09:05:18Z</time>
      </trkpt>
      <trkpt lat="48.51269" lon="-2.97801">
        <ele>152</ele>
        <time>2025-10-12T09:05:22Z</time>
      </trkpt>
      <trkpt lat="48.5128" lon="-2.9783">
        <ele>151</ele>
        <time>2025-10-12T09:05:25Z</time>
      </trkpt>
      <trkpt lat="48.51283" lon="-2.97853">
        <ele>150.2</ele>
        <time>2025-10-12T09:05:27Z</time>
      </trkpt>
      <trkpt lat="48.51282" lon="-2.9789">
        <ele>149.4</ele>
        <time>2025-10-12T09:05:30Z</time>
      </trkpt>
      <trkpt lat="48.51272" lon="-2.97984">
        <ele>147.6</ele>
        <time>2025-10-12T09:05:38Z</time>
      </trkpt>
      <trkpt lat="48.51264" lon="-2.98005">
        <ele>147.2</ele>
        <time>2025-10-12T09:05:40Z</time>
      </trkpt>
      <trkpt lat="48.51252" lon="-2.98019">
        <ele>147.2</ele>
        <time>2025-10-12T09:05:42Z</time>
      </trkpt>
      <trkpt lat="48.51227" lon="-2.98042">
        <ele>147.2</ele>
        <time>2025-10-12T09:05:45Z</time>
      </trkpt>
      <trkpt lat="48.51217" lon="-2.98057">
        <ele>147.2</ele>
        <time>2025-10-12T09:05:47Z</time>
      </trkpt>
      <trkpt lat="48.51201" lon="-2.98096">
        <ele>146.2</ele>
        <time>2025-10-12T09:05:51Z</time>
      </trkpt>
      <trkpt lat="48.51189" lon="-2.98113">
        <ele>145.6</ele>
        <time>2025-10-12T09:05:53Z</time>
      </trkpt>
      <trkpt lat="48.51168" lon="-2.98137">
        <ele>144.8</ele>
        <time>2025-10-12T09:05:56Z</time>
      </trkpt>
      <trkpt lat="48.51158" lon="-2.98157">
        <ele>144.2</ele>
        <time>2025-10-12T09:05:58Z</time>
      </trkpt>
      <trkpt lat="48.51155" lon="-2.9818">
        <ele>144</ele>
        <time>2025-10-12T09:06:00Z</time>
      </trkpt>
      <trkpt lat="48.5116" lon="-2.98226">
        <ele>144</ele>
        <time>2025-10-12T09:06:04Z</time>
      </trkpt>
      <trkpt lat="48.51175" lon="-2.98304">
        <ele>144.6</ele>
        <time>2025-10-12T09:06:12Z</time>
      </trkpt>
      <trkpt lat="48.51186" lon="-2.98361">
        <ele>146.6</ele>
        <time>2025-10-12T09:06:20Z</time>
      </trkpt>
      <trkpt lat="48.51207" lon="-2.98413">
        <ele>147.6</ele>
        <time>2025-10-12T09:06:27Z</time>
      </trkpt>
      <trkpt lat="48.51211" lon="-2.9844">
        <ele>147.8</ele>
        <time>2025-10-12T09:06:30Z</time>
      </trkpt>
      <trkpt lat="48.51207" lon="-2.98476">
        <ele>148.4</ele>
        <time>2025-10-12T09:06:34Z</time>
      </trkpt>
      <trkpt lat="48.51197" lon="-2.98506">
        <ele>148.8</ele>
        <time>2025-10-12T09:06:38Z</time>
      </trkpt>
      <trkpt lat="48.51185" lon="-2.98528">
        <ele>149.2</ele>
        <time>2025-10-12T09:06:41Z</time>
      </trkpt>
      <trkpt lat="48.51152" lon="-2.98568">
        <ele>150.2</ele>
        <time>2025-10-12T09:06:48Z</time>
      </trkpt>
      <trkpt lat="48.51143" lon="-2.98591">
        <ele>150.6</ele>
        <time>2025-10-12T09:06:51Z</time>
      </trkpt>
      <trkpt lat="48.51133" lon="-2.98635">
        <ele>151.2</ele>
        <time>2025-10-12T09:06:56Z</time>
      </trkpt>
      <trkpt lat="48.5113" lon="-2.9869">
        <ele>151.8</ele>
        <time>2025-10-12T09:07:02Z</time>
      </trkpt>
      <trkpt lat="48.51133" lon="-2.98725">
        <ele>152.2</ele>
        <time>2025-10-12T09:07:06Z</time>
      </trkpt>
      <trkpt lat="48.51143" lon="-2.98768">
        <ele>152.6</ele>
        <time>2025-10-12T09:07:11Z</time>
      </trkpt>
      <trkpt lat="48.51159" lon="-2.98807">
        <ele>153</ele>
        <time>2025-10-12T09:07:16Z</time>
      </trkpt>
      <trkpt lat="48.51177" lon="-2.98834">
        <ele>153.2</ele>
        <time>2025-10-12T09:07:20Z</time>
      </trkpt>
      <trkpt lat="48.51198" lon="-2.98855">
        <ele>153.2</ele>
        <time>2025-10-12T09:07:24Z</time>
      </trkpt>
      <trkpt lat="48.51222" lon="-2.98871">
        <ele>153</ele>
        <time>2025-10-12T09:07:28Z</time>
      </trkpt>
      <trkpt lat="48.51249" lon="-2.9888">
        <ele>152.4</ele>
        <time>2025-10-12T09:07:32Z</time>
      </trkpt>
      <trkpt lat="48.51292" lon="-2.98883">
        <ele>151.4</ele>
        <time>2025-10-12T09:07:38Z</time>
      </trkpt>
      <trkpt lat="48.5135" lon="-2.98883">
        <ele>150.4</ele>
        <time>2025-10-12T09:07:46Z</time>
      </trkpt>
      <trkpt lat="48.51409" lon="-2.98886">
        <ele>149</ele>
        <time>2025-10-12T09:07:54Z</time>
      </trkpt>
      <trkpt lat="48.5147" lon="-2.98894">
        <ele>147.8</ele>
        <time>2025-10-12T09:08:02Z</time>
      </trkpt>
      <trkpt lat="48.51508" lon="-2.98908">
        <ele>147</ele>
        <time>2025-10-12T09:08:07Z</time>
      </trkpt>
      <trkpt lat="48.51573" lon="-2.98944">
        <ele>145.8</ele>
        <time>2025-10-12T09:08:15Z</time>
      </trkpt>
      <trkpt lat="48.51633" lon="-2.9897">
        <ele>144.4</ele>
        <time>2025-10-12T09:08:23Z</time>
      </trkpt>
      <trkpt lat="48.51694" lon="-2.98986">
        <ele>142.6</ele>
        <time>2025-10-12T09:08:31Z</time>
      </trkpt>
      <trkpt lat="48.51737" lon="-2.98998">
        <ele>141</ele>
        <time>2025-10-12T09:08:36Z</time>
      </trkpt>
      <trkpt lat="48.51805" lon="-2.99029">
        <ele>138.4</ele>
        <time>2025-10-12T09:08:44Z</time>
      </trkpt>
      <trkpt lat="48.5184" lon="-2.99042">
        <ele>137</ele>
        <time>2025-10-12T09:08:49Z</time>
      </trkpt>
      <trkpt lat="48.51905" lon="-2.99046">
        <ele>135</ele>
        <time>2025-10-12T09:08:57Z</time>
      </trkpt>
      <trkpt lat="48.51969" lon="-2.99053">
        <ele>134</ele>
        <time>2025-10-12T09:09:05Z</time>
      </trkpt>
      <trkpt lat="48.52033" lon="-2.99057">
        <ele>133</ele>
        <time>2025-10-12T09:09:13Z</time>
      </trkpt>
      <trkpt lat="48.52071" lon="-2.99058">
        <ele>132.2</ele>
        <time>2025-10-12T09:09:18Z</time>
      </trkpt>
      <trkpt lat="48.52109" lon="-2.99052">
        <ele>130.4</ele>
        <time>2025-10-12T09:09:23Z</time>
      </trkpt>
      <trkpt lat="48.5214" lon="-2.99055">
        <ele>129.4</ele>
        <time>2025-10-12T09:09:26Z</time>
      </trkpt>
      <trkpt lat="48.52166" lon="-2.99064">
        <ele>128.8</ele>
        <time>2025-10-12T09:09:29Z</time>
      </trkpt>
      <trkpt lat="48.52215" lon="-2.99092">
        <ele>130</ele>
        <time>2025-10-12T09:09:37Z</time>
      </trkpt>
      <trkpt lat="48.52257" lon="-2.99114">
        <ele>131.8</ele>
        <time>2025-10-12T09:09:45Z</time>
      </trkpt>
      <trkpt lat="48.5228" lon="-2.99127">
        <ele>132.6</ele>
        <time>2025-10-12T09:09:50Z</time>
      </trkpt>
      <trkpt lat="48.52284" lon="-2.99133">
        <ele>132.8</ele>
        <time>2025-10-12T09:09:53Z</time>
      </trkpt>
      <trkpt lat="48.52284" lon="-2.99142">
        <ele>132.8</ele>
        <time>2025-10-12T09:09:56Z</time>
      </trkpt>
      <trkpt lat="48.52253" lon="-2.99183">
        <ele>133.6</ele>
        <time>2025-10-12T09:10:04Z</time>
      </trkpt>
      <trkpt lat="48.52228" lon="-2.9923">
        <ele>134.4</ele>
        <time>2025-10-12T09:10:12Z</time>
      </trkpt>
      <trkpt lat="48.52202" lon="-2.99285">
        <ele>135.2</ele>
        <time>2025-10-12T09:10:20Z</time>
      </trkpt>
      <trkpt lat="48.52187" lon="-2.99308">
        <ele>135.8</ele>
        <time>2025-10-12T09:10:24Z</time>
      </trkpt>
      <trkpt lat="48.52163" lon="-2.99328">
        <ele>136.2</ele>
        <time>2025-10-12T09:10:29Z</time>
      </trkpt>
      <trkpt lat="48.52112" lon="-2.99353">
        <ele>136.6</ele>
        <time>2025-10-12T09:10:37Z</time>
      </trkpt>
      <trkpt lat="48.52069" lon="-2.99382">
        <ele>137</ele>
        <time>2025-10-12T09:10:45Z</time>
      </trkpt>
      <trkpt lat="48.52026" lon="-2.99412">
        <ele>137.6</ele>
        <time>2025-10-12T09:10:53Z</time>
      </trkpt>
      <trkpt lat="48.51984" lon="-2.99441">
        <ele>138</ele>
        <time>2025-10-12T09:11:01Z</time>
      </trkpt>
      <trkpt lat="48.51942" lon="-2.99469">
        <ele>138.6</ele>
        <time>2025-10-12T09:11:09Z</time>
      </trkpt>
      <trkpt lat="48.51899" lon="-2.99496">
        <ele>139</ele>
        <time>2025-10-12T09:11:18Z</time>
      </trkpt>
      <trkpt lat="48.51856" lon="-2.99521">
        <ele>139.8</ele>
        <time>2025-10-12T09:11:26Z</time>
      </trkpt>
      <trkpt lat="48.51811" lon="-2.99544">
        <ele>140.6</ele>
        <time>2025-10-12T09:11:34Z</time>
      </trkpt>
      <trkpt lat="48.51767" lon="-2.99562">
        <ele>141.4</ele>
        <time>2025-10-12T09:11:42Z</time>
      </trkpt>
      <trkpt lat="48.51734" lon="-2.99581">
        <ele>141.8</ele>
        <time>2025-10-12T09:11:48Z</time>
      </trkpt>
      <trkpt lat="48.51704" lon="-2.99608">
        <ele>142.4</ele>
        <time>2025-10-12T09:11:54Z</time>
      </trkpt>
      <trkpt lat="48.51673" lon="-2.99651">
        <ele>143.2</ele>
        <time>2025-10-12T09:12:02Z</time>
      </trkpt>
      <trkpt lat="48.51635" lon="-2.99697">
        <ele>144.4</ele>
        <time>2025-10-12T09:12:10Z</time>
      </trkpt>
      <trkpt lat="48.51602" lon="-2.99734">
        <ele>145.8</ele>
        <time>2025-10-12T09:12:18Z</time>
      </trkpt>
      <trkpt lat="48.5157" lon="-2.9977">
        <ele>147.6</ele>
        <time>2025-10-12T09:12:26Z</time>
      </trkpt>
      <trkpt lat="48.51542" lon="-2.99803">
        <ele>149</ele>
        <time>2025-10-12T09:12:34Z</time>
      </trkpt>
      <trkpt lat="48.51509" lon="-2.99842">
        <ele>150.2</ele>
        <time>2025-10-12T09:12:42Z</time>
      </trkpt>
      <trkpt lat="48.51476" lon="-2.9988">
        <ele>151.4</ele>
        <time>2025-10-12T09:12:50Z</time>
      </trkpt>
      <trkpt lat="48.51444" lon="-2.99917">
        <ele>152.8</ele>
        <time>2025-10-12T09:12:58Z</time>
      </trkpt>
      <trkpt lat="48.51424" lon="-2.99942">
        <ele>153.8</ele>
        <time>2025-10-12T09:13:03Z</time>
      </trkpt>
      <trkpt lat="48.51395" lon="-2.99987">
        <ele>155.6</ele>
        <time>2025-10-12T09:13:11Z</time>
      </trkpt>
      <trkpt lat="48.51371" lon="-3.0002">
        <ele>157.8</ele>
        <time>2025-10-12T09:13:19Z</time>
      </trkpt>
      <trkpt lat="48.51346" lon="-3.00051">
        <ele>160</ele>
        <time>2025-10-12T09:13:27Z</time>
      </trkpt>
      <trkpt lat="48.5132" lon="-3.00078">
        <ele>161.6</ele>
        <time>2025-10-12T09:13:35Z</time>
      </trkpt>
      <trkpt lat="48.51287" lon="-3.00109">
        <ele>162.2</ele>
        <time>2025-10-12T09:13:44Z</time>
      </trkpt>
      <trkpt lat="48.51261" lon="-3.00135">
        <ele>162.6</ele>
        <time>2025-10-12T09:13:50Z</time>
      </trkpt>
      <trkpt lat="48.51227" lon="-3.00176">
        <ele>163</ele>
        <time>2025-10-12T09:13:58Z</time>
      </trkpt>
      <trkpt lat="48.51193" lon="-3.00228">
        <ele>163.6</ele>
        <time>2025-10-12T09:14:06Z</time>
      </trkpt>
      <trkpt lat="48.51163" lon="-3.00274">
        <ele>164.8</ele>
        <time>2025-10-12T09:14:14Z</time>
      </trkpt>
      <trkpt lat="48.5114" lon="-3.00319">
        <ele>166.8</ele>
        <time>2025-10-12T09:14:22Z</time>
      </trkpt>
      <trkpt lat="48.51121" lon="-3.00366">
        <ele>169.2</ele>
        <time>2025-10-12T09:14:30Z</time>
      </trkpt>
      <trkpt lat="48.51105" lon="-3.00411">
        <ele>171.4</ele>
        <time>2025-10-12T09:14:38Z</time>
      </trkpt>
      <trkpt lat="48.51089" lon="-3.00452">
        <ele>173.4</ele>
        <time>2025-10-12T09:14:46Z</time>
      </trkpt>
      <trkpt lat="48.51066" lon="-3.00494">
        <ele>175.4</ele>
        <time>2025-10-12T09:14:54Z</time>
      </trkpt>
      <trkpt lat="48.51042" lon="-3.00531">
        <ele>178</ele>
        <time>2025-10-12T09:15:02Z</time>
      </trkpt>
      <trkpt lat="48.51016" lon="-3.00571">
        <ele>181</ele>
        <time>2025-10-12T09:15:10Z</time>
      </trkpt>
      <trkpt lat="48.50992" lon="-3.00608">
        <ele>184</ele>
        <time>2025-10-12T09:15:18Z</time>
      </trkpt>
      <trkpt lat="48.50969" lon="-3.00644">
        <ele>187.2</ele>
        <time>2025-10-12T09:15:26Z</time>
      </trkpt>
      <trkpt lat="48.50945" lon="-3.00684">
        <ele>190</ele>
        <time>2025-10-12T09:15:34Z</time>
      </trkpt>
      <trkpt lat="48.50923" lon="-3.0072">
        <ele>192.6</ele>
        <time>2025-10-12T09:15:42Z</time>
      </trkpt>
      <trkpt lat="48.50902" lon="-3.00757">
        <ele>194.8</ele>
        <time>2025-10-12T09:15:50Z</time>
      </trkpt>
      <trkpt lat="48.50875" lon="-3.00798">
        <ele>197</ele>
        <time>2025-10-12T09:15:58Z</time>
      </trkpt>
      <trkpt lat="48.50845" lon="-3.00836">
        <ele>199.2</ele>
        <time>2025-10-12T09:16:06Z</time>
      </trkpt>
      <trkpt lat="48.50815" lon="-3.00873">
        <ele>201.4</ele>
        <time>2025-10-12T09:16:15Z</time>
      </trkpt>
      <trkpt lat="48.50785" lon="-3.0091">
        <ele>203.8</ele>
        <time>2025-10-12T09:16:23Z</time>
      </trkpt>
      <trkpt lat="48.50753" lon="-3.0095">
        <ele>205.6</ele>
        <time>2025-10-12T09:16:31Z</time>
      </trkpt>
      <trkpt lat="48.50721" lon="-3.00991">
        <ele>206.6</ele>
        <time>2025-10-12T09:16:39Z</time>
      </trkpt>
      <trkpt lat="48.50688" lon="-3.01033">
        <ele>207.6</ele>
        <time>2025-10-12T09:16:47Z</time>
      </trkpt>
      <trkpt lat="48.50656" lon="-3.01079">
        <ele>208.8</ele>
        <time>2025-10-12T09:16:55Z</time>
      </trkpt>
      <trkpt lat="48.50629" lon="-3.01124">
        <ele>210.4</ele>
        <time>2025-10-12T09:17:03Z</time>
      </trkpt>
      <trkpt lat="48.50604" lon="-3.0117">
        <ele>212</ele>
        <time>2025-10-12T09:17:11Z</time>
      </trkpt>
      <trkpt lat="48.50579" lon="-3.01213">
        <ele>213.6</ele>
        <time>2025-10-12T09:17:19Z</time>
      </trkpt>
      <trkpt lat="48.50556" lon="-3.01259">
        <ele>215.2</ele>
        <time>2025-10-12T09:17:27Z</time>
      </trkpt>
      <trkpt lat="48.50533" lon="-3.01307">
        <ele>216.6</ele>
        <time>2025-10-12T09:17:35Z</time>
      </trkpt>
      <trkpt lat="48.50508" lon="-3.01366">
        <ele>217.2</ele>
        <time>2025-10-12T09:17:43Z</time>
      </trkpt>
      <trkpt lat="48.50495" lon="-3.01415">
        <ele>217.8</ele>
        <time>2025-10-12T09:17:50Z</time>
      </trkpt>
      <trkpt lat="48.50481" lon="-3.01477">
        <ele>218.2</ele>
        <time>2025-10-12T09:17:58Z</time>
      </trkpt>
      <trkpt lat="48.50464" lon="-3.01556">
        <ele>218.6</ele>
        <time>2025-10-12T09:18:06Z</time>
      </trkpt>
      <trkpt lat="48.50454" lon="-3.01623">
        <ele>219.4</ele>
        <time>2025-10-12T09:18:14Z</time>
      </trkpt>
      <trkpt lat="48.50446" lon="-3.01662">
        <ele>219.8</ele>
        <time>2025-10-12T09:18:19Z</time>
      </trkpt>
      <trkpt lat="48.50433" lon="-3.01687">
        <ele>219.8</ele>
        <time>2025-10-12T09:18:22Z</time>
      </trkpt>
      <trkpt lat="48.50418" lon="-3.01704">
        <ele>220.2</ele>
        <time>2025-10-12T09:18:25Z</time>
      </trkpt>
      <trkpt lat="48.50376" lon="-3.01735">
        <ele>221.4</ele>
        <time>2025-10-12T09:18:33Z</time>
      </trkpt>
      <trkpt lat="48.50352" lon="-3.0176">
        <ele>221.8</ele>
        <time>2025-10-12T09:18:38Z</time>
      </trkpt>
      <trkpt lat="48.50322" lon="-3.01805">
        <ele>221.8</ele>
        <time>2025-10-12T09:18:46Z</time>
      </trkpt>
      <trkpt lat="48.50292" lon="-3.0186">
        <ele>221.8</ele>
        <time>2025-10-12T09:18:54Z</time>
      </trkpt>
      <trkpt lat="48.50271" lon="-3.01911">
        <ele>222</ele>
        <time>2025-10-12T09:19:00Z</time>
      </trkpt>
      <trkpt lat="48.50251" lon="-3.01975">
        <ele>222.8</ele>
        <time>2025-10-12T09:19:08Z</time>
      </trkpt>
      <trkpt lat="48.50231" lon="-3.02041">
        <ele>223.6</ele>
        <time>2025-10-12T09:19:16Z</time>
      </trkpt>
      <trkpt lat="48.50211" lon="-3.02108">
        <ele>223.8</ele>
        <time>2025-10-12T09:19:24Z</time>
      </trkpt>
      <trkpt lat="48.50188" lon="-3.02174">
        <ele>224.2</ele>
        <time>2025-10-12T09:19:32Z</time>
      </trkpt>
      <trkpt lat="48.50159" lon="-3.02251">
        <ele>222.8</ele>
        <time>2025-10-12T09:19:40Z</time>
      </trkpt>
      <trkpt lat="48.5013" lon="-3.02334">
        <ele>222</ele>
        <time>2025-10-12T09:19:48Z</time>
      </trkpt>
      <trkpt lat="48.501" lon="-3.02412">
        <ele>221.8</ele>
        <time>2025-10-12T09:19:56Z</time>
      </trkpt>
      <trkpt lat="48.50067" lon="-3.02479">
        <ele>221.4</ele>
        <time>2025-10-12T09:20:04Z</time>
      </trkpt>
      <trkpt lat="48.50058" lon="-3.0251">
        <ele>221.4</ele>
        <time>2025-10-12T09:20:07Z</time>
      </trkpt>
      <trkpt lat="48.5005" lon="-3.02565">
        <ele>221.4</ele>
        <time>2025-10-12T09:20:13Z</time>
      </trkpt>
      <trkpt lat="48.50041" lon="-3.02639">
        <ele>221.4</ele>
        <time>2025-10-12T09:20:21Z</time>
      </trkpt>
      <trkpt lat="48.50026" lon="-3.02709">
        <ele>221.2</ele>
        <time>2025-10-12T09:20:29Z</time>
      </trkpt>
      <trkpt lat="48.50009" lon="-3.02775">
        <ele>221</ele>
        <time>2025-10-12T09:20:36Z</time>
      </trkpt>
      <trkpt lat="48.49999" lon="-3.02855">
        <ele>221.4</ele>
        <time>2025-10-12T09:20:44Z</time>
      </trkpt>
      <trkpt lat="48.49988" lon="-3.02927">
        <ele>222.2</ele>
        <time>2025-10-12T09:20:52Z</time>
      </trkpt>
      <trkpt lat="48.49982" lon="-3.02977">
        <ele>222.4</ele>
        <time>2025-10-12T09:20:58Z</time>
      </trkpt>
      <trkpt lat="48.49984" lon="-3.02986">
        <ele>222.4</ele>
        <time>2025-10-12T09:21:00Z</time>
      </trkpt>
      <trkpt lat="48.49992" lon="-3.02989">
        <ele>222.6</ele>
        <time>2025-10-12T09:21:02Z</time>
      </trkpt>
      <trkpt lat="48.50027" lon="-3.02982">
        <ele>223</ele>
        <time>2025-10-12T09:21:10Z</time>
      </trkpt>
      <trkpt lat="48.50071" lon="-3.02974">
        <ele>223.6</ele>
        <time>2025-10-12T09:21:19Z</time>
      </trkpt>
      <trkpt lat="48.5012" lon="-3.02964">
        <ele>223.6</ele>
        <time>2025-10-12T09:21:27Z</time>
      </trkpt>
      <trkpt lat="48.50165" lon="-3.02949">
        <ele>223.6</ele>
        <time>2025-10-12T09:21:35Z</time>
      </trkpt>
      <trkpt lat="48.50217" lon="-3.02934">
        <ele>223.4</ele>
        <time>2025-10-12T09:21:43Z</time>
      </trkpt>
      <trkpt lat="48.50267" lon="-3.02931">
        <ele>223.4</ele>
        <time>2025-10-12T09:21:51Z</time>
      </trkpt>
      <trkpt lat="48.50319" lon="-3.02929">
        <ele>222.6</ele>
        <time>2025-10-12T09:21:59Z</time>
      </trkpt>
      <trkpt lat="48.50375" lon="-3.02929">
        <ele>221.4</ele>
        <time>2025-10-12T09:22:07Z</time>
      </trkpt>
      <trkpt lat="48.50437" lon="-3.02929">
        <ele>220.2</ele>
        <time>2025-10-12T09:22:15Z</time>
      </trkpt>
      <trkpt lat="48.50498" lon="-3.02929">
        <ele>219</ele>
        <time>2025-10-12T09:22:23Z</time>
      </trkpt>
      <trkpt lat="48.50551" lon="-3.02926">
        <ele>218.2</ele>
        <time>2025-10-12T09:22:30Z</time>
      </trkpt>
      <trkpt lat="48.50612" lon="-3.02924">
        <ele>217.4</ele>
        <time>2025-10-12T09:22:38Z</time>
      </trkpt>
      <trkpt lat="48.50658" lon="-3.02926">
        <ele>216.2</ele>
        <time>2025-10-12T09:22:44Z</time>
      </trkpt>
      <trkpt lat="48.50712" lon="-3.02942">
        <ele>216.2</ele>
        <time>2025-10-12T09:22:52Z</time>
      </trkpt>
      <trkpt lat="48.50764" lon="-3.02955">
        <ele>217</ele>
        <time>2025-10-12T09:23:00Z</time>
      </trkpt>
      <trkpt lat="48.50818" lon="-3.02966">
        <ele>217.6</ele>
        <time>2025-10-12T09:23:08Z</time>
      </trkpt>
      <trkpt lat="48.50843" lon="-3.02975">
        <ele>218</ele>
        <time>2025-10-12T09:23:12Z</time>
      </trkpt>
      <trkpt lat="48.50886" lon="-3.03009">
        <ele>218.2</ele>
        <time>2025-10-12T09:23:20Z</time>
      </trkpt>
      <trkpt lat="48.50932" lon="-3.03041">
        <ele>217.6</ele>
        <time>2025-10-12T09:23:27Z</time>
      </trkpt>
      <trkpt lat="48.50988" lon="-3.03068">
        <ele>216.6</ele>
        <time>2025-10-12T09:23:35Z</time>
      </trkpt>
      <trkpt lat="48.51039" lon="-3.03093">
        <ele>215.6</ele>
        <time>2025-10-12T09:23:44Z</time>
      </trkpt>
      <trkpt lat="48.51078" lon="-3.03107">
        <ele>214.6</ele>
        <time>2025-10-12T09:23:49Z</time>
      </trkpt>
      <trkpt lat="48.51136" lon="-3.03115">
        <ele>212.2</ele>
        <time>2025-10-12T09:23:56Z</time>
      </trkpt>
      <trkpt lat="48.5121" lon="-3.03114">
        <ele>209.2</ele>
        <time>2025-10-12T09:24:04Z</time>
      </trkpt>
      <trkpt lat="48.51288" lon="-3.03109">
        <ele>207</ele>
        <time>2025-10-12T09:24:12Z</time>
      </trkpt>
      <trkpt lat="48.51345" lon="-3.03108">
        <ele>205.6</ele>
        <time>2025-10-12T09:24:18Z</time>
      </trkpt>
      <trkpt lat="48.51418" lon="-3.03094">
        <ele>203.6</ele>
        <time>2025-10-12T09:24:26Z</time>
      </trkpt>
      <trkpt lat="48.51473" lon="-3.03081">
        <ele>201.6</ele>
        <time>2025-10-12T09:24:34Z</time>
      </trkpt>
      <trkpt lat="48.51491" lon="-3.0308">
        <ele>200.4</ele>
        <time>2025-10-12T09:24:42Z</time>
      </trkpt>
      <trkpt lat="48.51508" lon="-3.03081">
        <ele>200</ele>
        <time>2025-10-12T09:24:59Z</time>
      </trkpt>
      <trkpt lat="48.51543" lon="-3.03074">
        <ele>199.2</ele>
        <time>2025-10-12T09:25:05Z</time>
      </trkpt>
      <trkpt lat="48.51596" lon="-3.03055">
        <ele>198.6</ele>
        <time>2025-10-12T09:25:13Z</time>
      </trkpt>
      <trkpt lat="48.51621" lon="-3.03046">
        <ele>198</ele>
        <time>2025-10-12T09:25:17Z</time>
      </trkpt>
      <trkpt lat="48.51649" lon="-3.03047">
        <ele>197</ele>
        <time>2025-10-12T09:25:21Z</time>
      </trkpt>
      <trkpt lat="48.51671" lon="-3.03055">
        <ele>196.4</ele>
        <time>2025-10-12T09:25:24Z</time>
      </trkpt>
      <trkpt lat="48.51693" lon="-3.0307">
        <ele>196</ele>
        <time>2025-10-12T09:25:27Z</time>
      </trkpt>
      <trkpt lat="48.51715" lon="-3.0309">
        <ele>195</ele>
        <time>2025-10-12T09:25:35Z</time>
      </trkpt>
      <trkpt lat="48.51749" lon="-3.03118">
        <ele>194.4</ele>
        <time>2025-10-12T09:25:43Z</time>
      </trkpt>
      <trkpt lat="48.51785" lon="-3.03134">
        <ele>193.2</ele>
        <time>2025-10-12T09:25:48Z</time>
      </trkpt>
      <trkpt lat="48.51832" lon="-3.03151">
        <ele>190.2</ele>
        <time>2025-10-12T09:25:54Z</time>
      </trkpt>
      <trkpt lat="48.51881" lon="-3.0318">
        <ele>187</ele>
        <time>2025-10-12T09:25:59Z</time>
      </trkpt>
      <trkpt lat="48.51912" lon="-3.03191">
        <ele>184.8</ele>
        <time>2025-10-12T09:26:03Z</time>
      </trkpt>
      <trkpt lat="48.51983" lon="-3.03204">
        <ele>179</ele>
        <time>2025-10-12T09:26:09Z</time>
      </trkpt>
      <trkpt lat="48.52053" lon="-3.03229">
        <ele>173.6</ele>
        <time>2025-10-12T09:26:15Z</time>
      </trkpt>
      <trkpt lat="48.52071" lon="-3.03231">
        <ele>172</ele>
        <time>2025-10-12T09:26:17Z</time>
      </trkpt>
      <trkpt lat="48.52111" lon="-3.03223">
        <ele>169.8</ele>
        <time>2025-10-12T09:26:20Z</time>
      </trkpt>
      <trkpt lat="48.52191" lon="-3.03196">
        <ele>165.2</ele>
        <time>2025-10-12T09:26:27Z</time>
      </trkpt>
      <trkpt lat="48.52224" lon="-3.03192">
        <ele>163.8</ele>
        <time>2025-10-12T09:26:30Z</time>
      </trkpt>
      <trkpt lat="48.52266" lon="-3.03195">
        <ele>162.4</ele>
        <time>2025-10-12T09:26:34Z</time>
      </trkpt>
      <trkpt lat="48.5234" lon="-3.03211">
        <ele>160.6</ele>
        <time>2025-10-12T09:26:42Z</time>
      </trkpt>
      <trkpt lat="48.52407" lon="-3.03227">
        <ele>158.8</ele>
        <time>2025-10-12T09:26:50Z</time>
      </trkpt>
      <trkpt lat="48.52475" lon="-3.03247">
        <ele>157</ele>
        <time>2025-10-12T09:26:58Z</time>
      </trkpt>
      <trkpt lat="48.5254" lon="-3.03275">
        <ele>155</ele>
        <time>2025-10-12T09:27:06Z</time>
      </trkpt>
      <trkpt lat="48.52602" lon="-3.03303">
        <ele>154.4</ele>
        <time>2025-10-12T09:27:14Z</time>
      </trkpt>
      <trkpt lat="48.52661" lon="-3.03326">
        <ele>153.6</ele>
        <time>2025-10-12T09:27:22Z</time>
      </trkpt>
      <trkpt lat="48.52725" lon="-3.03343">
        <ele>152</ele>
        <time>2025-10-12T09:27:30Z</time>
      </trkpt>
      <trkpt lat="48.52789" lon="-3.03355">
        <ele>150.2</ele>
        <time>2025-10-12T09:27:38Z</time>
      </trkpt>
      <trkpt lat="48.52866" lon="-3.03363">
        <ele>149.2</ele>
        <time>2025-10-12T09:27:46Z</time>
      </trkpt>
      <trkpt lat="48.52923" lon="-3.03371">
        <ele>149.6</ele>
        <time>2025-10-12T09:27:54Z</time>
      </trkpt>
      <trkpt lat="48.5297" lon="-3.03377">
        <ele>150.4</ele>
        <time>2025-10-12T09:28:02Z</time>
      </trkpt>
      <trkpt lat="48.53016" lon="-3.03385">
        <ele>151.4</ele>
        <time>2025-10-12T09:28:10Z</time>
      </trkpt>
      <trkpt lat="48.53053" lon="-3.03396">
        <ele>152</ele>
        <time>2025-10-12T09:28:16Z</time>
      </trkpt>
      <trkpt lat="48.53097" lon="-3.03418">
        <ele>152.8</ele>
        <time>2025-10-12T09:28:25Z</time>
      </trkpt>
      <trkpt lat="48.5314" lon="-3.03447">
        <ele>153.6</ele>
        <time>2025-10-12T09:28:33Z</time>
      </trkpt>
      <trkpt lat="48.53179" lon="-3.03482">
        <ele>154.4</ele>
        <time>2025-10-12T09:28:41Z</time>
      </trkpt>
      <trkpt lat="48.53218" lon="-3.0352">
        <ele>155.4</ele>
        <time>2025-10-12T09:28:49Z</time>
      </trkpt>
      <trkpt lat="48.53257" lon="-3.03562">
        <ele>156.2</ele>
        <time>2025-10-12T09:28:57Z</time>
      </trkpt>
      <trkpt lat="48.53297" lon="-3.03604">
        <ele>157</ele>
        <time>2025-10-12T09:29:05Z</time>
      </trkpt>
      <trkpt lat="48.53337" lon="-3.03645">
        <ele>157.6</ele>
        <time>2025-10-12T09:29:13Z</time>
      </trkpt>
      <trkpt lat="48.53377" lon="-3.03688">
        <ele>157.6</ele>
        <time>2025-10-12T09:29:21Z</time>
      </trkpt>
      <trkpt lat="48.53418" lon="-3.03731">
        <ele>157</ele>
        <time>2025-10-12T09:29:29Z</time>
      </trkpt>
      <trkpt lat="48.53459" lon="-3.03775">
        <ele>156.2</ele>
        <time>2025-10-12T09:29:37Z</time>
      </trkpt>
      <trkpt lat="48.53504" lon="-3.03822">
        <ele>155.4</ele>
        <time>2025-10-12T09:29:45Z</time>
      </trkpt>
      <trkpt lat="48.53538" lon="-3.03855">
        <ele>154.2</ele>
        <time>2025-10-12T09:29:52Z</time>
      </trkpt>
      <trkpt lat="48.53542" lon="-3.03865">
        <ele>154</ele>
        <time>2025-10-12T09:29:54Z</time>
      </trkpt>
      <trkpt lat="48.53543" lon="-3.03887">
        <ele>153.8</ele>
        <time>2025-10-12T09:29:57Z</time>
      </trkpt>
      <trkpt lat="48.53536" lon="-3.03964">
        <ele>153.6</ele>
        <time>2025-10-12T09:30:05Z</time>
      </trkpt>
      <trkpt lat="48.53531" lon="-3.04047">
        <ele>153.8</ele>
        <time>2025-10-12T09:30:13Z</time>
      </trkpt>
      <trkpt lat="48.53522" lon="-3.04117">
        <ele>154.6</ele>
        <time>2025-10-12T09:30:21Z</time>
      </trkpt>
      <trkpt lat="48.5351" lon="-3.04188">
        <ele>155.2</ele>
        <time>2025-10-12T09:30:29Z</time>
      </trkpt>
      <trkpt lat="48.53499" lon="-3.04259">
        <ele>156.2</ele>
        <time>2025-10-12T09:30:37Z</time>
      </trkpt>
      <trkpt lat="48.53487" lon="-3.04331">
        <ele>156.6</ele>
        <time>2025-10-12T09:30:46Z</time>
      </trkpt>
      <trkpt lat="48.53475" lon="-3.04405">
        <ele>156.6</ele>
        <time>2025-10-12T09:30:54Z</time>
      </trkpt>
      <trkpt lat="48.53458" lon="-3.04487">
        <ele>155.2</ele>
        <time>2025-10-12T09:31:02Z</time>
      </trkpt>
      <trkpt lat="48.53444" lon="-3.04561">
        <ele>153</ele>
        <time>2025-10-12T09:31:08Z</time>
      </trkpt>
      <trkpt lat="48.53441" lon="-3.04604">
        <ele>152.4</ele>
        <time>2025-10-12T09:31:11Z</time>
      </trkpt>
      <trkpt lat="48.53446" lon="-3.0464">
        <ele>152.6</ele>
        <time>2025-10-12T09:31:14Z</time>
      </trkpt>
      <trkpt lat="48.53467" lon="-3.04717">
        <ele>153.6</ele>
        <time>2025-10-12T09:31:22Z</time>
      </trkpt>
      <trkpt lat="48.53484" lon="-3.04786">
        <ele>154.6</ele>
        <time>2025-10-12T09:31:30Z</time>
      </trkpt>
      <trkpt lat="48.53502" lon="-3.04857">
        <ele>154.8</ele>
        <time>2025-10-12T09:31:38Z</time>
      </trkpt>
      <trkpt lat="48.5352" lon="-3.04928">
        <ele>155.2</ele>
        <time>2025-10-12T09:31:46Z</time>
      </trkpt>
      <trkpt lat="48.53539" lon="-3.05002">
        <ele>155</ele>
        <time>2025-10-12T09:31:54Z</time>
      </trkpt>
      <trkpt lat="48.53557" lon="-3.05075">
        <ele>155.2</ele>
        <time>2025-10-12T09:32:02Z</time>
      </trkpt>
      <trkpt lat="48.53574" lon="-3.05144">
        <ele>155.8</ele>
        <time>2025-10-12T09:32:10Z</time>
      </trkpt>
      <trkpt lat="48.53593" lon="-3.05217">
        <ele>156.8</ele>
        <time>2025-10-12T09:32:18Z</time>
      </trkpt>
      <trkpt lat="48.53609" lon="-3.05284">
        <ele>157.6</ele>
        <time>2025-10-12T09:32:26Z</time>
      </trkpt>
      <trkpt lat="48.5362" lon="-3.05353">
        <ele>158.8</ele>
        <time>2025-10-12T09:32:34Z</time>
      </trkpt>
      <trkpt lat="48.53631" lon="-3.05424">
        <ele>159.8</ele>
        <time>2025-10-12T09:32:42Z</time>
      </trkpt>
      <trkpt lat="48.53641" lon="-3.05495">
        <ele>160.4</ele>
        <time>2025-10-12T09:32:50Z</time>
      </trkpt>
      <trkpt lat="48.53652" lon="-3.05567">
        <ele>161</ele>
        <time>2025-10-12T09:32:59Z</time>
      </trkpt>
      <trkpt lat="48.53663" lon="-3.05636">
        <ele>161.6</ele>
        <time>2025-10-12T09:33:07Z</time>
      </trkpt>
      <trkpt lat="48.53674" lon="-3.05711">
        <ele>162.4</ele>
        <time>2025-10-12T09:33:15Z</time>
      </trkpt>
      <trkpt lat="48.53686" lon="-3.05781">
        <ele>163</ele>
        <time>2025-10-12T09:33:23Z</time>
      </trkpt>
      <trkpt lat="48.53702" lon="-3.0585">
        <ele>163.2</ele>
        <time>2025-10-12T09:33:31Z</time>
      </trkpt>
      <trkpt lat="48.53723" lon="-3.05919">
        <ele>163.2</ele>
        <time>2025-10-12T09:33:39Z</time>
      </trkpt>
      <trkpt lat="48.53747" lon="-3.05987">
        <ele>162.6</ele>
        <time>2025-10-12T09:33:47Z</time>
      </trkpt>
      <trkpt lat="48.53772" lon="-3.06058">
        <ele>161.6</ele>
        <time>2025-10-12T09:33:55Z</time>
      </trkpt>
      <trkpt lat="48.53794" lon="-3.06133">
        <ele>160.4</ele>
        <time>2025-10-12T09:34:03Z</time>
      </trkpt>
      <trkpt lat="48.53812" lon="-3.06207">
        <ele>160.2</ele>
        <time>2025-10-12T09:34:11Z</time>
      </trkpt>
      <trkpt lat="48.53829" lon="-3.06277">
        <ele>161</ele>
        <time>2025-10-12T09:34:19Z</time>
      </trkpt>
      <trkpt lat="48.53846" lon="-3.06347">
        <ele>162.4</ele>
        <time>2025-10-12T09:34:27Z</time>
      </trkpt>
      <trkpt lat="48.53866" lon="-3.0643">
        <ele>162.6</ele>
        <time>2025-10-12T09:34:35Z</time>
      </trkpt>
      <trkpt lat="48.53885" lon="-3.0651">
        <ele>161.6</ele>
        <time>2025-10-12T09:34:43Z</time>
      </trkpt>
      <trkpt lat="48.53907" lon="-3.06598">
        <ele>159.2</ele>
        <time>2025-10-12T09:34:51Z</time>
      </trkpt>
      <trkpt lat="48.53934" lon="-3.06708">
        <ele>155.4</ele>
        <time>2025-10-12T09:34:59Z</time>
      </trkpt>
      <trkpt lat="48.53954" lon="-3.06785">
        <ele>152.8</ele>
        <time>2025-10-12T09:35:05Z</time>
      </trkpt>
      <trkpt lat="48.5397" lon="-3.0688">
        <ele>151.2</ele>
        <time>2025-10-12T09:35:12Z</time>
      </trkpt>
      <trkpt lat="48.5399" lon="-3.06936">
        <ele>150.6</ele>
        <time>2025-10-12T09:35:16Z</time>
      </trkpt>
      <trkpt lat="48.54009" lon="-3.06985">
        <ele>150.4</ele>
        <time>2025-10-12T09:35:20Z</time>
      </trkpt>
      <trkpt lat="48.54026" lon="-3.07047">
        <ele>149.8</ele>
        <time>2025-10-12T09:35:25Z</time>
      </trkpt>
      <trkpt lat="48.5405" lon="-3.07145">
        <ele>148.6</ele>
        <time>2025-10-12T09:35:33Z</time>
      </trkpt>
      <trkpt lat="48.54073" lon="-3.07241">
        <ele>147.2</ele>
        <time>2025-10-12T09:35:41Z</time>
      </trkpt>
      <trkpt lat="48.54098" lon="-3.07344">
        <ele>144.8</ele>
        <time>2025-10-12T09:35:49Z</time>
      </trkpt>
      <trkpt lat="48.54125" lon="-3.07454">
        <ele>142</ele>
        <time>2025-10-12T09:35:57Z</time>
      </trkpt>
      <trkpt lat="48.54153" lon="-3.07567">
        <ele>139</ele>
        <time>2025-10-12T09:36:05Z</time>
      </trkpt>
      <trkpt lat="48.54181" lon="-3.07683">
        <ele>136.4</ele>
        <time>2025-10-12T09:36:13Z</time>
      </trkpt>
      <trkpt lat="48.54187" lon="-3.07713">
        <ele>135.6</ele>
        <time>2025-10-12T09:36:15Z</time>
      </trkpt>
      <trkpt lat="48.54188" lon="-3.07744">
        <ele>134.8</ele>
        <time>2025-10-12T09:36:17Z</time>
      </trkpt>
      <trkpt lat="48.54184" lon="-3.07776">
        <ele>134.4</ele>
        <time>2025-10-12T09:36:19Z</time>
      </trkpt>
      <trkpt lat="48.54175" lon="-3.07805">
        <ele>133.8</ele>
        <time>2025-10-12T09:36:21Z</time>
      </trkpt>
      <trkpt lat="48.54163" lon="-3.07832">
        <ele>133.4</ele>
        <time>2025-10-12T09:36:23Z</time>
      </trkpt>
      <trkpt lat="48.54134" lon="-3.07873">
        <ele>133.2</ele>
        <time>2025-10-12T09:36:27Z</time>
      </trkpt>
      <trkpt lat="48.54116" lon="-3.07899">
        <ele>133.4</ele>
        <time>2025-10-12T09:36:30Z</time>
      </trkpt>
      <trkpt lat="48.54095" lon="-3.07943">
        <ele>133.8</ele>
        <time>2025-10-12T09:36:34Z</time>
      </trkpt>
      <trkpt lat="48.54079" lon="-3.07996">
        <ele>134.2</ele>
        <time>2025-10-12T09:36:39Z</time>
      </trkpt>
      <trkpt lat="48.54069" lon="-3.08066">
        <ele>134.6</ele>
        <time>2025-10-12T09:36:45Z</time>
      </trkpt>
      <trkpt lat="48.54062" lon="-3.0814">
        <ele>135</ele>
        <time>2025-10-12T09:36:53Z</time>
      </trkpt>
      <trkpt lat="48.54056" lon="-3.08216">
        <ele>135.4</ele>
        <time>2025-10-12T09:37:01Z</time>
      </trkpt>
      <trkpt lat="48.54054" lon="-3.08274">
        <ele>135.2</ele>
        <time>2025-10-12T09:37:07Z</time>
      </trkpt>
      <trkpt lat="48.54057" lon="-3.0835">
        <ele>135</ele>
        <time>2025-10-12T09:37:16Z</time>
      </trkpt>
      <trkpt lat="48.54068" lon="-3.08434">
        <ele>134.6</ele>
        <time>2025-10-12T09:37:24Z</time>
      </trkpt>
      <trkpt lat="48.54085" lon="-3.08504">
        <ele>134.2</ele>
        <time>2025-10-12T09:37:31Z</time>
      </trkpt>
      <trkpt lat="48.54106" lon="-3.08571">
        <ele>134</ele>
        <time>2025-10-12T09:37:38Z</time>
      </trkpt>
      <trkpt lat="48.54138" lon="-3.08641">
        <ele>133.6</ele>
        <time>2025-10-12T09:37:46Z</time>
      </trkpt>
      <trkpt lat="48.54162" lon="-3.08684">
        <ele>133.4</ele>
        <time>2025-10-12T09:37:52Z</time>
      </trkpt>
      <trkpt lat="48.54174" lon="-3.08698">
        <ele>133.2</ele>
        <time>2025-10-12T09:37:55Z</time>
      </trkpt>
      <trkpt lat="48.54189" lon="-3.08705">
        <ele>133.4</ele>
        <time>2025-10-12T09:37:58Z</time>
      </trkpt>
      <trkpt lat="48.54201" lon="-3.08697">
        <ele>133.4</ele>
        <time>2025-10-12T09:38:00Z</time>
      </trkpt>
      <trkpt lat="48.54238" lon="-3.08644">
        <ele>133.8</ele>
        <time>2025-10-12T09:38:08Z</time>
      </trkpt>
      <trkpt lat="48.54276" lon="-3.08601">
        <ele>134.4</ele>
        <time>2025-10-12T09:38:16Z</time>
      </trkpt>
      <trkpt lat="48.54309" lon="-3.0857">
        <ele>136.2</ele>
        <time>2025-10-12T09:38:24Z</time>
      </trkpt>
      <trkpt lat="48.54338" lon="-3.08543">
        <ele>138</ele>
        <time>2025-10-12T09:38:32Z</time>
      </trkpt>
      <trkpt lat="48.54371" lon="-3.08516">
        <ele>139.6</ele>
        <time>2025-10-12T09:38:40Z</time>
      </trkpt>
      <trkpt lat="48.54408" lon="-3.08492">
        <ele>140.2</ele>
        <time>2025-10-12T09:38:48Z</time>
      </trkpt>
      <trkpt lat="48.54454" lon="-3.08461">
        <ele>140.6</ele>
        <time>2025-10-12T09:38:56Z</time>
      </trkpt>
      <trkpt lat="48.54478" lon="-3.08446">
        <ele>140.6</ele>
        <time>2025-10-12T09:39:01Z</time>
      </trkpt>
      <trkpt lat="48.5449" lon="-3.08443">
        <ele>140.4</ele>
        <time>2025-10-12T09:39:03Z</time>
      </trkpt>
      <trkpt lat="48.54499" lon="-3.08449">
        <ele>140.2</ele>
        <time>2025-10-12T09:39:05Z</time>
      </trkpt>
      <trkpt lat="48.54505" lon="-3.08464">
        <ele>139.8</ele>
        <time>2025-10-12T09:39:07Z</time>
      </trkpt>
      <trkpt lat="48.54518" lon="-3.08537">
        <ele>138.4</ele>
        <time>2025-10-12T09:39:14Z</time>
      </trkpt>
      <trkpt lat="48.54543" lon="-3.08629">
        <ele>135.4</ele>
        <time>2025-10-12T09:39:22Z</time>
      </trkpt>
      <trkpt lat="48.54571" lon="-3.0873">
        <ele>132.2</ele>
        <time>2025-10-12T09:39:31Z</time>
      </trkpt>
      <trkpt lat="48.546" lon="-3.08827">
        <ele>130.8</ele>
        <time>2025-10-12T09:39:39Z</time>
      </trkpt>
      <trkpt lat="48.5463" lon="-3.08918">
        <ele>129.8</ele>
        <time>2025-10-12T09:39:47Z</time>
      </trkpt>
      <trkpt lat="48.54659" lon="-3.09002">
        <ele>129</ele>
        <time>2025-10-12T09:39:55Z</time>
      </trkpt>
      <trkpt lat="48.54689" lon="-3.09082">
        <ele>128</ele>
        <time>2025-10-12T09:40:03Z</time>
      </trkpt>
      <trkpt lat="48.54721" lon="-3.09162">
        <ele>127</ele>
        <time>2025-10-12T09:40:11Z</time>
      </trkpt>
      <trkpt lat="48.54754" lon="-3.09241">
        <ele>125.8</ele>
        <time>2025-10-12T09:40:19Z</time>
      </trkpt>
      <trkpt lat="48.54788" lon="-3.09316">
        <ele>124.8</ele>
        <time>2025-10-12T09:40:27Z</time>
      </trkpt>
      <trkpt lat="48.54824" lon="-3.09391">
        <ele>123.6</ele>
        <time>2025-10-12T09:40:35Z</time>
      </trkpt>
      <trkpt lat="48.54863" lon="-3.09475">
        <ele>122.6</ele>
        <time>2025-10-12T09:40:43Z</time>
      </trkpt>
      <trkpt lat="48.549" lon="-3.09554">
        <ele>121.2</ele>
        <time>2025-10-12T09:40:51Z</time>
      </trkpt>
      <trkpt lat="48.54937" lon="-3.09633">
        <ele>120</ele>
        <time>2025-10-12T09:40:59Z</time>
      </trkpt>
      <trkpt lat="48.54977" lon="-3.09719">
        <ele>118.8</ele>
        <time>2025-10-12T09:41:07Z</time>
      </trkpt>
      <trkpt lat="48.55013" lon="-3.09804">
        <ele>117.8</ele>
        <time>2025-10-12T09:41:15Z</time>
      </trkpt>
      <trkpt lat="48.55047" lon="-3.09893">
        <ele>116.6</ele>
        <time>2025-10-12T09:41:23Z</time>
      </trkpt>
      <trkpt lat="48.55075" lon="-3.09978">
        <ele>115.4</ele>
        <time>2025-10-12T09:41:31Z</time>
      </trkpt>
      <trkpt lat="48.551" lon="-3.1006">
        <ele>115.2</ele>
        <time>2025-10-12T09:41:39Z</time>
      </trkpt>
      <trkpt lat="48.55121" lon="-3.10138">
        <ele>116.2</ele>
        <time>2025-10-12T09:41:48Z</time>
      </trkpt>
      <trkpt lat="48.55128" lon="-3.10149">
        <ele>116.4</ele>
        <time>2025-10-12T09:41:50Z</time>
      </trkpt>
      <trkpt lat="48.55134" lon="-3.10154">
        <ele>116.6</ele>
        <time>2025-10-12T09:41:51Z</time>
      </trkpt>
      <trkpt lat="48.55148" lon="-3.10154">
        <ele>116.4</ele>
        <time>2025-10-12T09:41:53Z</time>
      </trkpt>
      <trkpt lat="48.55166" lon="-3.10148">
        <ele>116.2</ele>
        <time>2025-10-12T09:41:56Z</time>
      </trkpt>
      <trkpt lat="48.55189" lon="-3.1015">
        <ele>116</ele>
        <time>2025-10-12T09:41:59Z</time>
      </trkpt>
      <trkpt lat="48.55236" lon="-3.10172">
        <ele>116.2</ele>
        <time>2025-10-12T09:42:07Z</time>
      </trkpt>
      <trkpt lat="48.55279" lon="-3.1019">
        <ele>116.8</ele>
        <time>2025-10-12T09:42:15Z</time>
      </trkpt>
      <trkpt lat="48.55328" lon="-3.10211">
        <ele>117.4</ele>
        <time>2025-10-12T09:42:23Z</time>
      </trkpt>
      <trkpt lat="48.55371" lon="-3.10231">
        <ele>118.6</ele>
        <time>2025-10-12T09:42:31Z</time>
      </trkpt>
      <trkpt lat="48.5541" lon="-3.10249">
        <ele>121.2</ele>
        <time>2025-10-12T09:42:39Z</time>
      </trkpt>
      <trkpt lat="48.55442" lon="-3.10264">
        <ele>123</ele>
        <time>2025-10-12T09:42:46Z</time>
      </trkpt>
      <trkpt lat="48.55484" lon="-3.10289">
        <ele>123.4</ele>
        <time>2025-10-12T09:42:54Z</time>
      </trkpt>
      <trkpt lat="48.55528" lon="-3.1031">
        <ele>121.4</ele>
        <time>2025-10-12T09:43:01Z</time>
      </trkpt>
      <trkpt lat="48.55572" lon="-3.10327">
        <ele>120</ele>
        <time>2025-10-12T09:43:06Z</time>
      </trkpt>
      <trkpt lat="48.55627" lon="-3.10359">
        <ele>119.2</ele>
        <time>2025-10-12T09:43:14Z</time>
      </trkpt>
      <trkpt lat="48.55675" lon="-3.10387">
        <ele>119</ele>
        <time>2025-10-12T09:43:22Z</time>
      </trkpt>
      <trkpt lat="48.55721" lon="-3.10414">
        <ele>119</ele>
        <time>2025-10-12T09:43:30Z</time>
      </trkpt>
      <trkpt lat="48.5576" lon="-3.10428">
        <ele>118.4</ele>
        <time>2025-10-12T09:43:37Z</time>
      </trkpt>
      <trkpt lat="48.55788" lon="-3.10434">
        <ele>118.6</ele>
        <time>2025-10-12T09:43:44Z</time>
      </trkpt>
      <trkpt lat="48.55829" lon="-3.10449">
        <ele>117.2</ele>
        <time>2025-10-12T09:43:51Z</time>
      </trkpt>
      <trkpt lat="48.5587" lon="-3.10458">
        <ele>115.2</ele>
        <time>2025-10-12T09:43:57Z</time>
      </trkpt>
      <trkpt lat="48.55908" lon="-3.10458">
        <ele>114</ele>
        <time>2025-10-12T09:44:03Z</time>
      </trkpt>
      <trkpt lat="48.55918" lon="-3.10462">
        <ele>113.4</ele>
        <time>2025-10-12T09:44:05Z</time>
      </trkpt>
      <trkpt lat="48.55944" lon="-3.10495">
        <ele>112.2</ele>
        <time>2025-10-12T09:44:11Z</time>
      </trkpt>
      <trkpt lat="48.55956" lon="-3.10501">
        <ele>112</ele>
        <time>2025-10-12T09:44:13Z</time>
      </trkpt>
      <trkpt lat="48.55967" lon="-3.105">
        <ele>112</ele>
        <time>2025-10-12T09:44:15Z</time>
      </trkpt>
      <trkpt lat="48.55978" lon="-3.10492">
        <ele>111.8</ele>
        <time>2025-10-12T09:44:17Z</time>
      </trkpt>
      <trkpt lat="48.55991" lon="-3.10469">
        <ele>111.6</ele>
        <time>2025-10-12T09:44:21Z</time>
      </trkpt>
      <trkpt lat="48.56009" lon="-3.10455">
        <ele>111</ele>
        <time>2025-10-12T09:44:24Z</time>
      </trkpt>
      <trkpt lat="48.56044" lon="-3.10439">
        <ele>108.8</ele>
        <time>2025-10-12T09:44:29Z</time>
      </trkpt>
      <trkpt lat="48.5607" lon="-3.10435">
        <ele>107</ele>
        <time>2025-10-12T09:44:32Z</time>
      </trkpt>
      <trkpt lat="48.56142" lon="-3.10437">
        <ele>103</ele>
        <time>2025-10-12T09:44:40Z</time>
      </trkpt>
      <trkpt lat="48.56148" lon="-3.10442">
        <ele>102.8</ele>
        <time>2025-10-12T09:44:41Z</time>
      </trkpt>
      <trkpt lat="48.56152" lon="-3.10448">
        <ele>102.6</ele>
        <time>2025-10-12T09:44:42Z</time>
      </trkpt>
      <trkpt lat="48.56158" lon="-3.10468">
        <ele>102.4</ele>
        <time>2025-10-12T09:44:44Z</time>
      </trkpt>
      <trkpt lat="48.56165" lon="-3.10518">
        <ele>102</ele>
        <time>2025-10-12T09:44:49Z</time>
      </trkpt>
      <trkpt lat="48.56185" lon="-3.10575">
        <ele>101.8</ele>
        <time>2025-10-12T09:44:56Z</time>
      </trkpt>
      <trkpt lat="48.56212" lon="-3.10623">
        <ele>101.8</ele>
        <time>2025-10-12T09:45:03Z</time>
      </trkpt>
      <trkpt lat="48.56237" lon="-3.10651">
        <ele>101.8</ele>
        <time>2025-10-12T09:45:09Z</time>
      </trkpt>
      <trkpt lat="48.56288" lon="-3.10695">
        <ele>101.4</ele>
        <time>2025-10-12T09:45:17Z</time>
      </trkpt>
      <trkpt lat="48.56333" lon="-3.10729">
        <ele>100.8</ele>
        <time>2025-10-12T09:45:25Z</time>
      </trkpt>
      <trkpt lat="48.56377" lon="-3.1076">
        <ele>99.6</ele>
        <time>2025-10-12T09:45:32Z</time>
      </trkpt>
      <trkpt lat="48.56406" lon="-3.1079">
        <ele>99.4</ele>
        <time>2025-10-12T09:45:36Z</time>
      </trkpt>
      <trkpt lat="48.56443" lon="-3.10842">
        <ele>100</ele>
        <time>2025-10-12T09:45:44Z</time>
      </trkpt>
      <trkpt lat="48.56467" lon="-3.1087">
        <ele>101.4</ele>
        <time>2025-10-12T09:45:50Z</time>
      </trkpt>
      <trkpt lat="48.56478" lon="-3.10876">
        <ele>102.2</ele>
        <time>2025-10-12T09:45:53Z</time>
      </trkpt>
      <trkpt lat="48.56496" lon="-3.10877">
        <ele>103.4</ele>
        <time>2025-10-12T09:45:57Z</time>
      </trkpt>
      <trkpt lat="48.56515" lon="-3.10867">
        <ele>104.2</ele>
        <time>2025-10-12T09:46:01Z</time>
      </trkpt>
      <trkpt lat="48.56543" lon="-3.10843">
        <ele>106.4</ele>
        <time>2025-10-12T09:46:09Z</time>
      </trkpt>
      <trkpt lat="48.56565" lon="-3.10824">
        <ele>107.8</ele>
        <time>2025-10-12T09:46:17Z</time>
      </trkpt>
      <trkpt lat="48.56569" lon="-3.10824">
        <ele>108.2</ele>
        <time>2025-10-12T09:46:22Z</time>
      </trkpt>
      <trkpt lat="48.56587" lon="-3.10829">
        <ele>108.6</ele>
        <time>2025-10-12T09:46:43Z</time>
      </trkpt>
      <trkpt lat="48.56612" lon="-3.1085">
        <ele>110.2</ele>
        <time>2025-10-12T09:46:51Z</time>
      </trkpt>
      <trkpt lat="48.56636" lon="-3.10865">
        <ele>111.2</ele>
        <time>2025-10-12T09:46:57Z</time>
      </trkpt>
      <trkpt lat="48.56671" lon="-3.10872">
        <ele>112.6</ele>
        <time>2025-10-12T09:47:05Z</time>
      </trkpt>
      <trkpt lat="48.567" lon="-3.10879">
        <ele>114.8</ele>
        <time>2025-10-12T09:47:13Z</time>
      </trkpt>
      <trkpt lat="48.56723" lon="-3.10893">
        <ele>117</ele>
        <time>2025-10-12T09:47:20Z</time>
      </trkpt>
      <trkpt lat="48.5675" lon="-3.10911">
        <ele>118.6</ele>
        <time>2025-10-12T09:47:28Z</time>
      </trkpt>
      <trkpt lat="48.56765" lon="-3.10915">
        <ele>119.2</ele>
        <time>2025-10-12T09:47:32Z</time>
      </trkpt>
      <trkpt lat="48.56796" lon="-3.10912">
        <ele>120.6</ele>
        <time>2025-10-12T09:47:40Z</time>
      </trkpt>
      <trkpt lat="48.56823" lon="-3.10912">
        <ele>121.4</ele>
        <time>2025-10-12T09:47:47Z</time>
      </trkpt>
      <trkpt lat="48.56847" lon="-3.10926">
        <ele>121.6</ele>
        <time>2025-10-12T09:47:52Z</time>
      </trkpt>
      <trkpt lat="48.56875" lon="-3.10946">
        <ele>121.4</ele>
        <time>2025-10-12T09:47:57Z</time>
      </trkpt>
      <trkpt lat="48.56922" lon="-3.10965">
        <ele>121</ele>
        <time>2025-10-12T09:48:05Z</time>
      </trkpt>
      <trkpt lat="48.56978" lon="-3.10987">
        <ele>119</ele>
        <time>2025-10-12T09:48:13Z</time>
      </trkpt>
      <trkpt lat="48.5704" lon="-3.11005">
        <ele>116.2</ele>
        <time>2025-10-12T09:48:21Z</time>
      </trkpt>
      <trkpt lat="48.57079" lon="-3.11025">
        <ele>114.6</ele>
        <time>2025-10-12T09:48:26Z</time>
      </trkpt>
      <trkpt lat="48.57141" lon="-3.11062">
        <ele>112.2</ele>
        <time>2025-10-12T09:48:35Z</time>
      </trkpt>
      <trkpt lat="48.57182" lon="-3.11097">
        <ele>112.6</ele>
        <time>2025-10-12T09:48:42Z</time>
      </trkpt>
      <trkpt lat="48.5721" lon="-3.11132">
        <ele>114.8</ele>
        <time>2025-10-12T09:48:50Z</time>
      </trkpt>
      <trkpt lat="48.57244" lon="-3.11173">
        <ele>116.8</ele>
        <time>2025-10-12T09:48:58Z</time>
      </trkpt>
      <trkpt lat="48.57275" lon="-3.11213">
        <ele>118.4</ele>
        <time>2025-10-12T09:49:06Z</time>
      </trkpt>
      <trkpt lat="48.57296" lon="-3.11244">
        <ele>119.6</ele>
        <time>2025-10-12T09:49:12Z</time>
      </trkpt>
      <trkpt lat="48.57309" lon="-3.11278">
        <ele>120</ele>
        <time>2025-10-12T09:49:17Z</time>
      </trkpt>
      <trkpt lat="48.57326" lon="-3.11333">
        <ele>120</ele>
        <time>2025-10-12T09:49:24Z</time>
      </trkpt>
      <trkpt lat="48.57352" lon="-3.11394">
        <ele>120</ele>
        <time>2025-10-12T09:49:32Z</time>
      </trkpt>
      <trkpt lat="48.57377" lon="-3.1146">
        <ele>120.2</ele>
        <time>2025-10-12T09:49:40Z</time>
      </trkpt>
      <trkpt lat="48.57401" lon="-3.115">
        <ele>120</ele>
        <time>2025-10-12T09:49:46Z</time>
      </trkpt>
      <trkpt lat="48.57437" lon="-3.11554">
        <ele>119.6</ele>
        <time>2025-10-12T09:49:54Z</time>
      </trkpt>
      <trkpt lat="48.5747" lon="-3.11605">
        <ele>120</ele>
        <time>2025-10-12T09:50:02Z</time>
      </trkpt>
      <trkpt lat="48.57498" lon="-3.11648">
        <ele>120.2</ele>
        <time>2025-10-12T09:50:09Z</time>
      </trkpt>
      <trkpt lat="48.57513" lon="-3.11659">
        <ele>119.8</ele>
        <time>2025-10-12T09:50:11Z</time>
      </trkpt>
      <trkpt lat="48.57522" lon="-3.11662">
        <ele>119.6</ele>
        <time>2025-10-12T09:50:12Z</time>
      </trkpt>
      <trkpt lat="48.5753" lon="-3.11661">
        <ele>119.2</ele>
        <time>2025-10-12T09:50:13Z</time>
      </trkpt>
      <trkpt lat="48.57538" lon="-3.11655">
        <ele>118.8</ele>
        <time>2025-10-12T09:50:14Z</time>
      </trkpt>
      <trkpt lat="48.57547" lon="-3.11641">
        <ele>118</ele>
        <time>2025-10-12T09:50:16Z</time>
      </trkpt>
      <trkpt lat="48.57582" lon="-3.11565">
        <ele>115.8</ele>
        <time>2025-10-12T09:50:23Z</time>
      </trkpt>
      <trkpt lat="48.57617" lon="-3.11506">
        <ele>115</ele>
        <time>2025-10-12T09:50:31Z</time>
      </trkpt>
      <trkpt lat="48.57648" lon="-3.11452">
        <ele>115.2</ele>
        <time>2025-10-12T09:50:39Z</time>
      </trkpt>
      <trkpt lat="48.57678" lon="-3.11394">
        <ele>114.8</ele>
        <time>2025-10-12T09:50:48Z</time>
      </trkpt>
      <trkpt lat="48.5771" lon="-3.11336">
        <ele>114.6</ele>
        <time>2025-10-12T09:50:56Z</time>
      </trkpt>
      <trkpt lat="48.57747" lon="-3.11287">
        <ele>114</ele>
        <time>2025-10-12T09:51:04Z</time>
      </trkpt>
      <trkpt lat="48.57777" lon="-3.1124">
        <ele>113.8</ele>
        <time>2025-10-12T09:51:11Z</time>
      </trkpt>
      <trkpt lat="48.57807" lon="-3.11178">
        <ele>112.8</ele>
        <time>2025-10-12T09:51:19Z</time>
      </trkpt>
      <trkpt lat="48.57844" lon="-3.11116">
        <ele>111.8</ele>
        <time>2025-10-12T09:51:27Z</time>
      </trkpt>
      <trkpt lat="48.57872" lon="-3.11071">
        <ele>113.4</ele>
        <time>2025-10-12T09:51:35Z</time>
      </trkpt>
      <trkpt lat="48.57888" lon="-3.11053">
        <ele>114.2</ele>
        <time>2025-10-12T09:51:39Z</time>
      </trkpt>
      <trkpt lat="48.57904" lon="-3.11045">
        <ele>114.4</ele>
        <time>2025-10-12T09:51:42Z</time>
      </trkpt>
      <trkpt lat="48.57915" lon="-3.11047">
        <ele>114.6</ele>
        <time>2025-10-12T09:51:44Z</time>
      </trkpt>
      <trkpt lat="48.57926" lon="-3.11055">
        <ele>114.8</ele>
        <time>2025-10-12T09:51:46Z</time>
      </trkpt>
      <trkpt lat="48.57938" lon="-3.11078">
        <ele>114.8</ele>
        <time>2025-10-12T09:51:49Z</time>
      </trkpt>
      <trkpt lat="48.57961" lon="-3.11146">
        <ele>114.2</ele>
        <time>2025-10-12T09:51:57Z</time>
      </trkpt>
      <trkpt lat="48.57978" lon="-3.11176">
        <ele>113.8</ele>
        <time>2025-10-12T09:52:01Z</time>
      </trkpt>
      <trkpt lat="48.57995" lon="-3.11193">
        <ele>113.4</ele>
        <time>2025-10-12T09:52:04Z</time>
      </trkpt>
      <trkpt lat="48.58012" lon="-3.112">
        <ele>113.4</ele>
        <time>2025-10-12T09:52:07Z</time>
      </trkpt>
      <trkpt lat="48.58032" lon="-3.112">
        <ele>113.8</ele>
        <time>2025-10-12T09:52:10Z</time>
      </trkpt>
      <trkpt lat="48.58073" lon="-3.11183">
        <ele>114.6</ele>
        <time>2025-10-12T09:52:18Z</time>
      </trkpt>
      <trkpt lat="48.58118" lon="-3.11163">
        <ele>115.6</ele>
        <time>2025-10-12T09:52:26Z</time>
      </trkpt>
      <trkpt lat="48.58167" lon="-3.11137">
        <ele>115.6</ele>
        <time>2025-10-12T09:52:34Z</time>
      </trkpt>
      <trkpt lat="48.58201" lon="-3.11122">
        <ele>115.4</ele>
        <time>2025-10-12T09:52:40Z</time>
      </trkpt>
      <trkpt lat="48.58231" lon="-3.11107">
        <ele>115.6</ele>
        <time>2025-10-12T09:52:45Z</time>
      </trkpt>
      <trkpt lat="48.58259" lon="-3.11084">
        <ele>115.4</ele>
        <time>2025-10-12T09:52:50Z</time>
      </trkpt>
      <trkpt lat="48.58302" lon="-3.11043">
        <ele>115</ele>
        <time>2025-10-12T09:52:58Z</time>
      </trkpt>
      <trkpt lat="48.58344" lon="-3.11005">
        <ele>114.8</ele>
        <time>2025-10-12T09:53:07Z</time>
      </trkpt>
      <trkpt lat="48.58389" lon="-3.10966">
        <ele>114.6</ele>
        <time>2025-10-12T09:53:15Z</time>
      </trkpt>
      <trkpt lat="48.58437" lon="-3.1093">
        <ele>113.4</ele>
        <time>2025-10-12T09:53:23Z</time>
      </trkpt>
      <trkpt lat="48.58483" lon="-3.10891">
        <ele>112.6</ele>
        <time>2025-10-12T09:53:31Z</time>
      </trkpt>
      <trkpt lat="48.58526" lon="-3.10855">
        <ele>112.4</ele>
        <time>2025-10-12T09:53:39Z</time>
      </trkpt>
      <trkpt lat="48.5857" lon="-3.10819">
        <ele>112.6</ele>
        <time>2025-10-12T09:53:47Z</time>
      </trkpt>
      <trkpt lat="48.58614" lon="-3.10782">
        <ele>112.2</ele>
        <time>2025-10-12T09:53:55Z</time>
      </trkpt>
      <trkpt lat="48.5864" lon="-3.10755">
        <ele>111.8</ele>
        <time>2025-10-12T09:54:00Z</time>
      </trkpt>
      <trkpt lat="48.58668" lon="-3.10711">
        <ele>111.4</ele>
        <time>2025-10-12T09:54:06Z</time>
      </trkpt>
      <trkpt lat="48.58703" lon="-3.10651">
        <ele>110.6</ele>
        <time>2025-10-12T09:54:14Z</time>
      </trkpt>
      <trkpt lat="48.58723" lon="-3.10612">
        <ele>110.4</ele>
        <time>2025-10-12T09:54:20Z</time>
      </trkpt>
      <trkpt lat="48.58735" lon="-3.10573">
        <ele>110</ele>
        <time>2025-10-12T09:54:24Z</time>
      </trkpt>
      <trkpt lat="48.58747" lon="-3.10496">
        <ele>109.2</ele>
        <time>2025-10-12T09:54:32Z</time>
      </trkpt>
      <trkpt lat="48.58755" lon="-3.10449">
        <ele>108.8</ele>
        <time>2025-10-12T09:54:37Z</time>
      </trkpt>
      <trkpt lat="48.58767" lon="-3.10416">
        <ele>108.2</ele>
        <time>2025-10-12T09:54:41Z</time>
      </trkpt>
      <trkpt lat="48.58789" lon="-3.10377">
        <ele>107.8</ele>
        <time>2025-10-12T09:54:46Z</time>
      </trkpt>
      <trkpt lat="48.58833" lon="-3.10321">
        <ele>106.8</ele>
        <time>2025-10-12T09:54:54Z</time>
      </trkpt>
      <trkpt lat="48.58858" lon="-3.10295">
        <ele>106.4</ele>
        <time>2025-10-12T09:54:59Z</time>
      </trkpt>
      <trkpt lat="48.58882" lon="-3.10279">
        <ele>106.4</ele>
        <time>2025-10-12T09:55:03Z</time>
      </trkpt>
      <trkpt lat="48.589" lon="-3.10274">
        <ele>106.2</ele>
        <time>2025-10-12T09:55:06Z</time>
      </trkpt>
      <trkpt lat="48.58943" lon="-3.10278">
        <ele>106</ele>
        <time>2025-10-12T09:55:13Z</time>
      </trkpt>
      <trkpt lat="48.58963" lon="-3.10272">
        <ele>106</ele>
        <time>2025-10-12T09:55:17Z</time>
      </trkpt>
      <trkpt lat="48.59012" lon="-3.10246">
        <ele>106.4</ele>
        <time>2025-10-12T09:55:26Z</time>
      </trkpt>
      <trkpt lat="48.59051" lon="-3.10231">
        <ele>106.2</ele>
        <time>2025-10-12T09:55:33Z</time>
      </trkpt>
      <trkpt lat="48.5908" lon="-3.1023">
        <ele>106.4</ele>
        <time>2025-10-12T09:55:38Z</time>
      </trkpt>
      <trkpt lat="48.59111" lon="-3.10228">
        <ele>106.4</ele>
        <time>2025-10-12T09:55:43Z</time>
      </trkpt>
      <trkpt lat="48.59135" lon="-3.10218">
        <ele>106.2</ele>
        <time>2025-10-12T09:55:47Z</time>
      </trkpt>
      <trkpt lat="48.59183" lon="-3.10188">
        <ele>105.8</ele>
        <time>2025-10-12T09:55:55Z</time>
      </trkpt>
      <trkpt lat="48.59228" lon="-3.10153">
        <ele>105.4</ele>
        <time>2025-10-12T09:56:03Z</time>
      </trkpt>
      <trkpt lat="48.59271" lon="-3.10124">
        <ele>104.6</ele>
        <time>2025-10-12T09:56:10Z</time>
      </trkpt>
      <trkpt lat="48.59321" lon="-3.10111">
        <ele>104.2</ele>
        <time>2025-10-12T09:56:18Z</time>
      </trkpt>
      <trkpt lat="48.59331" lon="-3.10112">
        <ele>104.2</ele>
        <time>2025-10-12T09:56:20Z</time>
      </trkpt>
      <trkpt lat="48.59341" lon="-3.10118">
        <ele>104.2</ele>
        <time>2025-10-12T09:56:22Z</time>
      </trkpt>
      <trkpt lat="48.59372" lon="-3.10158">
        <ele>104.6</ele>
        <time>2025-10-12T09:56:28Z</time>
      </trkpt>
      <trkpt lat="48.59386" lon="-3.10168">
        <ele>104.6</ele>
        <time>2025-10-12T09:56:31Z</time>
      </trkpt>
      <trkpt lat="48.59431" lon="-3.10181">
        <ele>104.4</ele>
        <time>2025-10-12T09:56:38Z</time>
      </trkpt>
      <trkpt lat="48.59477" lon="-3.10192">
        <ele>104.4</ele>
        <time>2025-10-12T09:56:46Z</time>
      </trkpt>
      <trkpt lat="48.59528" lon="-3.10208">
        <ele>104.2</ele>
        <time>2025-10-12T09:56:54Z</time>
      </trkpt>
      <trkpt lat="48.59545" lon="-3.10218">
        <ele>104.4</ele>
        <time>2025-10-12T09:56:57Z</time>
      </trkpt>
      <trkpt lat="48.59565" lon="-3.10241">
        <ele>104.4</ele>
        <time>2025-10-12T09:57:01Z</time>
      </trkpt>
      <trkpt lat="48.59602" lon="-3.1029">
        <ele>104</ele>
        <time>2025-10-12T09:57:09Z</time>
      </trkpt>
      <trkpt lat="48.59644" lon="-3.10349">
        <ele>103.4</ele>
        <time>2025-10-12T09:57:17Z</time>
      </trkpt>
      <trkpt lat="48.59663" lon="-3.1037">
        <ele>102.8</ele>
        <time>2025-10-12T09:57:21Z</time>
      </trkpt>
      <trkpt lat="48.59698" lon="-3.10391">
        <ele>102.8</ele>
        <time>2025-10-12T09:57:27Z</time>
      </trkpt>
      <trkpt lat="48.59745" lon="-3.10418">
        <ele>102.6</ele>
        <time>2025-10-12T09:57:35Z</time>
      </trkpt>
      <trkpt lat="48.59794" lon="-3.10447">
        <ele>102.2</ele>
        <time>2025-10-12T09:57:43Z</time>
      </trkpt>
      <trkpt lat="48.5982" lon="-3.10461">
        <ele>101.6</ele>
        <time>2025-10-12T09:57:48Z</time>
      </trkpt>
      <trkpt lat="48.59841" lon="-3.10463">
        <ele>101</ele>
        <time>2025-10-12T09:57:51Z</time>
      </trkpt>
      <trkpt lat="48.59861" lon="-3.10453">
        <ele>100.8</ele>
        <time>2025-10-12T09:57:54Z</time>
      </trkpt>
      <trkpt lat="48.59882" lon="-3.10429">
        <ele>100.8</ele>
        <time>2025-10-12T09:57:58Z</time>
      </trkpt>
      <trkpt lat="48.59918" lon="-3.10378">
        <ele>101.4</ele>
        <time>2025-10-12T09:58:06Z</time>
      </trkpt>
      <trkpt lat="48.59948" lon="-3.10333">
        <ele>101.6</ele>
        <time>2025-10-12T09:58:13Z</time>
      </trkpt>
      <trkpt lat="48.59976" lon="-3.10273">
        <ele>101.8</ele>
        <time>2025-10-12T09:58:21Z</time>
      </trkpt>
      <trkpt lat="48.60002" lon="-3.10212">
        <ele>102.2</ele>
        <time>2025-10-12T09:58:29Z</time>
      </trkpt>
      <trkpt lat="48.60018" lon="-3.10183">
        <ele>102.2</ele>
        <time>2025-10-12T09:58:33Z</time>
      </trkpt>
      <trkpt lat="48.60033" lon="-3.10167">
        <ele>102.2</ele>
        <time>2025-10-12T09:58:36Z</time>
      </trkpt>
      <trkpt lat="48.60051" lon="-3.1016">
        <ele>102.2</ele>
        <time>2025-10-12T09:58:39Z</time>
      </trkpt>
      <trkpt lat="48.601" lon="-3.10164">
        <ele>102.6</ele>
        <time>2025-10-12T09:58:47Z</time>
      </trkpt>
      <trkpt lat="48.6013" lon="-3.10172">
        <ele>103</ele>
        <time>2025-10-12T09:58:52Z</time>
      </trkpt>
      <trkpt lat="48.60173" lon="-3.1019">
        <ele>103.4</ele>
        <time>2025-10-12T09:59:00Z</time>
      </trkpt>
      <trkpt lat="48.60224" lon="-3.10211">
        <ele>103.2</ele>
        <time>2025-10-12T09:59:08Z</time>
      </trkpt>
      <trkpt lat="48.60273" lon="-3.10229">
        <ele>102.8</ele>
        <time>2025-10-12T09:59:16Z</time>
      </trkpt>
      <trkpt lat="48.60305" lon="-3.10232">
        <ele>102.6</ele>
        <time>2025-10-12T09:59:21Z</time>
      </trkpt>
      <trkpt lat="48.60359" lon="-3.10227">
        <ele>102.6</ele>
        <time>2025-10-12T09:59:29Z</time>
      </trkpt>
      <trkpt lat="48.60411" lon="-3.10222">
        <ele>102.8</ele>
        <time>2025-10-12T09:59:37Z</time>
      </trkpt>
      <trkpt lat="48.60455" lon="-3.10214">
        <ele>102.6</ele>
        <time>2025-10-12T09:59:44Z</time>
      </trkpt>
      <trkpt lat="48.60475" lon="-3.10217">
        <ele>102.4</ele>
        <time>2025-10-12T09:59:47Z</time>
      </trkpt>
      <trkpt lat="48.60496" lon="-3.10233">
        <ele>102</ele>
        <time>2025-10-12T09:59:51Z</time>
      </trkpt>
      <trkpt lat="48.60531" lon="-3.1027">
        <ele>101.6</ele>
        <time>2025-10-12T09:59:57Z</time>
      </trkpt>
      <trkpt lat="48.60569" lon="-3.10325">
        <ele>100.8</ele>
        <time>2025-10-12T10:00:06Z</time>
      </trkpt>
      <trkpt lat="48.60608" lon="-3.1038">
        <ele>100.4</ele>
        <time>2025-10-12T10:00:14Z</time>
      </trkpt>
      <trkpt lat="48.60644" lon="-3.10436">
        <ele>100</ele>
        <time>2025-10-12T10:00:22Z</time>
      </trkpt>
      <trkpt lat="48.60671" lon="-3.10494">
        <ele>100</ele>
        <time>2025-10-12T10:00:29Z</time>
      </trkpt>
      <trkpt lat="48.60684" lon="-3.1051">
        <ele>100.2</ele>
        <time>2025-10-12T10:00:32Z</time>
      </trkpt>
      <trkpt lat="48.60728" lon="-3.10538">
        <ele>100</ele>
        <time>2025-10-12T10:00:39Z</time>
      </trkpt>
      <trkpt lat="48.60766" lon="-3.10553">
        <ele>99.4</ele>
        <time>2025-10-12T10:00:45Z</time>
      </trkpt>
      <trkpt lat="48.60814" lon="-3.10571">
        <ele>98.8</ele>
        <time>2025-10-12T10:00:52Z</time>
      </trkpt>
      <trkpt lat="48.60864" lon="-3.10597">
        <ele>98.2</ele>
        <time>2025-10-12T10:01:00Z</time>
      </trkpt>
      <trkpt lat="48.60914" lon="-3.10621">
        <ele>98</ele>
        <time>2025-10-12T10:01:08Z</time>
      </trkpt>
      <trkpt lat="48.60966" lon="-3.10643">
        <ele>97.8</ele>
        <time>2025-10-12T10:01:16Z</time>
      </trkpt>
      <trkpt lat="48.61016" lon="-3.10659">
        <ele>97.8</ele>
        <time>2025-10-12T10:01:24Z</time>
      </trkpt>
      <trkpt lat="48.61063" lon="-3.10674">
        <ele>98.4</ele>
        <time>2025-10-12T10:01:32Z</time>
      </trkpt>
      <trkpt lat="48.61109" lon="-3.10689">
        <ele>99.4</ele>
        <time>2025-10-12T10:01:40Z</time>
      </trkpt>
      <trkpt lat="48.61153" lon="-3.10701">
        <ele>101</ele>
        <time>2025-10-12T10:01:48Z</time>
      </trkpt>
      <trkpt lat="48.61192" lon="-3.10709">
        <ele>102.2</ele>
        <time>2025-10-12T10:01:55Z</time>
      </trkpt>
      <trkpt lat="48.61207" lon="-3.10707">
        <ele>102.4</ele>
        <time>2025-10-12T10:01:58Z</time>
      </trkpt>
      <trkpt lat="48.61219" lon="-3.10698">
        <ele>102.6</ele>
        <time>2025-10-12T10:02:02Z</time>
      </trkpt>
      <trkpt lat="48.61218" lon="-3.10697">
        <ele>102.6</ele>
        <time>2025-10-12T10:02:05Z</time>
      </trkpt>
      <trkpt lat="48.61227" lon="-3.10656">
        <ele>102.4</ele>
        <time>2025-10-12T10:02:17Z</time>
      </trkpt>
      <trkpt lat="48.6124" lon="-3.1062">
        <ele>102.2</ele>
        <time>2025-10-12T10:02:22Z</time>
      </trkpt>
      <trkpt lat="48.61268" lon="-3.10559">
        <ele>101.2</ele>
        <time>2025-10-12T10:02:31Z</time>
      </trkpt>
      <trkpt lat="48.6129" lon="-3.10503">
        <ele>101</ele>
        <time>2025-10-12T10:02:38Z</time>
      </trkpt>
      <trkpt lat="48.61311" lon="-3.10442">
        <ele>100.8</ele>
        <time>2025-10-12T10:02:46Z</time>
      </trkpt>
      <trkpt lat="48.61334" lon="-3.10376">
        <ele>100.6</ele>
        <time>2025-10-12T10:02:54Z</time>
      </trkpt>
      <trkpt lat="48.61355" lon="-3.10315">
        <ele>101</ele>
        <time>2025-10-12T10:03:02Z</time>
      </trkpt>
      <trkpt lat="48.61377" lon="-3.10252">
        <ele>101.4</ele>
        <time>2025-10-12T10:03:10Z</time>
      </trkpt>
      <trkpt lat="48.614" lon="-3.10187">
        <ele>101.4</ele>
        <time>2025-10-12T10:03:18Z</time>
      </trkpt>
      <trkpt lat="48.61423" lon="-3.10121">
        <ele>100.8</ele>
        <time>2025-10-12T10:03:26Z</time>
      </trkpt>
      <trkpt lat="48.61447" lon="-3.10052">
        <ele>100.2</ele>
        <time>2025-10-12T10:03:34Z</time>
      </trkpt>
      <trkpt lat="48.6147" lon="-3.09985">
        <ele>99.8</ele>
        <time>2025-10-12T10:03:42Z</time>
      </trkpt>
      <trkpt lat="48.61494" lon="-3.09918">
        <ele>99.2</ele>
        <time>2025-10-12T10:03:50Z</time>
      </trkpt>
      <trkpt lat="48.61517" lon="-3.09849">
        <ele>98.8</ele>
        <time>2025-10-12T10:03:58Z</time>
      </trkpt>
      <trkpt lat="48.61539" lon="-3.09784">
        <ele>98</ele>
        <time>2025-10-12T10:04:06Z</time>
      </trkpt>
      <trkpt lat="48.61564" lon="-3.09713">
        <ele>97.4</ele>
        <time>2025-10-12T10:04:14Z</time>
      </trkpt>
      <trkpt lat="48.61588" lon="-3.09647">
        <ele>97.6</ele>
        <time>2025-10-12T10:04:22Z</time>
      </trkpt>
      <trkpt lat="48.61609" lon="-3.09586">
        <ele>98</ele>
        <time>2025-10-12T10:04:30Z</time>
      </trkpt>
      <trkpt lat="48.61625" lon="-3.09539">
        <ele>98.2</ele>
        <time>2025-10-12T10:04:36Z</time>
      </trkpt>
      <trkpt lat="48.6163" lon="-3.09523">
        <ele>98.2</ele>
        <time>2025-10-12T10:04:38Z</time>
      </trkpt>
      <trkpt lat="48.61638" lon="-3.09515">
        <ele>98.2</ele>
        <time>2025-10-12T10:04:40Z</time>
      </trkpt>
      <trkpt lat="48.61665" lon="-3.09504">
        <ele>98.4</ele>
        <time>2025-10-12T10:04:45Z</time>
      </trkpt>
      <trkpt lat="48.61684" lon="-3.09487">
        <ele>98.4</ele>
        <time>2025-10-12T10:04:50Z</time>
      </trkpt>
      <trkpt lat="48.61706" lon="-3.09454">
        <ele>98.4</ele>
        <time>2025-10-12T10:04:55Z</time>
      </trkpt>
      <trkpt lat="48.61731" lon="-3.09396">
        <ele>99</ele>
        <time>2025-10-12T10:05:03Z</time>
      </trkpt>
      <trkpt lat="48.61755" lon="-3.09339">
        <ele>99.2</ele>
        <time>2025-10-12T10:05:11Z</time>
      </trkpt>
      <trkpt lat="48.61778" lon="-3.09279">
        <ele>99</ele>
        <time>2025-10-12T10:05:18Z</time>
      </trkpt>
      <trkpt lat="48.61781" lon="-3.09262">
        <ele>99</ele>
        <time>2025-10-12T10:05:20Z</time>
      </trkpt>
      <trkpt lat="48.61778" lon="-3.09226">
        <ele>99</ele>
        <time>2025-10-12T10:05:24Z</time>
      </trkpt>
      <trkpt lat="48.61775" lon="-3.09188">
        <ele>98.8</ele>
        <time>2025-10-12T10:05:28Z</time>
      </trkpt>
      <trkpt lat="48.61774" lon="-3.09116">
        <ele>98.8</ele>
        <time>2025-10-12T10:05:36Z</time>
      </trkpt>
      <trkpt lat="48.61774" lon="-3.09043">
        <ele>98.6</ele>
        <time>2025-10-12T10:05:44Z</time>
      </trkpt>
      <trkpt lat="48.61774" lon="-3.08976">
        <ele>98.2</ele>
        <time>2025-10-12T10:05:52Z</time>
      </trkpt>
      <trkpt lat="48.61775" lon="-3.08928">
        <ele>98</ele>
        <time>2025-10-12T10:05:58Z</time>
      </trkpt>
      <trkpt lat="48.61773" lon="-3.08894">
        <ele>98.2</ele>
        <time>2025-10-12T10:06:02Z</time>
      </trkpt>
      <trkpt lat="48.6178" lon="-3.08843">
        <ele>98.4</ele>
        <time>2025-10-12T10:06:08Z</time>
      </trkpt>
      <trkpt lat="48.61787" lon="-3.08817">
        <ele>98.2</ele>
        <time>2025-10-12T10:06:11Z</time>
      </trkpt>
      <trkpt lat="48.61799" lon="-3.08796">
        <ele>98.2</ele>
        <time>2025-10-12T10:06:14Z</time>
      </trkpt>
      <trkpt lat="48.61839" lon="-3.08758">
        <ele>98.2</ele>
        <time>2025-10-12T10:06:22Z</time>
      </trkpt>
      <trkpt lat="48.61847" lon="-3.08746">
        <ele>98.4</ele>
        <time>2025-10-12T10:06:24Z</time>
      </trkpt>
      <trkpt lat="48.61852" lon="-3.08724">
        <ele>98.8</ele>
        <time>2025-10-12T10:06:27Z</time>
      </trkpt>
      <trkpt lat="48.61853" lon="-3.08711">
        <ele>99</ele>
        <time>2025-10-12T10:06:29Z</time>
      </trkpt>
      <trkpt lat="48.61857" lon="-3.08705">
        <ele>99</ele>
        <time>2025-10-12T10:06:30Z</time>
      </trkpt>
      <trkpt lat="48.6186" lon="-3.08702">
        <ele>99.2</ele>
        <time>2025-10-12T10:06:31Z</time>
      </trkpt>
      <trkpt lat="48.61869" lon="-3.08704">
        <ele>99.2</ele>
        <time>2025-10-12T10:06:33Z</time>
      </trkpt>
      <trkpt lat="48.61895" lon="-3.08718">
        <ele>99.6</ele>
        <time>2025-10-12T10:06:38Z</time>
      </trkpt>
      <trkpt lat="48.61915" lon="-3.0872">
        <ele>99.8</ele>
        <time>2025-10-12T10:06:42Z</time>
      </trkpt>
      <trkpt lat="48.61925" lon="-3.08715">
        <ele>100</ele>
        <time>2025-10-12T10:06:45Z</time>
      </trkpt>
      <trkpt lat="48.61928" lon="-3.08701">
        <ele>100</ele>
        <time>2025-10-12T10:06:47Z</time>
      </trkpt>
      <trkpt lat="48.61928" lon="-3.08656">
        <ele>99.6</ele>
        <time>2025-10-12T10:06:52Z</time>
      </trkpt>
      <trkpt lat="48.61938" lon="-3.08594">
        <ele>99</ele>
        <time>2025-10-12T10:06:59Z</time>
      </trkpt>
      <trkpt lat="48.61944" lon="-3.08535">
        <ele>98</ele>
        <time>2025-10-12T10:07:05Z</time>
      </trkpt>
      <trkpt lat="48.61951" lon="-3.08495">
        <ele>97.2</ele>
        <time>2025-10-12T10:07:10Z</time>
      </trkpt>
      <trkpt lat="48.61951" lon="-3.08454">
        <ele>95.6</ele>
        <time>2025-10-12T10:07:14Z</time>
      </trkpt>
      <trkpt lat="48.6195" lon="-3.08369">
        <ele>93</ele>
        <time>2025-10-12T10:07:22Z</time>
      </trkpt>
      <trkpt lat="48.61946" lon="-3.08279">
        <ele>91</ele>
        <time>2025-10-12T10:07:30Z</time>
      </trkpt>
      <trkpt lat="48.61932" lon="-3.08191">
        <ele>89.8</ele>
        <time>2025-10-12T10:07:38Z</time>
      </trkpt>
      <trkpt lat="48.61923" lon="-3.08125">
        <ele>91</ele>
        <time>2025-10-12T10:07:46Z</time>
      </trkpt>
      <trkpt lat="48.61913" lon="-3.08056">
        <ele>92.4</ele>
        <time>2025-10-12T10:07:54Z</time>
      </trkpt>
      <trkpt lat="48.61905" lon="-3.07991">
        <ele>93.2</ele>
        <time>2025-10-12T10:08:02Z</time>
      </trkpt>
      <trkpt lat="48.61892" lon="-3.07924">
        <ele>93.2</ele>
        <time>2025-10-12T10:08:09Z</time>
      </trkpt>
      <trkpt lat="48.61871" lon="-3.07853">
        <ele>92.6</ele>
        <time>2025-10-12T10:08:17Z</time>
      </trkpt>
      <trkpt lat="48.61852" lon="-3.07786">
        <ele>91.8</ele>
        <time>2025-10-12T10:08:25Z</time>
      </trkpt>
      <trkpt lat="48.61831" lon="-3.07715">
        <ele>91</ele>
        <time>2025-10-12T10:08:33Z</time>
      </trkpt>
      <trkpt lat="48.61809" lon="-3.07644">
        <ele>90.6</ele>
        <time>2025-10-12T10:08:41Z</time>
      </trkpt>
      <trkpt lat="48.61789" lon="-3.07572">
        <ele>89.6</ele>
        <time>2025-10-12T10:08:49Z</time>
      </trkpt>
      <trkpt lat="48.61766" lon="-3.07484">
        <ele>87.2</ele>
        <time>2025-10-12T10:08:56Z</time>
      </trkpt>
      <trkpt lat="48.61755" lon="-3.07433">
        <ele>85.4</ele>
        <time>2025-10-12T10:09:00Z</time>
      </trkpt>
      <trkpt lat="48.61745" lon="-3.07329">
        <ele>82.4</ele>
        <time>2025-10-12T10:09:08Z</time>
      </trkpt>
      <trkpt lat="48.61727" lon="-3.07242">
        <ele>81.4</ele>
        <time>2025-10-12T10:09:16Z</time>
      </trkpt>
      <trkpt lat="48.61715" lon="-3.07171">
        <ele>82.2</ele>
        <time>2025-10-12T10:09:24Z</time>
      </trkpt>
      <trkpt lat="48.61701" lon="-3.07109">
        <ele>83.6</ele>
        <time>2025-10-12T10:09:33Z</time>
      </trkpt>
      <trkpt lat="48.61686" lon="-3.07064">
        <ele>84.8</ele>
        <time>2025-10-12T10:09:39Z</time>
      </trkpt>
      <trkpt lat="48.61669" lon="-3.07028">
        <ele>86.4</ele>
        <time>2025-10-12T10:09:45Z</time>
      </trkpt>
      <trkpt lat="48.61644" lon="-3.06989">
        <ele>88.2</ele>
        <time>2025-10-12T10:09:53Z</time>
      </trkpt>
      <trkpt lat="48.61632" lon="-3.06955">
        <ele>89.6</ele>
        <time>2025-10-12T10:09:59Z</time>
      </trkpt>
      <trkpt lat="48.61621" lon="-3.06904">
        <ele>91.4</ele>
        <time>2025-10-12T10:10:07Z</time>
      </trkpt>
      <trkpt lat="48.6161" lon="-3.06851">
        <ele>92.8</ele>
        <time>2025-10-12T10:10:15Z</time>
      </trkpt>
      <trkpt lat="48.61601" lon="-3.06797">
        <ele>93.6</ele>
        <time>2025-10-12T10:10:23Z</time>
      </trkpt>
      <trkpt lat="48.6159" lon="-3.06728">
        <ele>93.2</ele>
        <time>2025-10-12T10:10:31Z</time>
      </trkpt>
      <trkpt lat="48.6158" lon="-3.06652">
        <ele>92.2</ele>
        <time>2025-10-12T10:10:39Z</time>
      </trkpt>
      <trkpt lat="48.61572" lon="-3.0659">
        <ele>92</ele>
        <time>2025-10-12T10:10:46Z</time>
      </trkpt>
      <trkpt lat="48.61557" lon="-3.06517">
        <ele>91.2</ele>
        <time>2025-10-12T10:10:54Z</time>
      </trkpt>
      <trkpt lat="48.61538" lon="-3.06434">
        <ele>89.4</ele>
        <time>2025-10-12T10:11:02Z</time>
      </trkpt>
      <trkpt lat="48.6152" lon="-3.06344">
        <ele>87.4</ele>
        <time>2025-10-12T10:11:10Z</time>
      </trkpt>
      <trkpt lat="48.61508" lon="-3.0626">
        <ele>85.6</ele>
        <time>2025-10-12T10:11:17Z</time>
      </trkpt>
      <trkpt lat="48.61491" lon="-3.06168">
        <ele>84.2</ele>
        <time>2025-10-12T10:11:25Z</time>
      </trkpt>
      <trkpt lat="48.61478" lon="-3.06101">
        <ele>82.2</ele>
        <time>2025-10-12T10:11:31Z</time>
      </trkpt>
      <trkpt lat="48.61456" lon="-3.06026">
        <ele>80.8</ele>
        <time>2025-10-12T10:11:38Z</time>
      </trkpt>
      <trkpt lat="48.61433" lon="-3.05958">
        <ele>81.2</ele>
        <time>2025-10-12T10:11:46Z</time>
      </trkpt>
      <trkpt lat="48.61411" lon="-3.05895">
        <ele>81.6</ele>
        <time>2025-10-12T10:11:54Z</time>
      </trkpt>
      <trkpt lat="48.61401" lon="-3.05852">
        <ele>82</ele>
        <time>2025-10-12T10:12:00Z</time>
      </trkpt>
      <trkpt lat="48.61395" lon="-3.05799">
        <ele>82</ele>
        <time>2025-10-12T10:12:06Z</time>
      </trkpt>
      <trkpt lat="48.61394" lon="-3.05722">
        <ele>81.8</ele>
        <time>2025-10-12T10:12:14Z</time>
      </trkpt>
      <trkpt lat="48.61393" lon="-3.05647">
        <ele>81</ele>
        <time>2025-10-12T10:12:22Z</time>
      </trkpt>
      <trkpt lat="48.61391" lon="-3.05572">
        <ele>80.6</ele>
        <time>2025-10-12T10:12:30Z</time>
      </trkpt>
      <trkpt lat="48.61389" lon="-3.05493">
        <ele>80</ele>
        <time>2025-10-12T10:12:38Z</time>
      </trkpt>
      <trkpt lat="48.61388" lon="-3.05418">
        <ele>79.6</ele>
        <time>2025-10-12T10:12:46Z</time>
      </trkpt>
      <trkpt lat="48.61392" lon="-3.05386">
        <ele>79.4</ele>
        <time>2025-10-12T10:12:49Z</time>
      </trkpt>
      <trkpt lat="48.61408" lon="-3.0532">
        <ele>79.6</ele>
        <time>2025-10-12T10:12:57Z</time>
      </trkpt>
      <trkpt lat="48.61418" lon="-3.05266">
        <ele>79.6</ele>
        <time>2025-10-12T10:13:03Z</time>
      </trkpt>
      <trkpt lat="48.61425" lon="-3.05195">
        <ele>79.8</ele>
        <time>2025-10-12T10:13:11Z</time>
      </trkpt>
      <trkpt lat="48.61431" lon="-3.05137">
        <ele>80.2</ele>
        <time>2025-10-12T10:13:19Z</time>
      </trkpt>
      <trkpt lat="48.61438" lon="-3.05057">
        <ele>80.6</ele>
        <time>2025-10-12T10:13:27Z</time>
      </trkpt>
      <trkpt lat="48.61446" lon="-3.04981">
        <ele>80.6</ele>
        <time>2025-10-12T10:13:35Z</time>
      </trkpt>
      <trkpt lat="48.61457" lon="-3.04909">
        <ele>80.6</ele>
        <time>2025-10-12T10:13:43Z</time>
      </trkpt>
      <trkpt lat="48.61468" lon="-3.04831">
        <ele>81</ele>
        <time>2025-10-12T10:13:51Z</time>
      </trkpt>
      <trkpt lat="48.61474" lon="-3.04773">
        <ele>81.4</ele>
        <time>2025-10-12T10:13:58Z</time>
      </trkpt>
      <trkpt lat="48.61472" lon="-3.04731">
        <ele>82</ele>
        <time>2025-10-12T10:14:04Z</time>
      </trkpt>
      <trkpt lat="48.61465" lon="-3.0465">
        <ele>82.8</ele>
        <time>2025-10-12T10:14:12Z</time>
      </trkpt>
      <trkpt lat="48.61465" lon="-3.04579">
        <ele>82.4</ele>
        <time>2025-10-12T10:14:20Z</time>
      </trkpt>
      <trkpt lat="48.61468" lon="-3.04507">
        <ele>82.2</ele>
        <time>2025-10-12T10:14:29Z</time>
      </trkpt>
      <trkpt lat="48.61471" lon="-3.04434">
        <ele>82</ele>
        <time>2025-10-12T10:14:37Z</time>
      </trkpt>
      <trkpt lat="48.61473" lon="-3.04407">
        <ele>82</ele>
        <time>2025-10-12T10:14:40Z</time>
      </trkpt>
      <trkpt lat="48.61482" lon="-3.04375">
        <ele>82.2</ele>
        <time>2025-10-12T10:14:44Z</time>
      </trkpt>
      <trkpt lat="48.61508" lon="-3.04318">
        <ele>83</ele>
        <time>2025-10-12T10:14:52Z</time>
      </trkpt>
      <trkpt lat="48.6153" lon="-3.04265">
        <ele>83.6</ele>
        <time>2025-10-12T10:15:00Z</time>
      </trkpt>
      <trkpt lat="48.61559" lon="-3.04202">
        <ele>84</ele>
        <time>2025-10-12T10:15:08Z</time>
      </trkpt>
      <trkpt lat="48.61591" lon="-3.04151">
        <ele>84.2</ele>
        <time>2025-10-12T10:15:16Z</time>
      </trkpt>
      <trkpt lat="48.61615" lon="-3.04112">
        <ele>84.6</ele>
        <time>2025-10-12T10:15:22Z</time>
      </trkpt>
      <trkpt lat="48.6163" lon="-3.04076">
        <ele>85</ele>
        <time>2025-10-12T10:15:27Z</time>
      </trkpt>
      <trkpt lat="48.61637" lon="-3.04054">
        <ele>85.4</ele>
        <time>2025-10-12T10:15:30Z</time>
      </trkpt>
      <trkpt lat="48.61638" lon="-3.04036">
        <ele>85.8</ele>
        <time>2025-10-12T10:15:32Z</time>
      </trkpt>
      <trkpt lat="48.61633" lon="-3.0402">
        <ele>85.8</ele>
        <time>2025-10-12T10:15:34Z</time>
      </trkpt>
      <trkpt lat="48.61621" lon="-3.03999">
        <ele>85.8</ele>
        <time>2025-10-12T10:15:37Z</time>
      </trkpt>
      <trkpt lat="48.61581" lon="-3.03957">
        <ele>86.2</ele>
        <time>2025-10-12T10:15:45Z</time>
      </trkpt>
      <trkpt lat="48.6154" lon="-3.03912">
        <ele>86</ele>
        <time>2025-10-12T10:15:53Z</time>
      </trkpt>
      <trkpt lat="48.615" lon="-3.03866">
        <ele>85.4</ele>
        <time>2025-10-12T10:16:01Z</time>
      </trkpt>
      <trkpt lat="48.61452" lon="-3.03814">
        <ele>84.8</ele>
        <time>2025-10-12T10:16:09Z</time>
      </trkpt>
      <trkpt lat="48.61412" lon="-3.03768">
        <ele>84</ele>
        <time>2025-10-12T10:16:17Z</time>
      </trkpt>
      <trkpt lat="48.61371" lon="-3.03722">
        <ele>83.2</ele>
        <time>2025-10-12T10:16:25Z</time>
      </trkpt>
      <trkpt lat="48.61322" lon="-3.03671">
        <ele>81.8</ele>
        <time>2025-10-12T10:16:33Z</time>
      </trkpt>
      <trkpt lat="48.61268" lon="-3.03632">
        <ele>79.4</ele>
        <time>2025-10-12T10:16:41Z</time>
      </trkpt>
      <trkpt lat="48.61213" lon="-3.03591">
        <ele>77.4</ele>
        <time>2025-10-12T10:16:50Z</time>
      </trkpt>
      <trkpt lat="48.61188" lon="-3.03568">
        <ele>76.4</ele>
        <time>2025-10-12T10:16:53Z</time>
      </trkpt>
      <trkpt lat="48.61154" lon="-3.03524">
        <ele>73.6</ele>
        <time>2025-10-12T10:16:58Z</time>
      </trkpt>
      <trkpt lat="48.61129" lon="-3.03502">
        <ele>71.6</ele>
        <time>2025-10-12T10:17:01Z</time>
      </trkpt>
      <trkpt lat="48.61091" lon="-3.03476">
        <ele>68.6</ele>
        <time>2025-10-12T10:17:05Z</time>
      </trkpt>
      <trkpt lat="48.61074" lon="-3.03458">
        <ele>67.2</ele>
        <time>2025-10-12T10:17:07Z</time>
      </trkpt>
      <trkpt lat="48.61054" lon="-3.0342">
        <ele>65</ele>
        <time>2025-10-12T10:17:10Z</time>
      </trkpt>
      <trkpt lat="48.61022" lon="-3.03346">
        <ele>61.6</ele>
        <time>2025-10-12T10:17:15Z</time>
      </trkpt>
      <trkpt lat="48.61002" lon="-3.03313">
        <ele>61.8</ele>
        <time>2025-10-12T10:17:18Z</time>
      </trkpt>
      <trkpt lat="48.60979" lon="-3.03284">
        <ele>63.6</ele>
        <time>2025-10-12T10:17:23Z</time>
      </trkpt>
      <trkpt lat="48.6095" lon="-3.03261">
        <ele>66.6</ele>
        <time>2025-10-12T10:17:31Z</time>
      </trkpt>
      <trkpt lat="48.60925" lon="-3.03239">
        <ele>69.2</ele>
        <time>2025-10-12T10:17:39Z</time>
      </trkpt>
      <trkpt lat="48.609" lon="-3.03216">
        <ele>72</ele>
        <time>2025-10-12T10:17:47Z</time>
      </trkpt>
      <trkpt lat="48.60876" lon="-3.03193">
        <ele>74.6</ele>
        <time>2025-10-12T10:17:55Z</time>
      </trkpt>
      <trkpt lat="48.60852" lon="-3.0316">
        <ele>76.4</ele>
        <time>2025-10-12T10:18:03Z</time>
      </trkpt>
      <trkpt lat="48.60824" lon="-3.03114">
        <ele>77</ele>
        <time>2025-10-12T10:18:11Z</time>
      </trkpt>
      <trkpt lat="48.60799" lon="-3.03059">
        <ele>77.4</ele>
        <time>2025-10-12T10:18:19Z</time>
      </trkpt>
      <trkpt lat="48.60776" lon="-3.03002">
        <ele>78.2</ele>
        <time>2025-10-12T10:18:27Z</time>
      </trkpt>
      <trkpt lat="48.60749" lon="-3.02938">
        <ele>79</ele>
        <time>2025-10-12T10:18:35Z</time>
      </trkpt>
      <trkpt lat="48.60728" lon="-3.02886">
        <ele>81</ele>
        <time>2025-10-12T10:18:43Z</time>
      </trkpt>
      <trkpt lat="48.60709" lon="-3.02838">
        <ele>82.6</ele>
        <time>2025-10-12T10:18:51Z</time>
      </trkpt>
      <trkpt lat="48.6069" lon="-3.02792">
        <ele>84.2</ele>
        <time>2025-10-12T10:18:59Z</time>
      </trkpt>
      <trkpt lat="48.60671" lon="-3.02745">
        <ele>85.8</ele>
        <time>2025-10-12T10:19:07Z</time>
      </trkpt>
      <trkpt lat="48.6065" lon="-3.02692">
        <ele>86.4</ele>
        <time>2025-10-12T10:19:16Z</time>
      </trkpt>
      <trkpt lat="48.60626" lon="-3.02633">
        <ele>86.4</ele>
        <time>2025-10-12T10:19:24Z</time>
      </trkpt>
      <trkpt lat="48.60601" lon="-3.02572">
        <ele>86.6</ele>
        <time>2025-10-12T10:19:32Z</time>
      </trkpt>
      <trkpt lat="48.60576" lon="-3.02514">
        <ele>86.6</ele>
        <time>2025-10-12T10:19:40Z</time>
      </trkpt>
      <trkpt lat="48.60565" lon="-3.02493">
        <ele>86.6</ele>
        <time>2025-10-12T10:19:44Z</time>
      </trkpt>
      <trkpt lat="48.60559" lon="-3.02489">
        <ele>86.4</ele>
        <time>2025-10-12T10:19:46Z</time>
      </trkpt>
      <trkpt lat="48.60552" lon="-3.02493">
        <ele>86.4</ele>
        <time>2025-10-12T10:19:48Z</time>
      </trkpt>
      <trkpt lat="48.60527" lon="-3.0254">
        <ele>86.8</ele>
        <time>2025-10-12T10:19:56Z</time>
      </trkpt>
      <trkpt lat="48.60494" lon="-3.02591">
        <ele>87.4</ele>
        <time>2025-10-12T10:20:04Z</time>
      </trkpt>
      <trkpt lat="48.60459" lon="-3.02638">
        <ele>87.8</ele>
        <time>2025-10-12T10:20:12Z</time>
      </trkpt>
      <trkpt lat="48.60423" lon="-3.02683">
        <ele>88.2</ele>
        <time>2025-10-12T10:20:20Z</time>
      </trkpt>
      <trkpt lat="48.60384" lon="-3.02734">
        <ele>88.2</ele>
        <time>2025-10-12T10:20:28Z</time>
      </trkpt>
      <trkpt lat="48.60346" lon="-3.02783">
        <ele>87.8</ele>
        <time>2025-10-12T10:20:36Z</time>
      </trkpt>
      <trkpt lat="48.60306" lon="-3.02834">
        <ele>87.4</ele>
        <time>2025-10-12T10:20:44Z</time>
      </trkpt>
      <trkpt lat="48.60264" lon="-3.02891">
        <ele>86.2</ele>
        <time>2025-10-12T10:20:52Z</time>
      </trkpt>
      <trkpt lat="48.60217" lon="-3.02966">
        <ele>84.6</ele>
        <time>2025-10-12T10:21:00Z</time>
      </trkpt>
      <trkpt lat="48.60176" lon="-3.03044">
        <ele>82.6</ele>
        <time>2025-10-12T10:21:08Z</time>
      </trkpt>
      <trkpt lat="48.60138" lon="-3.0313">
        <ele>79.4</ele>
        <time>2025-10-12T10:21:16Z</time>
      </trkpt>
      <trkpt lat="48.60095" lon="-3.03239">
        <ele>75.2</ele>
        <time>2025-10-12T10:21:24Z</time>
      </trkpt>
      <trkpt lat="48.60046" lon="-3.03362">
        <ele>71</ele>
        <time>2025-10-12T10:21:32Z</time>
      </trkpt>
      <trkpt lat="48.60004" lon="-3.03466">
        <ele>70.6</ele>
        <time>2025-10-12T10:21:41Z</time>
      </trkpt>
      <trkpt lat="48.59993" lon="-3.03498">
        <ele>71.4</ele>
        <time>2025-10-12T10:21:44Z</time>
      </trkpt>
      <trkpt lat="48.59993" lon="-3.03508">
        <ele>71.8</ele>
        <time>2025-10-12T10:21:45Z</time>
      </trkpt>
      <trkpt lat="48.59995" lon="-3.03517">
        <ele>72</ele>
        <time>2025-10-12T10:21:46Z</time>
      </trkpt>
      <trkpt lat="48.60005" lon="-3.03531">
        <ele>72.2</ele>
        <time>2025-10-12T10:21:48Z</time>
      </trkpt>
      <trkpt lat="48.60052" lon="-3.03569">
        <ele>71.6</ele>
        <time>2025-10-12T10:21:55Z</time>
      </trkpt>
      <trkpt lat="48.60071" lon="-3.03576">
        <ele>71.8</ele>
        <time>2025-10-12T10:21:58Z</time>
      </trkpt>
      <trkpt lat="48.601" lon="-3.0358">
        <ele>72</ele>
        <time>2025-10-12T10:22:03Z</time>
      </trkpt>
      <trkpt lat="48.60117" lon="-3.03588">
        <ele>72</ele>
        <time>2025-10-12T10:22:06Z</time>
      </trkpt>
      <trkpt lat="48.60153" lon="-3.03619">
        <ele>72</ele>
        <time>2025-10-12T10:22:14Z</time>
      </trkpt>
      <trkpt lat="48.60187" lon="-3.0364">
        <ele>72</ele>
        <time>2025-10-12T10:22:22Z</time>
      </trkpt>
      <trkpt lat="48.60202" lon="-3.03656">
        <ele>72.2</ele>
        <time>2025-10-12T10:22:27Z</time>
      </trkpt>
      <trkpt lat="48.60216" lon="-3.03679">
        <ele>72.2</ele>
        <time>2025-10-12T10:22:32Z</time>
      </trkpt>
      <trkpt lat="48.60218" lon="-3.03689">
        <ele>72.4</ele>
        <time>2025-10-12T10:22:34Z</time>
      </trkpt>
      <trkpt lat="48.60214" lon="-3.03693">
        <ele>72.6</ele>
        <time>2025-10-12T10:22:36Z</time>
      </trkpt>
      <trkpt lat="48.60207" lon="-3.03689">
        <ele>73</ele>
        <time>2025-10-12T10:22:40Z</time>
      </trkpt>
      <trkpt lat="48.60207" lon="-3.03687">
        <ele>73</ele>
        <time>2025-10-12T10:22:43Z</time>
      </trkpt>
      <trkpt lat="48.60214" lon="-3.037">
        <ele>73</ele>
        <time>2025-10-12T10:25:10Z</time>
      </trkpt>
      <trkpt lat="48.60219" lon="-3.03711">
        <ele>73.2</ele>
        <time>2025-10-12T10:25:20Z</time>
      </trkpt>
      <trkpt lat="48.60224" lon="-3.03712">
        <ele>73.6</ele>
        <time>2025-10-12T10:25:26Z</time>
      </trkpt>
    </trkseg>
  </trk>
</gpx>